[[{"header":{"parameterUnit":"m.s-1","parameterCategory":1,"la1":30.6,"la2":29.2853,"lo1":-89.7004,"lo2":-87.6739,"dy":0.0162,"dx":0.0183,"nx":112,"ny":82,"refTime":"2024-08-17T00:00:00:Z","depth":0,"parameterNumber":2,"parameterNumberName":"U-component_of_WINDS"},"data":[0.0,0.0,0.0,0.0,0.0,0.0,0.0,0.0,0.0,0.0,0.0,0.0,0.0,0.0,0.0,0.0,0.0,0.0,0.0,0.0,0.0,0.0,0.0,0.0,0.0,0.0,0.0,0.0,0.0,0.0,0.0,0.0,0.0,0.0,0.0,0.0,0.0,0.0,0.0,0.0,0.0,0.0,0.0,0.0,0.0,0.0,0.0,0.0,0.0,0.0,0.0,0.0,0.0,0.0,0.0,0.0,0.0,0.0,0.0,0.0,0.0,0.0,0.0,0.0,0.0,0.0,0.0,0.0,0.0,0.0,0.0,0.0,0.0,0.0,0.0,0.0,0.0,0.0,0.0,0.0,0.0,0.0,0.0,0.0,0.0,0.0,0.0,0.0,0.0,0.0,2.9043,3.0531,3.0721,3.0515,3.0078,2.9578,2.892,2.7948,0.0,0.0,0.0,0.0,0.0,0.0,0.0,0.0,0.0,0.0,0.0,0.0,0.0,0.0,0.0,0.0,0.0,0.0,0.0,0.0,0.0,0.0,0.0,0.0,0.0,0.0,0.0,0.0,0.0,0.0,0.0,0.0,0.0,0.0,0.0,0.0,0.0,0.0,0.0,0.0,0.0,0.0,0.0,0.0,0.0,0.0,0.0,0.0,0.0,0.0,0.0,0.0,0.0,0.0,0.0,0.0,0.0,0.0,0.0,0.0,0.0,0.0,0.0,0.0,0.0,0.0,0.0,0.0,0.0,0.0,0.0,0.0,0.0,0.0,0.0,0.0,0.0,0.0,0.0,0.0,0.0,0.0,0.0,0.0,0.0,0.0,0.0,0.0,0.0,0.0,0.0,0.0,0.0,0.0,0.0,0.0,0.0,0.0,0.0,0.0,0.0,0.0,0.0,0.0,2.8316,2.9106,2.9424,2.9236,2.8516,2.7954,2.7262,2.6396,0.0,0.0,0.0,0.0,0.0,0.0,0.0,0.0,0.0,0.0,0.0,0.0,0.0,0.0,0.0,0.0,0.0,0.0,0.0,0.0,0.0,0.0,0.0,0.0,0.0,0.0,0.0,0.0,0.0,0.0,0.0,0.0,0.0,0.0,0.0,0.0,0.0,0.0,0.0,0.0,0.0,0.0,0.0,0.0,0.0,0.0,0.0,0.0,0.0,0.0,0.0,0.0,0.0,0.0,0.0,0.0,0.0,0.0,0.0,0.0,0.0,0.0,0.0,0.0,0.0,0.0,0.0,0.0,0.0,0.0,0.0,0.0,0.0,0.0,0.0,0.0,0.0,0.0,0.0,0.0,0.0,0.0,0.0,0.0,0.0,0.0,0.0,0.0,0.0,0.0,0.0,0.0,0.0,0.0,0.0,0.0,0.0,0.0,0.0,0.0,0.0,0.0,0.0,2.7815,2.779,2.7743,2.7726,2.7372,2.6514,2.6384,2.5894,2.4972,2.5242,0.0,0.0,0.0,0.0,0.0,0.0,0.0,0.0,0.0,0.0,0.0,0.0,0.0,0.0,0.0,0.0,0.0,0.0,0.0,0.0,0.0,0.0,0.0,0.0,0.0,0.0,0.0,0.0,0.0,0.0,0.0,0.0,0.0,0.0,0.0,0.0,0.0,0.0,0.0,0.0,0.0,0.0,0.0,0.0,0.0,0.0,0.0,0.0,0.0,0.0,0.0,0.0,0.0,0.0,0.0,0.0,0.0,0.0,0.0,0.0,0.0,0.0,0.0,0.0,0.0,0.0,0.0,0.0,0.0,0.0,0.0,0.0,0.0,0.0,0.0,0.0,0.0,0.0,0.0,0.0,0.0,0.0,0.0,0.0,0.0,0.0,0.0,0.0,0.0,0.0,0.0,0.0,0.0,0.0,0.0,0.0,0.0,0.0,0.0,0.0,0.0,0.0,2.7059,2.7035,2.6375,2.6102,2.5592,2.478,2.4767,2.4406,2.3629,2.322,0.0,0.0,0.0,0.0,0.0,0.0,0.0,0.0,0.0,0.0,0.0,0.0,0.0,0.0,0.0,0.0,0.0,0.0,0.0,0.0,0.0,0.0,0.0,0.0,0.0,0.0,0.0,0.0,0.0,0.0,0.0,0.0,0.0,0.0,0.0,0.0,0.0,0.0,0.0,0.0,0.0,0.0,0.0,0.0,0.0,0.0,0.0,0.0,0.0,0.0,0.0,0.0,0.0,0.0,0.0,0.0,0.0,0.0,0.0,0.0,0.0,0.0,0.0,0.0,0.0,0.0,0.0,0.0,0.0,0.0,0.0,0.0,0.0,0.0,0.0,0.0,0.0,0.0,0.0,0.0,0.0,0.0,0.0,0.0,0.0,0.0,0.0,0.0,0.0,0.0,0.0,0.0,0.0,0.0,0.0,0.0,0.0,0.0,0.0,0.0,0.0,0.0,2.5936,2.5649,2.5246,2.4715,2.4249,2.3656,2.3156,2.2759,2.2357,2.1602,0.0,0.0,0.0,0.0,0.0,0.0,0.0,0.0,0.0,0.0,0.0,0.0,0.0,0.0,0.0,0.0,0.0,0.0,0.0,0.0,0.0,0.0,0.0,0.0,0.0,0.0,0.0,0.0,0.0,0.0,0.0,0.0,0.0,0.0,0.0,0.0,0.0,0.0,0.0,0.0,0.0,0.0,0.0,0.0,0.0,0.0,0.0,0.0,0.0,0.0,0.0,0.0,0.0,0.0,0.0,0.0,0.0,0.0,0.0,0.0,0.0,0.0,0.0,0.0,0.0,0.0,0.0,0.0,0.0,0.0,0.0,0.0,0.0,0.0,0.0,0.0,0.0,0.0,0.0,0.0,0.0,0.0,0.0,0.0,0.0,0.0,0.0,0.0,0.0,0.0,0.0,0.0,0.0,0.0,0.0,0.0,0.0,0.0,0.0,0.0,0.0,0.0,2.4925,2.4546,2.3958,2.3565,2.3026,2.2405,2.224,2.1894,2.1105,0.0,0.0,0.0,0.0,0.0,0.0,0.0,0.0,0.0,0.0,0.0,0.0,0.0,0.0,0.0,0.0,0.0,0.0,0.0,0.0,0.0,0.0,0.0,0.0,0.0,0.0,0.0,0.0,0.0,0.0,0.0,0.0,0.0,0.0,0.0,0.0,0.0,0.0,0.0,0.0,0.0,0.0,0.0,0.0,0.0,0.0,0.0,0.0,0.0,0.0,0.0,0.0,0.0,0.0,0.0,0.0,0.0,0.0,0.0,0.0,0.0,0.0,0.0,0.0,0.0,0.0,0.0,0.0,0.0,0.0,0.0,0.0,0.0,0.0,0.0,0.0,0.0,0.0,0.0,0.0,0.0,0.0,0.0,0.0,0.0,0.0,0.0,0.0,0.0,0.0,0.0,0.0,0.0,0.0,0.0,0.0,0.0,0.0,0.0,0.0,0.0,0.0,2.4246,2.3951,2.3538,2.2889,2.2578,2.2115,2.1427,2.1502,2.1069,2.0057,0.0,0.0,0.0,0.0,0.0,0.0,0.0,0.0,0.0,0.0,0.0,0.0,0.0,0.0,0.0,0.0,0.0,0.0,0.0,0.0,0.0,0.0,0.0,0.0,0.0,0.0,0.0,0.0,0.0,0.0,0.0,0.0,0.0,0.0,0.0,0.0,0.0,0.0,0.0,0.0,0.0,0.0,0.0,0.0,0.0,0.0,0.0,0.0,0.0,0.0,0.0,0.0,0.0,0.0,0.0,0.0,0.0,0.0,0.0,0.0,0.0,0.0,0.0,0.0,0.0,0.0,0.0,0.0,0.0,0.0,0.0,0.0,0.0,0.0,0.0,0.0,0.0,0.0,0.0,0.0,0.0,0.0,0.0,0.0,0.0,0.0,0.0,0.0,0.0,0.0,0.0,0.0,0.0,0.0,0.0,0.0,0.0,0.0,0.0,0.0,0.0,0.0,2.3728,2.3198,2.2504,2.2035,2.1795,2.1404,2.0778,2.0669,2.0243,0.0,0.0,0.0,0.0,0.0,0.0,0.0,0.0,0.0,0.0,0.0,0.0,0.0,0.0,0.0,0.0,0.0,0.0,0.0,0.0,0.0,0.0,0.0,0.0,0.0,0.0,0.0,0.0,0.0,0.0,0.0,0.0,0.0,0.0,0.0,0.0,0.0,0.0,0.0,0.0,0.0,0.0,0.0,0.0,0.0,0.0,0.0,0.0,0.0,0.0,0.0,0.0,0.0,0.0,0.0,0.0,0.0,0.0,0.0,0.0,0.0,0.0,0.0,0.0,0.0,0.0,0.0,0.0,0.0,0.0,0.0,0.0,0.0,0.0,0.0,0.0,0.0,0.0,0.0,0.0,0.0,0.0,0.0,0.0,0.0,0.0,0.0,0.0,0.0,0.0,0.0,0.0,0.0,0.0,0.0,0.0,0.0,0.0,0.0,0.0,0.0,0.0,0.0,2.2934,2.2366,2.1823,2.1247,2.0859,2.0467,2.0324,2.0194,1.9725,1.8692,0.0,0.0,0.0,0.0,0.0,0.0,0.0,0.0,0.0,0.0,0.0,0.0,0.0,0.0,0.0,0.0,0.0,0.0,0.0,0.0,0.0,0.0,0.0,0.0,0.0,0.0,0.0,0.0,0.0,0.0,0.0,0.0,0.0,0.0,0.0,0.0,0.0,0.0,0.0,0.0,0.0,0.0,0.0,0.0,0.0,0.0,0.0,0.0,0.0,0.0,0.0,0.0,0.0,0.0,0.0,0.0,0.0,0.0,0.0,0.0,0.0,0.0,0.0,0.0,0.0,0.0,0.0,0.0,0.0,0.0,0.0,0.0,0.0,0.0,0.0,0.0,0.0,0.0,0.0,0.0,0.0,0.0,0.0,0.0,0.0,0.0,0.0,0.0,0.0,0.0,0.0,0.0,0.0,0.0,0.0,0.0,0.0,0.0,0.0,0.0,0.0,0.0,2.2481,2.1951,2.1336,2.0775,2.0313,1.9977,1.9781,1.966,1.9136,1.8193,0.0,0.0,0.0,0.0,0.0,0.0,0.0,0.0,0.0,0.0,0.0,0.0,0.0,0.0,0.0,0.0,0.0,0.0,0.0,0.0,0.0,0.0,0.0,0.0,0.0,0.0,0.0,0.0,0.0,0.0,0.0,0.0,0.0,0.0,0.0,0.0,0.0,0.0,0.0,0.0,0.0,0.0,0.0,0.0,0.0,0.0,0.0,0.0,0.0,0.0,0.0,0.0,0.0,0.0,0.0,0.0,0.0,0.0,0.0,0.0,0.0,0.0,0.0,0.0,0.0,0.0,0.0,0.0,0.0,0.0,0.0,0.0,0.0,0.0,0.0,0.0,0.0,0.0,0.0,0.0,0.0,0.0,0.0,0.0,0.0,0.0,0.0,0.0,0.0,0.0,0.0,0.0,0.0,0.0,0.0,0.0,0.0,0.0,0.0,0.0,0.0,0.0,2.2274,2.1776,2.1083,2.0399,2.0074,1.9671,1.9274,1.9075,1.8627,1.775,0.0,0.0,0.0,0.0,0.0,0.0,0.0,0.0,0.0,0.0,0.0,0.0,0.0,0.0,0.0,0.0,0.0,0.0,0.0,0.0,0.0,0.0,0.0,0.0,0.0,0.0,0.0,0.0,0.0,0.0,0.0,0.0,0.0,0.0,0.0,0.0,0.0,0.0,0.0,0.0,0.0,0.0,0.0,0.0,0.0,0.0,0.0,0.0,0.0,0.0,0.0,0.0,0.0,0.0,0.0,0.0,0.0,0.0,0.0,0.0,2.4455,0.0,0.0,0.0,0.0,0.0,0.0,0.0,0.0,0.0,0.0,0.0,0.0,0.0,0.0,0.0,0.0,0.0,0.0,0.0,0.0,0.0,0.0,0.0,0.0,0.0,0.0,0.0,0.0,0.0,0.0,0.0,0.0,0.0,0.0,0.0,0.0,0.0,0.0,0.0,0.0,0.0,2.1992,2.1262,2.0571,2.0064,1.9539,1.9131,1.871,1.8529,1.8175,1.7441,1.7412,0.0,0.0,0.0,0.0,0.0,0.0,0.0,0.0,0.0,0.0,0.0,0.0,0.0,0.0,0.0,0.0,0.0,0.0,0.0,0.0,0.0,0.0,0.0,0.0,0.0,0.0,0.0,0.0,0.0,0.0,0.0,0.0,0.0,0.0,0.0,0.0,0.0,0.0,0.0,0.0,0.0,0.0,0.0,0.0,0.0,0.0,0.0,0.0,0.0,0.0,0.0,0.0,0.0,0.0,0.0,0.0,0.0,0.0,0.0,0.0,2.4654,0.0,0.0,0.0,0.0,0.0,0.0,0.0,0.0,0.0,0.0,0.0,0.0,0.0,0.0,0.0,0.0,0.0,0.0,0.0,0.0,0.0,0.0,0.0,0.0,0.0,0.0,0.0,0.0,0.0,0.0,0.0,0.0,0.0,0.0,0.0,0.0,0.0,0.0,0.0,0.0,2.1495,2.0816,2.0118,1.9605,1.9075,1.8529,1.8172,1.791,1.7533,1.6978,1.6836,0.0,0.0,0.0,0.0,0.0,0.0,0.0,0.0,0.0,0.0,0.0,0.0,0.0,0.0,0.0,0.0,0.0,0.0,0.0,0.0,0.0,0.0,0.0,0.0,0.0,0.0,0.0,0.0,0.0,0.0,0.0,0.0,0.0,0.0,0.0,0.0,0.0,0.0,0.0,0.0,0.0,0.0,0.0,0.0,0.0,0.0,0.0,0.0,0.0,0.0,0.0,0.0,0.0,2.4499,2.4288,2.4176,2.3821,2.3668,2.3752,2.4853,2.4858,2.4072,2.4458,0.0,0.0,0.0,0.0,0.0,0.0,0.0,0.0,0.0,0.0,0.0,0.0,0.0,0.0,0.0,0.0,0.0,0.0,0.0,0.0,0.0,0.0,0.0,0.0,2.528,2.5409,2.6507,0.0,0.0,0.0,0.0,0.0,0.0,0.0,0.0,0.0,0.0,0.0,2.0939,2.0355,1.9715,1.8998,1.8472,1.7988,1.7579,1.7304,1.6949,1.648,1.6337,1.6191,0.0,0.0,0.0,0.0,0.0,0.0,0.0,0.0,0.0,0.0,0.0,0.0,0.0,0.0,0.0,0.0,0.0,0.0,0.0,0.0,0.0,0.0,0.0,0.0,0.0,0.0,0.0,0.0,0.0,0.0,0.0,0.0,2.5148,2.5591,0.0,0.0,0.0,0.0,0.0,0.0,0.0,0.0,0.0,0.0,0.0,0.0,0.0,2.4497,2.4849,2.4261,2.3932,2.3755,2.3077,2.2994,2.3444,2.3106,2.3059,2.338,2.3514,0.0,2.3851,2.4149,0.0,0.0,0.0,0.0,0.0,0.0,0.0,0.0,0.0,0.0,0.0,0.0,0.0,0.0,0.0,0.0,0.0,0.0,0.0,0.0,0.0,0.0,2.4982,2.5253,2.5153,2.5071,0.0,2.4834,2.4404,2.4404,2.4151,0.0,0.0,0.0,0.0,0.0,0.0,0.0,2.0291,1.977,1.9177,1.8472,1.8056,1.7579,1.7038,1.6821,1.6585,1.6341,1.6341,1.6374,1.6519,1.6193,0.0,0.0,0.0,0.0,0.0,0.0,0.0,0.0,0.0,0.0,0.0,0.0,0.0,0.0,0.0,0.0,0.0,0.0,0.0,0.0,0.0,0.0,0.0,0.0,0.0,0.0,0.0,0.0,0.0,2.5663,2.6121,2.6045,2.5994,2.5849,0.0,0.0,0.0,0.0,0.0,0.0,0.0,0.0,0.0,2.4029,2.3965,2.392,2.401,2.3671,2.3398,2.3265,2.2921,2.2828,2.2747,2.2379,2.2328,2.2446,2.2231,2.2115,2.2176,2.2889,2.3016,2.2761,0.0,0.0,0.0,0.0,2.3042,2.3042,2.2975,2.2907,2.2907,2.3042,0.0,0.0,0.0,0.0,0.0,0.0,0.0,0.0,0.0,0.0,2.4295,2.4325,2.4154,2.4009,2.3863,2.3655,2.3525,0.0,2.3625,2.3202,2.2622,0.0,0.0,0.0,0.0,2.0042,1.9452,1.8988,1.8452,1.7784,1.7442,1.7038,1.6621,1.6412,1.6263,1.6202,1.607,1.607,1.6132,1.6113,1.6154,0.0,0.0,0.0,0.0,0.0,0.0,0.0,0.0,0.0,0.0,0.0,0.0,0.0,0.0,0.0,0.0,0.0,0.0,0.0,0.0,0.0,0.0,0.0,0.0,0.0,0.0,0.0,0.0,2.6302,2.6965,2.6651,2.6623,2.6414,0.0,0.0,0.0,0.0,0.0,0.0,2.3466,2.4,2.4103,2.368,2.3491,2.3351,2.3236,2.3104,2.2922,2.2692,2.2542,2.2241,2.1939,2.1538,2.1298,2.1221,2.0924,2.0615,2.0508,2.1586,2.175,2.1368,2.15,2.1571,2.1571,2.1571,2.1571,2.1571,2.1571,2.1582,2.1653,2.1653,2.1837,2.1996,2.1862,0.0,0.0,0.0,0.0,2.2965,2.2712,2.2988,2.3265,2.3054,2.2841,2.2692,2.2542,2.2392,2.251,0.0,2.2908,2.2545,2.2271,0.0,0.0,0.0,0.0,1.9245,1.8617,1.8202,1.7784,1.7097,1.6899,1.6621,1.6272,1.6132,1.6,1.6,1.5867,1.5805,1.5805,1.5859,1.5921,1.5921,0.0,0.0,0.0,0.0,0.0,0.0,0.0,0.0,0.0,0.0,0.0,0.0,0.0,0.0,0.0,0.0,0.0,0.0,0.0,0.0,0.0,0.0,0.0,0.0,0.0,0.0,0.0,0.0,0.0,2.7342,2.7612,0.0,0.0,0.0,0.0,2.5152,2.4632,2.4153,2.3616,2.3344,2.3199,2.3351,2.3033,2.2911,2.3032,2.2446,2.2069,2.1842,2.1318,2.0857,2.0615,2.0391,2.0079,1.9678,1.9678,1.9529,1.945,2.043,2.071,2.0546,2.0546,2.0546,2.0546,2.0546,2.0546,2.0546,2.0546,2.07,2.0921,2.1074,2.1094,2.0969,2.0432,2.0679,0.0,0.0,2.1447,2.1876,2.1659,2.1593,2.1538,2.1395,2.1318,2.1318,2.1318,2.1318,2.1538,0.0,2.2242,2.1998,2.1418,0.0,2.0441,1.9583,1.9034,1.8447,1.7832,1.7442,1.7097,1.6673,1.6473,1.6272,1.6132,1.5929,1.5805,1.5805,1.5805,1.5805,1.5805,1.5647,1.5497,1.5497,1.5346,0.0,0.0,0.0,0.0,0.0,0.0,0.0,0.0,0.0,0.0,0.0,0.0,0.0,0.0,0.0,0.0,0.0,0.0,0.0,0.0,0.0,0.0,0.0,0.0,0.0,0.0,0.0,0.0,2.7598,2.7404,0.0,2.6329,2.5709,2.5078,2.4422,2.4171,2.3753,2.3133,2.3301,2.3205,2.2728,2.2444,2.2158,2.1807,2.1328,2.0934,2.0547,2.0235,1.9923,1.9687,1.9539,1.9301,1.8975,1.8895,1.8585,1.8336,1.8647,1.9125,1.9539,1.9539,1.9539,1.9539,1.9539,1.9618,1.9766,1.9766,1.9766,1.9844,2.006,2.011,2.012,2.0031,2.0166,2.0293,2.0293,2.04,2.0595,2.0527,2.045,2.045,2.0372,2.0372,2.0294,2.0226,2.0148,2.0226,2.0382,2.0769,2.0941,2.0476,2.0002,1.958,1.9197,1.848,1.7877,1.7444,1.7055,1.6682,1.6333,1.6202,1.607,1.5938,1.5867,1.5805,1.5805,1.5655,1.5576,1.5576,1.5588,1.5632,1.5632,1.5799,1.5922,0.0,0.0,0.0,0.0,0.0,0.0,0.0,0.0,0.0,0.0,0.0,0.0,0.0,0.0,0.0,0.0,0.0,0.0,0.0,0.0,0.0,0.0,0.0,0.0,0.0,2.719,2.7441,2.7662,2.7353,2.6854,2.6155,2.5441,2.4792,2.413,2.3898,2.347,2.2822,2.2974,2.2777,2.2025,2.1711,2.1339,2.0731,2.0169,1.9705,1.9412,1.904,1.8734,1.85,1.8417,1.8241,1.8073,1.7971,1.7781,1.7456,1.7375,1.77,1.8184,1.8353,1.8442,1.8442,1.8442,1.8514,1.8665,1.8745,1.8736,1.8816,1.8975,1.9054,1.9054,1.9204,1.9283,1.9283,1.9362,1.9362,1.9441,1.945,1.9529,1.9529,1.9529,1.9529,1.945,1.9301,1.9301,1.9222,1.9073,1.9529,1.9923,1.9599,1.9316,1.8939,1.8715,1.8172,1.7568,1.7213,1.6892,1.6589,1.6381,1.6381,1.6318,1.6182,1.6062,1.5985,1.5922,1.577,1.5618,1.5538,1.5749,1.579,1.579,1.6027,1.6081,1.6005,0.0,0.0,0.0,0.0,0.0,0.0,0.0,0.0,0.0,0.0,0.0,0.0,0.0,0.0,0.0,0.0,0.0,0.0,0.0,0.0,0.0,0.0,0.0,2.634,2.6961,2.7437,2.7547,2.7536,2.7149,2.6414,2.5721,2.504,2.449,2.3897,2.3298,2.2703,2.2252,2.1807,2.1205,2.0712,2.0235,1.9844,1.9034,1.8592,1.8362,1.7614,1.7128,1.6893,1.7063,1.7075,1.6847,1.6952,1.7017,1.7025,1.6714,1.655,1.6378,1.7139,1.7392,1.7392,1.7392,1.74,1.7392,1.7619,1.77,1.77,1.787,1.7951,1.7951,1.7951,1.7959,1.804,1.8282,1.8362,1.8442,1.862,1.87,1.87,1.87,1.87,1.87,1.87,1.87,1.8612,1.8442,1.8683,1.9002,1.9002,1.8772,1.8567,1.8168,1.7951,0.0,1.7273,1.6994,1.6918,1.6918,1.6918,1.6918,1.6918,1.6567,1.6215,1.6094,1.6012,1.5921,1.5692,1.5894,1.6029,1.6045,1.5806,1.566,1.5459,0.0,0.0,0.0,0.0,0.0,0.0,0.0,0.0,0.0,0.0,0.0,0.0,0.0,0.0,0.0,0.0,0.0,0.0,0.0,0.0,0.0,2.606,2.6354,2.6914,2.7113,2.726,2.7511,2.7059,2.6483,2.5886,2.5182,2.4478,2.3897,2.3298,2.2628,2.1883,2.1415,2.0944,2.0255,1.9854,1.939,1.8784,1.8297,1.787,1.7503,1.7028,1.675,1.6674,1.6623,1.6365,1.5979,1.5912,1.5646,1.5189,1.5189,1.5035,1.4976,1.6203,1.664,1.6722,1.682,1.7147,1.7392,1.7473,1.7383,1.7294,1.7302,1.7383,1.7383,1.7383,1.7473,1.7554,1.7635,1.7635,1.7716,1.7716,1.7725,1.7725,1.7725,1.7725,1.7797,1.7951,1.7951,1.8031,1.8112,1.8201,1.8273,1.8273,1.8201,1.8167,1.8054,1.7804,0.0,1.7398,1.7081,1.6918,1.6918,1.6918,1.6918,1.6918,1.6657,1.6522,1.6455,1.6154,1.6002,1.5926,1.6036,1.6301,1.6645,1.657,1.6536,0.0,0.0,0.0,0.0,0.0,0.0,0.0,0.0,0.0,0.0,0.0,0.0,0.0,0.0,0.0,0.0,0.0,0.0,0.0,0.0,0.0,0.0,2.6144,2.6329,2.6485,2.6476,2.6517,2.6723,2.5996,2.5283,2.4823,2.4295,2.3743,2.3287,2.2628,2.1949,2.1195,2.0634,2.0003,1.9288,1.8897,1.8395,1.7908,1.7377,1.7044,1.6893,1.6286,1.5988,1.5988,1.5922,1.5694,1.5323,1.515,1.4817,1.4365,1.4078,1.3829,0.0,0.0,0.0,0.0,0.0,1.6484,1.673,1.673,1.6648,1.6476,1.6386,1.6386,1.6386,1.6476,1.6558,1.673,1.7066,1.7147,1.7147,1.731,1.7392,1.7392,1.7392,1.7392,1.7392,1.7546,1.7619,1.77,1.787,1.7951,0.0,1.804,1.804,1.804,1.804,1.7843,1.7706,1.7706,1.7518,1.7389,1.7389,1.7389,1.7303,1.7225,1.7003,0.0,0.0,0.0,1.6283,1.6501,1.654,0.0,0.0,0.0,0.0,0.0,0.0,0.0,0.0,1.6861,1.7229,0.0,0.0,0.0,0.0,0.0,0.0,0.0,0.0,0.0,0.0,0.0,0.0,0.0,0.0,0.0,0.0,2.5953,2.609,2.5664,2.5485,2.5435,2.5501,2.4612,2.3917,2.363,2.3199,2.2844,2.2584,2.1975,2.1293,2.0488,0.0,0.0,0.0,0.0,1.7543,1.7067,1.6573,1.6319,1.6285,1.5576,1.5204,1.5213,1.5121,1.5043,1.4754,1.4515,1.4248,1.3938,1.3198,1.2863,1.2968,1.4138,1.4713,1.5082,1.5484,1.5567,1.565,1.565,0.0,0.0,1.5311,1.5311,1.5311,1.5567,1.565,1.5816,1.6402,1.6566,1.6738,1.7147,1.7229,1.7229,1.731,1.731,1.731,1.731,1.7546,1.7619,1.77,1.7789,1.7951,1.7951,1.7959,1.804,1.804,1.804,1.804,1.804,1.804,1.7951,1.7951,0.0,0.0,1.77,1.7334,1.6992,1.6596,1.6549,1.6798,1.731,1.7063,1.7048,1.7396,1.714,1.6913,1.681,1.7398,1.7601,1.7341,1.7638,1.7611,0.0,0.0,0.0,0.0,0.0,0.0,0.0,0.0,0.0,0.0,0.0,0.0,0.0,0.0,0.0,2.6358,2.6485,2.6311,2.5764,2.4928,2.4365,2.4398,2.3797,2.325,2.2948,2.2421,2.2061,2.1942,2.0897,2.0112,1.965,1.8655,1.7916,1.7459,1.7173,1.6917,1.6447,1.637,1.6191,1.5908,0.0,0.0,1.5204,1.4856,1.4527,1.4237,1.3866,1.3297,1.2641,1.2203,1.2013,1.2081,1.3251,1.402,1.4566,1.4817,1.4992,1.5249,1.5249,1.5075,1.4901,1.4643,1.4559,1.4643,1.4817,1.5151,0.0,1.5816,1.6072,1.6252,1.6335,1.6335,1.6417,1.6566,1.6558,1.673,1.7057,1.7221,1.7302,1.7473,1.7473,1.7554,1.7554,1.7797,1.804,1.804,1.804,1.804,1.804,1.804,1.7951,1.7781,1.7781,1.7708,1.7473,1.7245,1.7114,1.6952,1.6897,1.6985,1.7407,1.7162,1.706,1.7214,1.7221,1.7301,1.7632,1.7757,1.7763,1.7836,1.7836,1.776,0.0,0.0,0.0,0.0,0.0,0.0,0.0,0.0,0.0,0.0,0.0,2.4918,2.5001,0.0,2.5768,2.6134,2.5907,2.5523,2.4987,2.3993,2.3275,2.3275,2.2657,2.2151,2.2082,2.1631,2.1279,2.0958,2.0195,1.9438,1.861,1.7986,1.7424,1.6859,1.6702,1.6447,1.6071,1.6071,1.6071,1.6071,1.5621,1.5576,1.5757,1.5306,1.4934,1.4568,1.4043,1.3346,1.2538,1.1781,1.1526,1.1723,1.2423,1.3054,1.3633,1.4062,1.4237,1.4412,1.4412,1.4321,1.4153,1.3977,1.3893,1.3984,1.4153,1.4489,1.4824,1.5068,1.5409,1.5582,1.5741,1.5741,1.5824,1.5982,1.6154,1.6319,1.6648,1.6968,1.7139,1.7221,1.731,1.7392,1.7392,1.7627,1.787,1.787,1.7951,1.7951,1.787,1.787,1.7789,1.7546,1.7546,1.7465,1.7302,1.7228,1.7159,1.6992,1.7063,1.7241,1.7494,1.7249,1.7229,1.7467,1.7283,1.7426,1.7816,1.779,1.7838,1.7844,1.7701,1.7381,0.0,0.0,0.0,0.0,0.0,0.0,0.0,2.4833,2.4733,2.4609,2.4836,2.4961,2.4613,2.5263,2.5748,2.5644,2.5179,2.4636,2.4091,2.3084,2.2392,2.2221,2.1591,2.1126,2.1152,2.0852,2.0439,2.0012,1.9513,1.8764,1.7759,1.7471,1.7042,1.6426,1.6413,1.631,1.6019,1.6019,1.6165,1.6374,1.6079,1.6021,1.6319,1.592,1.5528,1.5157,1.4372,1.3599,1.2755,1.1834,1.1526,1.178,1.207,1.2392,1.2875,1.3392,1.3568,1.3568,1.3568,1.3568,1.3568,1.3307,1.3222,1.3307,1.3483,1.3737,1.4082,1.4405,1.4741,1.4915,1.5068,1.5151,1.5228,1.5484,1.5748,1.6079,1.6312,1.6722,1.6968,1.6968,1.7139,1.7229,1.7229,1.7465,1.7619,1.7691,1.787,1.7951,1.77,1.77,1.7619,1.7392,1.731,1.7261,1.7155,1.7187,1.7156,1.7103,1.7288,1.742,1.7576,1.7318,1.7353,1.7621,1.7426,1.7428,1.7814,1.7788,1.7802,1.7743,1.7272,1.6839,2.5409,2.4332,2.3746,2.4269,2.4739,2.5086,0.0,2.5194,2.5314,2.5314,2.5066,2.4854,2.4797,2.5356,2.5683,2.5294,2.5119,2.4737,2.3676,2.278,2.195,2.1168,2.1001,2.0722,2.0314,1.9943,1.9613,1.9333,1.829,1.7535,1.7397,1.6916,1.6607,1.6336,1.667,1.6833,1.679,1.679,1.6816,1.6858,1.6615,1.6413,1.6319,1.6081,1.5766,1.5312,1.4372,1.356,1.2811,1.2355,1.2202,1.2365,1.256,1.2816,1.3052,1.3143,1.3143,1.3143,1.3143,1.3143,1.3137,1.2875,1.279,1.279,1.3052,1.3307,1.3483,1.3737,1.3977,1.423,1.4243,1.4405,1.465,1.5082,1.5325,1.565,1.6312,1.6476,1.6476,1.6476,1.6648,1.673,1.6558,1.7057,1.7473,1.77,1.787,1.7951,1.77,1.77,1.7538,1.7139,1.7139,1.7187,1.7275,1.7069,1.718,1.7796,1.7417,1.7318,1.7654,1.7468,1.7296,1.7333,1.7333,1.7442,1.7867,1.769,1.7401,1.7233,1.663,1.6418,2.4858,2.4615,2.4584,2.4664,2.4873,2.5053,2.5053,2.5025,2.5048,2.5048,2.4835,2.462,2.4447,2.4693,2.4794,2.423,2.3904,2.3508,2.2803,2.2062,2.141,2.0873,2.0786,2.0582,2.0172,1.966,1.9225,1.8743,1.789,1.7274,1.7108,1.6782,1.6603,1.667,1.6833,1.6918,1.6918,1.6918,1.703,1.7235,1.7012,1.7044,1.7088,1.6771,1.6381,1.574,1.4889,1.4243,1.3682,1.3447,1.3277,1.3149,1.34,1.362,1.3639,1.3222,1.3137,1.3058,1.2875,1.2881,1.2875,1.2705,1.2705,1.2705,1.279,1.3052,1.3222,1.3307,1.3561,1.373,1.3652,1.373,1.3899,1.4419,1.4741,1.5144,1.5726,1.6064,1.6245,1.6245,1.6327,1.6327,1.6394,1.673,1.7057,1.7294,1.7619,1.7789,1.7546,1.7456,1.7221,1.6894,1.6913,1.7012,1.7077,1.7195,1.7374,1.7477,1.7499,1.7479,1.7426,1.7333,1.7326,1.7326,1.7326,1.7464,1.7917,1.7413,1.7109,1.6842,1.6205,1.5594,2.4169,2.4559,2.4901,2.4705,2.4649,2.4649,2.4649,2.4415,2.4182,2.4182,2.419,2.4152,2.3877,2.4094,2.4128,2.3515,2.2995,2.2609,2.2255,2.162,2.1106,2.0733,2.0792,2.074,2.0249,1.9679,1.906,1.8506,1.7829,1.738,1.706,1.6898,1.6931,1.7064,1.7175,1.7227,1.7227,1.7227,1.7364,1.7629,1.748,1.7536,1.77,1.7294,1.6812,1.6237,1.5568,1.5057,1.465,1.4487,1.4316,1.4173,1.4386,1.4475,1.4391,1.3808,1.3392,1.3222,1.2875,1.279,1.279,1.2705,1.2705,1.2705,1.2705,1.2881,1.2966,1.2966,1.3052,1.3222,1.3222,1.3307,1.3483,1.3913,1.4328,1.4817,1.5235,1.5658,1.5914,1.5914,1.5914,1.6079,1.6237,1.6566,1.6812,1.7057,1.7458,1.7573,1.7318,1.7139,1.6934,1.6873,1.6852,1.6986,1.718,1.7389,1.744,1.7355,1.7494,1.7527,1.7333,1.7326,1.7326,1.7326,1.7421,1.7551,1.7818,1.7289,1.6883,1.6418,1.5672,1.4938,2.3149,2.3433,2.3765,2.371,2.3723,2.3723,2.3723,2.3203,2.2683,2.2683,2.2955,2.3193,2.308,2.3658,2.4029,2.3515,2.2995,2.2609,2.2255,2.162,2.1106,2.0733,2.1095,2.1185,2.0636,1.9815,1.9184,1.8924,1.8119,1.766,1.7486,1.7475,1.7519,1.7449,1.7809,1.8006,1.8006,1.8006,1.8006,1.8014,1.7942,1.7861,1.77,1.7294,1.6976,1.6656,1.6237,1.5899,1.5636,1.5462,1.5379,1.5379,1.5394,1.5394,1.5311,1.4817,1.4237,1.3646,1.3228,1.3052,1.3052,1.279,1.2705,1.2705,1.2705,1.2705,1.2705,1.2705,1.2705,1.2705,1.2705,1.3052,1.3476,1.3652,1.4237,1.4741,1.5082,1.5242,1.5394,1.5394,1.5567,1.5824,1.6087,1.6409,1.6812,1.7057,1.7349,1.7446,1.718,1.6894,1.6865,1.7223,1.7085,1.718,1.7768,1.7485,1.7363,1.7684,1.7426,1.7333,1.7326,1.7326,1.7326,1.7326,1.764,1.7671,1.7505,1.7191,1.6658,1.5891,1.525,1.4719,2.2218,2.2538,2.2935,2.2852,2.2839,2.2826,2.2826,2.2668,2.2469,2.2469,2.2572,2.2711,2.2819,2.2916,2.2867,2.2751,2.2312,2.1933,2.1731,2.1389,2.1232,2.1325,2.1517,2.1543,2.1446,2.0695,2.0027,1.9616,1.8836,1.8295,1.8123,1.7881,1.7752,1.7843,1.7971,1.804,1.804,1.804,1.804,1.804,1.804,1.787,1.77,1.7538,1.7383,1.7147,1.6984,1.682,1.664,1.6558,1.6394,1.6229,1.6147,1.6057,1.5982,1.5567,1.5151,1.4734,1.3815,1.3398,1.3222,1.3052,1.2875,1.2705,1.2705,1.2705,1.2705,1.2705,1.279,1.2966,1.2966,1.3137,1.3476,1.3652,1.399,1.4328,1.4573,1.4817,1.4985,1.5159,1.5318,1.565,1.6004,1.6327,1.6645,1.7139,1.7435,1.7548,1.7576,1.7507,1.7469,1.7588,1.7461,1.742,1.765,1.7415,1.7309,1.7419,1.7333,1.7326,1.7326,1.7326,1.7428,1.7647,1.7757,1.7786,1.7813,1.7299,1.6665,1.5891,1.525,1.4629,2.1455,2.1917,2.247,2.2126,2.2073,2.206,2.206,2.1957,2.1799,2.1799,2.197,2.2189,2.2442,2.2414,2.238,2.2396,2.2217,2.1957,2.1742,2.1712,2.177,2.1901,2.2105,2.2195,2.2151,2.1761,2.1207,2.039,1.9639,1.9089,1.8761,1.8319,1.8118,1.8031,1.804,1.804,1.804,1.804,1.804,1.804,1.804,1.7951,1.7781,1.77,1.7619,1.7465,1.7392,1.731,1.7221,1.7221,1.7147,1.6902,1.6812,1.6722,1.664,1.6229,1.5899,1.5484,1.4321,1.3815,1.3568,1.3222,1.2966,1.279,1.2705,1.279,1.2875,1.2875,1.3052,1.3307,1.3307,1.3561,1.373,1.3822,1.4082,1.4328,1.4321,1.4482,1.4657,1.4915,1.5252,1.5668,1.6187,1.6606,1.7054,1.7588,1.7808,1.7833,1.7842,1.7771,1.7819,1.7946,1.7714,1.7629,1.7751,1.7487,1.7326,1.7326,1.7326,1.7326,1.7326,1.7326,1.7479,1.7808,1.7933,1.7959,1.7967,1.7558,1.6768,1.5891,1.525,1.4635,2.0906,2.1498,2.2205,2.1603,2.1472,2.1472,2.1472,2.1054,2.0699,2.0699,2.1093,2.155,2.1847,2.2204,2.246,2.2421,2.2567,2.2592,2.2302,2.2521,2.2617,2.2434,2.2854,2.3018,2.2673,2.2875,2.2509,2.126,0.0,1.9965,1.9362,1.8922,1.8531,1.804,1.804,1.804,1.804,1.804,1.804,1.804,1.804,1.804,1.7951,1.7781,1.77,1.77,1.7546,1.7392,1.7392,1.7392,1.7392,1.74,1.7416,1.7335,1.7082,1.686,1.6547,1.605,1.4929,1.4334,1.3997,1.3398,1.3137,1.3052,1.279,1.2875,1.3137,1.3137,1.3392,1.373,1.373,1.4062,1.4405,1.4186,1.4439,1.4601,1.4298,1.4284,1.4523,1.4783,1.5284,1.5935,1.6536,1.7321,1.7914,1.8247,1.8319,1.8208,1.7866,1.7826,1.7954,1.8287,1.7877,1.7735,1.8056,1.7613,1.7326,1.7326,1.7326,1.7333,1.7355,1.7355,1.7516,1.786,1.8167,1.8189,1.7995,1.7762,1.7054,1.5891,1.525,1.4724,2.0801,2.0922,2.1105,2.0961,2.0922,2.0922,2.0922,2.0804,2.0699,2.0699,2.083,2.1133,2.177,2.1787,2.2043,2.3059,2.2807,2.258,2.2901,2.2796,2.2823,2.3132,2.3222,2.3379,2.3525,2.3514,2.3169,2.253,2.1546,2.0681,2.0001,1.9311,1.8763,1.8273,1.8121,1.804,1.804,1.804,1.804,1.804,1.804,1.804,1.804,1.7951,1.7951,1.7951,1.7878,1.7878,1.7878,1.7878,1.7878,1.7823,1.8019,1.7888,1.7746,1.777,1.7533,1.7063,1.6111,1.5184,1.4237,1.3913,1.3568,1.3307,1.3222,1.3392,1.3568,1.3568,1.3899,1.423,1.423,1.4398,1.4713,1.4864,1.484,1.4902,1.5216,1.5163,1.5237,1.5857,1.6548,1.7139,1.7479,1.785,1.8192,1.8287,1.8526,1.8661,1.8565,1.8557,1.8597,1.8684,1.8233,1.7995,1.8079,1.7613,1.7326,1.7326,1.7326,1.7435,1.7684,1.7691,1.7955,1.8525,1.8621,1.8513,1.8303,1.7857,1.7054,1.5891,1.525,1.4724,2.0861,2.0775,2.0762,2.0699,2.0699,2.0699,2.0699,2.0699,2.0699,2.0699,2.0699,2.0964,2.1745,2.1729,2.2046,2.3293,2.3224,2.3089,2.3473,2.341,2.3454,2.3741,2.3775,2.3807,2.3875,2.3824,2.3593,2.315,2.2176,2.1262,2.0391,1.9608,1.8984,1.8442,1.8121,1.804,1.804,1.804,1.804,1.804,1.804,1.804,1.804,1.804,1.804,1.804,0.0,1.804,1.7968,1.8211,1.828,1.8314,1.8624,1.8515,1.8201,1.8321,1.7969,1.7422,1.696,1.6245,1.5355,1.4494,1.4068,1.3815,1.3737,1.3815,1.4095,1.4314,1.4695,1.4979,1.519,1.5397,1.544,1.5538,1.55,1.5469,1.58,1.5747,1.5871,1.6729,1.7389,1.7976,1.8386,1.8579,1.8707,1.8707,1.8792,1.8827,1.8827,1.8827,1.8827,1.8827,1.8365,1.8087,1.8087,1.7613,1.7326,1.7326,1.7465,1.7625,1.7808,1.7955,1.8269,1.8782,1.8789,1.8635,1.8422,1.7898,1.7054,1.5891,1.525,1.4724,2.0974,2.0938,2.0888,2.0762,2.0699,2.0699,2.0699,2.0699,2.0699,2.0699,2.0764,2.1055,2.1812,2.1959,2.2306,2.3356,2.3595,2.3716,2.3977,2.4153,2.42,2.42,2.42,2.4127,2.397,2.3897,2.374,2.3372,2.2628,2.1787,2.0702,2.0001,1.9292,1.8434,1.8121,1.804,1.804,1.804,1.804,1.804,1.804,1.804,1.804,1.804,1.804,1.804,1.804,0.0,1.8134,1.8459,1.8614,1.8708,1.9102,1.898,1.8634,1.8684,1.8272,1.7754,1.7707,1.742,1.6785,1.522,1.4684,1.4691,1.445,1.4528,1.4831,1.5282,1.5626,1.5864,1.6301,1.6455,1.6382,1.6166,1.6181,1.6188,1.6306,1.6402,1.6661,1.7583,1.8096,1.8643,1.9139,1.9188,1.9188,1.9188,1.9004,1.8827,1.8827,1.8827,1.8827,1.8827,1.8365,1.8179,1.8087,1.765,1.7391,1.7391,1.7699,1.7904,1.794,1.8218,1.8518,1.8847,1.8855,1.8678,1.8429,1.7898,1.7054,1.5998,1.5357,1.4719,2.1193,2.1023,2.0888,2.0888,2.0775,2.0699,2.0699,2.0699,2.0699,2.0699,2.1028,2.1524,2.1985,2.2252,2.2677,2.353,2.3518,2.357,2.3965,2.4153,2.42,2.42,2.42,2.42,2.4116,2.397,2.3824,2.3593,2.3075,2.2402,2.1339,2.0401,1.939,1.8434,1.8121,1.804,1.804,1.804,1.804,1.804,1.804,1.804,1.804,1.804,1.804,1.804,1.804,0.0,1.8494,1.8562,1.8776,1.911,1.9495,1.9465,1.9314,1.9535,1.948,1.9167,1.8669,1.8467,1.8136,1.6866,1.6301,1.6126,1.6126,1.6213,1.6403,1.6272,1.6382,1.658,1.6448,1.6551,1.681,1.6989,1.6958,1.7123,1.7666,1.7919,1.8218,1.854,1.8824,1.9123,1.9479,1.9379,1.9188,1.9188,1.9004,1.8827,1.8827,1.8827,1.8827,1.8827,1.8566,1.8381,1.8087,1.8063,1.7934,1.7735,1.8035,1.8343,1.8613,1.8672,1.8855,1.9184,1.9191,1.9117,1.8764,1.8227,1.7483,1.6518,1.5779,1.5137,2.1568,2.134,2.1158,2.1059,2.0924,2.0775,2.0775,2.0762,2.0699,2.0699,2.1106,2.1642,2.2053,2.2454,2.3025,2.3716,2.3842,2.3905,2.4241,2.4295,2.4345,2.4345,2.4273,2.42,2.42,2.4116,2.3897,2.3593,2.3298,2.2703,2.1731,2.0323,1.9222,1.8442,1.8121,1.804,1.804,1.804,1.804,1.804,1.804,1.804,1.804,1.804,1.804,1.804,1.8244,0.0,1.8637,1.9028,1.9305,1.954,1.9909,1.983,1.9642,1.9819,1.9812,1.9521,1.9241,1.9192,1.9101,1.8481,1.7741,1.6999,1.6999,1.6919,1.6868,1.7018,1.6982,1.6944,1.7191,1.7243,1.7387,1.7629,1.7842,1.8072,1.8419,1.8743,1.9128,1.9212,1.9387,1.9654,1.9754,1.9654,1.9554,1.9554,1.9288,1.9012,1.9012,1.9087,1.9034,1.8843,1.8808,1.873,1.8534,1.8459,1.8364,1.8259,1.8471,1.8628,1.8782,1.895,1.9118,1.9272,1.9279,1.9175,1.8869,1.8338,1.7589,1.673,1.5879,1.5137,2.2044,2.1746,2.1471,2.1326,2.1109,2.0987,2.0938,2.0825,2.0788,2.0906,2.1341,2.1877,2.2302,2.2803,2.3302,2.3763,2.4089,2.4267,2.4425,2.4495,2.4634,2.4574,2.4418,2.4273,2.42,2.42,2.4043,2.3677,2.3372,2.2777,2.1731,2.0245,1.9143,1.8523,1.8282,1.804,1.804,1.804,1.804,1.804,1.804,1.804,1.804,1.804,1.804,1.804,1.8342,1.8545,0.0,1.9347,1.9687,1.9887,2.0176,2.0175,1.996,1.996,1.9877,1.9704,1.9704,1.9729,1.9762,1.9762,1.8921,1.784,1.784,1.7575,1.7272,1.7613,1.7417,1.7294,1.7832,1.7908,1.7908,1.8272,1.8643,1.892,1.8928,1.9304,1.9587,1.9671,1.9754,1.9928,2.0019,1.9928,1.9928,1.9928,1.9563,1.9312,1.9385,1.9467,1.9477,1.9175,1.9202,1.9169,1.9073,1.8995,1.8889,1.879,1.891,1.8993,1.8891,1.914,1.9279,1.9279,1.9279,1.9175,1.8974,1.8443,1.7806,1.6948,1.6092,1.5345,2.2601,2.2231,2.1888,2.1616,2.1375,2.1144,2.1046,2.0997,2.1143,2.1674,2.2168,2.2655,2.3234,2.3597,2.378,2.3633,2.4104,2.4418,2.4259,2.4662,2.4886,2.479,2.4574,2.4418,2.42,2.42,2.4116,2.3897,2.3372,2.2478,2.1359,2.0333,1.9548,1.8922,1.8603,1.8282,1.804,1.804,1.804,1.804,1.804,1.804,1.804,1.804,1.804,1.804,1.8049,1.8442,0.0,1.9239,1.9677,2.0296,2.0266,2.0292,2.0283,2.0283,2.0283,2.0201,2.0201,2.0201,2.0201,2.0201,1.9695,1.8999,1.8999,1.874,1.8295,1.8126,1.8041,1.7956,1.7807,1.8102,1.8566,1.9012,1.9096,1.9196,1.9487,1.9587,1.9671,1.9845,1.9936,2.0019,2.0201,2.0019,1.9928,1.9928,1.9671,1.9695,2.0008,1.998,2.0033,2.0151,1.9998,1.9723,1.9431,1.975,1.9645,1.9134,1.9448,1.9531,1.9228,1.9257,1.9279,1.9279,1.9279,1.9279,1.9279,1.8974,1.8443,1.7806,1.6723,1.598,2.3053,2.2692,2.2324,2.2231,2.1888,2.165,2.1969,2.1916,2.2005,2.2494,2.3045,2.3417,2.349,2.3822,2.4086,2.3819,2.4453,2.4859,2.4601,2.5399,2.5804,2.5147,2.5109,2.4961,2.4441,2.4273,2.4127,2.3897,2.3372,2.2692,2.1928,2.0857,1.9932,1.9231,1.8674,1.8273,1.804,1.804,1.804,1.804,1.804,1.804,1.804,1.804,1.804,1.804,1.8253,1.8676,0.0,1.9431,1.9805,2.0292,2.0292,2.0292,2.0292,2.0292,2.0292,2.0292,2.0292,2.0292,2.0292,2.0292,1.9936,1.9396,1.9412,1.902,1.8442,1.8373,1.8187,1.8087,1.8195,1.8558,1.9012,1.9196,1.9379,1.9654,1.9754,1.9936,2.0027,2.011,2.011,2.0201,2.0292,2.0201,2.011,2.011,2.0121,2.0222,2.0356,2.0575,2.0712,2.0565,2.0482,2.0375,2.0087,2.021,2.01,1.9778,1.9708,1.9576,1.9272,1.9279,1.9279,1.9279,1.9279,1.9279,1.9279,1.9078,1.8548,1.8016,1.7047,1.6199,2.3777,2.3333,2.2828,2.2783,2.2402,2.223,2.2797,2.2817,2.2853,2.3585,2.3932,2.4068,2.4021,2.4269,2.4429,0.0,2.4939,2.5435,2.5293,2.6189,2.6609,2.5814,2.5803,2.5554,2.4842,2.4438,2.4127,2.3897,2.3434,2.2979,2.2499,2.14,2.042,1.9539,1.8922,1.846,1.8138,1.8049,1.804,1.804,1.804,1.804,1.804,1.804,1.804,1.804,1.8334,1.8616,0.0,1.9369,1.9796,2.0138,2.0249,2.0292,2.0292,2.0292,2.0292,2.0292,2.0292,2.0292,2.0292,2.0292,2.0019,1.9654,1.9687,1.9112,1.8527,1.8458,1.8365,1.8365,1.8651,1.902,1.9288,1.9371,1.9654,1.9928,2.0019,2.0201,2.0292,2.0292,2.0292,2.0292,2.0292,2.0292,2.0292,2.0292,2.0516,2.061,2.0712,2.1189,2.1321,2.1129,2.1045,2.0945,2.0551,2.0578,2.0514,2.0078,1.9879,1.968,1.9272,1.9279,1.9279,1.9279,1.9279,1.9279,1.9279,1.9071,1.8757,1.8122,1.7265,1.6305,2.4865,2.4162,2.3422,2.3172,2.2889,2.2821,2.3345,2.3373,2.3645,2.4929,2.4847,2.4735,2.5107,2.4948,2.4865,2.5157,2.5507,2.5957,2.6336,2.6922,2.7139,2.6697,2.6661,2.6257,2.5378,2.4634,2.4127,2.3897,2.3717,0.0,2.2765,2.1901,2.1004,1.9932,1.9286,1.8763,1.844,1.8146,1.804,1.804,1.804,1.804,1.804,1.804,1.804,1.804,1.804,1.8245,0.0,1.9025,1.9401,1.9787,2.0146,2.0292,2.0292,2.0292,2.0292,2.0292,2.0292,2.0292,2.0292,2.0292,2.0076,1.9861,1.9911,1.9204,1.8473,1.8519,1.8619,1.8827,1.9096,1.9387,1.9679,1.9845,1.9928,1.9928,2.0201,2.0292,2.0292,2.0292,2.0292,2.0292,2.0292,2.0292,2.0292,2.0292,2.0626,2.1002,2.1362,2.1747,2.1934,2.1684,2.1717,2.1522,2.0917,2.0925,2.0712,2.0078,2.0078,1.9879,1.9272,1.9279,1.9279,1.9279,1.9279,1.9279,1.9279,1.9279,1.8959,1.8422,1.7575,1.6299,2.5757,2.541,2.5047,2.4956,2.4773,2.4764,2.5349,2.5301,2.5336,2.6087,2.5997,2.5694,2.5577,2.5615,2.567,2.5579,2.6131,0.0,2.6583,2.7516,2.7839,2.6986,2.6286,2.5655,2.5096,2.4561,2.42,2.4116,2.379,2.343,2.315,2.237,2.1333,2.0169,1.9404,1.8843,1.844,1.8146,1.804,1.804,1.804,1.804,1.804,1.804,1.804,1.804,1.804,1.8245,0.0,1.8716,1.9153,1.9752,1.9872,2.0069,2.0292,2.0292,2.0292,2.0292,2.0292,2.0292,2.0292,2.0292,2.0102,1.9903,1.9886,1.9637,1.922,1.922,1.932,1.9328,1.9487,1.9671,1.9845,1.9837,2.0019,2.0201,2.0292,2.0292,2.0292,2.0292,2.0292,2.0292,2.0292,2.0292,2.0386,2.0651,2.1011,2.1379,2.1764,2.2141,2.2315,2.2013,2.1827,2.1522,2.0925,2.0925,2.0719,2.0411,2.0189,1.9983,1.9583,1.9376,1.9279,1.9279,1.9279,1.9279,1.9279,1.9279,1.8855,1.8115,1.7483,1.6636,2.6734,2.6321,2.5971,2.5971,2.5832,2.5858,2.6471,2.6475,2.6456,2.7019,2.6893,2.6582,2.6449,2.6428,2.6387,2.6484,2.6832,2.709,2.7394,2.8148,2.8328,2.7631,2.6533,2.5686,2.5222,2.4602,2.42,2.42,2.3841,2.3509,2.3324,2.257,2.1613,2.0592,1.9788,1.9118,1.8646,1.8342,1.8138,1.804,1.804,1.804,1.804,1.804,1.804,1.804,1.804,0.0,0.0,1.8528,1.887,1.9333,1.9624,1.9881,2.0103,2.024,2.0292,2.0292,2.0292,2.0292,2.0292,2.0292,2.0201,2.0011,2.0076,1.9812,1.9563,1.9604,1.9612,1.9687,1.9679,1.9845,2.0019,2.0019,2.0201,2.0292,2.0292,2.0292,2.0292,2.0292,2.0292,2.0292,2.0292,2.0292,2.0429,2.0823,2.1182,2.155,2.1944,2.2321,2.2443,2.2131,2.1827,2.1522,2.1121,2.0917,2.0822,2.0522,2.03,2.0086,1.9879,1.9576,1.948,1.948,1.9376,1.9279,1.9279,1.9175,1.8862,1.8115,1.7589,1.6955,0.0,2.6949,2.6367,2.6367,2.626,2.6321,2.6944,2.7016,0.0,2.772,2.7569,2.738,2.7686,2.7326,2.7211,2.7913,2.766,2.7668,2.8662,2.8653,2.8585,2.8488,2.715,2.6142,2.567,2.4774,2.42,2.42,2.3857,2.3537,2.3346,2.2603,2.188,2.1273,2.0449,1.9696,1.9048,1.8637,1.8253,1.804,1.804,1.804,1.804,1.804,1.804,0.0,1.804,0.0,0.0,1.8408,1.8562,1.8656,1.9384,1.9675,1.9744,2.0121,2.0249,2.0257,2.0283,2.0292,2.0292,2.0292,2.0292,2.0292,2.0292,1.9994,1.9613,1.9662,1.9754,1.9936,1.9936,2.011,2.0292,2.0292,2.0292,2.0292,2.0292,2.0292,2.0292,2.0292,2.0292,2.0292,2.0292,2.0317,2.0472,2.0857,2.1225,2.1593,2.1987,2.2338,2.2443,2.2131,2.1928,2.1623,2.1318,2.1019,2.0822,2.0522,2.0514,2.0411,2.0189,1.9879,1.968,1.968,1.948,1.9272,1.9279,1.9078,1.8757,1.8422,1.7898,1.7371,2.8211,0.0,2.7871,2.7871,2.7871,2.7869,0.0,2.7957,2.7905,2.8057,0.0,2.8188,2.8057,2.8323,2.8658,2.8941,2.8944,2.912,2.9518,2.9104,2.8587,2.7992,2.6913,2.5949,2.5203,2.4539,2.42,2.42,2.3975,2.3756,2.3523,2.3065,2.2521,2.1904,2.1208,2.0261,1.9039,1.8637,1.8253,1.804,1.804,1.804,1.804,1.804,1.804,1.804,0.0,0.0,1.804,1.8134,1.8331,1.8605,1.8785,1.9042,1.9358,1.9735,1.9872,1.9915,2.0189,2.0292,2.0292,2.0292,2.0292,2.0292,2.0292,2.0192,2.0102,2.0119,2.0201,2.0201,2.0201,2.0292,2.0292,2.0292,2.0292,2.0292,2.0292,2.0292,2.0292,2.0292,2.0292,2.0292,2.0292,2.054,2.0865,2.1234,2.161,2.1996,2.2364,2.2492,2.2544,2.2443,2.2232,2.1928,2.1623,2.1121,2.0917,2.0822,2.0617,2.0522,2.0411,2.0189,1.9983,1.9983,1.9783,1.948,1.9279,1.9279,1.9071,1.8757,1.8653,1.8227,2.8411,2.8411,2.8411,2.8411,2.8642,2.8873,2.8873,0.0,0.0,0.0,0.0,0.0,0.0,2.9173,2.9366,2.9743,2.9659,2.9578,2.9737,2.933,2.8611,2.7823,2.6664,2.5704,2.4967,2.4482,2.42,2.42,2.3986,2.3813,2.3624,2.3216,2.2767,2.222,2.1665,2.0732,1.9405,1.8923,1.8549,1.8201,1.804,1.804,1.804,1.804,1.804,1.804,0.0,0.0,1.804,1.804,1.816,1.8348,1.8519,1.8716,1.8973,1.9538,1.9744,1.9795,2.0163,2.0292,2.0292,2.0292,2.0292,2.0292,2.0292,2.0292,2.0292,2.0292,2.0292,2.0292,2.0292,2.0292,2.0292,2.0292,2.0292,2.0292,2.0292,2.0292,2.0292,2.0292,2.0292,2.0352,2.0531,2.0737,2.1062,2.1593,2.1859,2.2133,2.2501,2.2644,2.2644,2.2644,2.2333,2.2021,2.1928,2.1522,2.1121,2.0925,2.0719,2.0719,2.0719,2.0403,2.0197,2.0078,1.9879,1.9576,1.948,1.9376,1.9279,1.9078,1.8974,1.8764,2.8381,2.8473,2.855,2.855,2.9073,2.9566,2.9566,0.0,0.0,0.0,0.0,0.0,0.0,2.9973,2.9783,3.0474,3.0168,2.9899,3.0025,2.9412,2.8662,2.775,2.6491,2.5401,2.4906,2.4436,2.42,2.42,2.407,2.3886,2.3664,2.3301,2.2894,2.2477,2.1941,2.1108,2.0134,1.9427,1.8834,1.8442,1.8201,1.804,1.804,1.804,1.804,1.804,0.0,0.0,1.804,1.804,1.804,1.8066,1.8382,1.8502,1.8596,1.9376,1.9658,1.9718,2.0146,2.0292,2.0292,2.0292,2.0292,2.0292,2.0292,2.0292,2.0292,2.0292,2.0292,2.0292,2.0292,2.0292,2.0292,2.0292,2.0292,2.0292,2.0292,2.0292,2.0309,2.0369,2.0377,2.0506,2.0891,2.1011,2.1268,2.1901,2.2047,2.2192,2.261,2.2644,2.2644,2.2644,2.2333,2.2131,2.2123,2.1818,2.153,2.1019,2.0917,2.0917,2.0925,2.0719,2.0411,2.0189,1.9887,1.9783,1.968,1.948,1.9279,1.9272,1.9078,1.8974,2.8258,2.8827,2.9258,2.9258,2.9766,3.0274,3.0274,0.0,0.0,0.0,0.0,0.0,0.0,3.0435,3.0793,3.0978,3.1167,3.1249,3.1114,2.9954,2.8787,2.7726,2.6512,2.5413,2.4599,2.4353,2.42,2.42,2.4189,2.4093,2.3841,2.3609,2.3323,2.2905,2.2283,2.1696,2.0994,2.001,1.9222,1.862,1.8442,1.8201,1.804,1.804,1.804,1.804,0.0,1.804,1.804,1.804,1.804,1.804,1.81,1.8126,1.822,1.8982,1.9264,1.9358,2.0052,2.0292,2.0292,2.0292,2.0292,2.0292,2.0292,2.0292,2.0292,2.0292,2.0292,2.0292,2.0292,2.0292,2.0292,2.0292,2.0292,2.0292,2.0292,2.0292,2.0386,2.072,2.0788,2.09,2.1268,2.161,2.1867,2.1978,2.2261,2.2484,2.2544,2.2644,2.2644,2.2644,2.2544,2.2443,2.2123,2.1818,2.1522,2.1224,2.1224,2.1121,2.0925,2.0822,2.0719,2.0411,2.0189,1.9879,1.968,1.948,1.9279,1.9279,1.9279,1.9279,2.8227,2.9166,2.9966,2.9966,3.0406,3.0845,3.0845,0.0,0.0,0.0,0.0,0.0,0.0,3.0765,3.1033,3.1171,3.1384,3.1415,3.0763,2.9555,2.8371,2.7275,2.6081,2.5132,2.4533,2.4307,2.42,2.42,2.42,2.4116,2.3886,2.3796,2.3586,2.315,2.2799,2.2283,2.1655,2.0876,1.9942,1.8851,1.8523,1.8282,1.804,1.804,1.804,1.804,0.0,1.804,1.804,1.804,1.804,1.804,1.804,1.804,1.8134,1.8888,1.9307,1.9564,2.0103,2.0292,2.0292,2.0292,2.0292,2.0292,2.0292,2.0292,2.0292,2.0292,2.0292,2.0292,2.0292,2.0292,2.0292,2.0292,2.0292,2.0292,2.0292,2.0506,2.0636,2.0857,2.1037,2.1285,2.1662,2.1876,2.2064,2.2261,2.2432,2.2644,2.2644,2.2644,2.2644,2.2644,2.2434,2.2232,2.2123,2.1818,2.1522,2.1121,2.1121,2.1027,2.0925,2.0925,2.0822,2.0719,2.0292,2.0086,1.9879,1.948,1.9279,1.9279,1.9279,1.9367,2.8181,2.9396,3.0428,3.0428,0.0,3.1427,3.1372,0.0,0.0,0.0,0.0,0.0,0.0,3.0783,3.0802,3.0936,3.1092,3.0877,3.0112,2.8975,2.7927,2.7001,2.5768,2.4945,2.4606,2.4319,2.42,2.42,2.4085,2.3956,2.3761,2.3625,2.3401,2.3028,2.293,2.2541,2.1943,2.1451,2.0498,1.924,1.8763,1.8362,1.8112,1.804,1.804,1.804,1.804,1.804,1.804,1.804,1.804,1.804,1.804,1.8143,1.8374,1.8956,1.947,1.9915,2.0189,2.0292,2.0292,2.0292,2.0292,2.0292,2.0292,2.0292,2.0292,2.0292,2.0292,2.0292,2.0292,2.0292,2.0292,2.0292,2.0292,2.03,2.0408,2.0677,2.0925,2.1088,2.1345,2.167,2.2055,2.2124,2.2227,2.2501,2.2644,2.2644,2.2644,2.2644,2.2644,2.2644,2.2333,2.203,2.1928,2.1725,2.142,2.0925,2.0917,2.0925,2.0925,2.0925,2.0917,2.0822,2.0292,2.0086,1.9983,1.9576,1.9279,1.9279,1.9279,1.9447,2.8042,2.9396,3.0428,3.0428,3.129,0.0,3.1977,3.1838,0.0,3.1394,0.0,0.0,0.0,3.0221,3.0086,3.0186,3.0057,2.9861,2.968,2.8672,2.7741,2.7292,2.609,2.5159,2.4821,2.4426,2.42,2.42,2.3764,2.3429,2.3429,2.2833,2.2433,2.2226,2.2259,2.2067,2.146,2.1298,2.0731,1.9863,1.924,1.8754,1.8362,1.8112,1.804,1.804,1.804,1.804,1.804,1.804,1.804,1.804,1.804,1.8468,1.9102,1.9153,1.9632,2.0257,2.0283,2.0292,2.0292,2.0292,2.0292,2.0292,2.0292,2.0292,2.0292,2.0292,2.0292,2.0292,2.0292,2.0292,2.0292,2.0292,2.0292,2.04,2.075,2.0845,2.1062,2.1758,2.1973,2.2073,2.2441,2.261,2.2619,2.2644,2.2644,2.2644,2.2644,2.2644,2.2644,2.2644,2.2333,2.1928,2.142,2.1326,2.1224,2.0925,2.1121,2.1121,2.0917,2.0925,2.0822,2.0514,2.0292,1.9983,1.968,1.948,1.9279,1.9279,1.9279,1.9447,2.8042,2.9089,2.9904,3.032,0.0,0.0,0.0,3.1625,3.1336,3.1058,3.0821,0.0,0.0,3.0104,2.9992,2.9925,2.9824,2.9552,2.8973,2.8355,2.7774,2.7006,2.6198,2.5443,2.4992,2.4282,2.3849,2.3729,2.3259,2.2972,2.2972,2.2708,2.2469,2.2252,2.2235,2.2138,2.1929,2.1449,2.0913,2.0479,1.9469,1.8763,1.8353,1.8121,1.804,1.804,1.804,1.804,1.804,1.804,1.804,1.804,1.804,1.8357,1.8836,1.9085,1.9504,1.9984,2.0215,2.0292,2.0292,2.0292,2.0292,2.0292,2.0292,2.0292,2.0292,2.0292,2.0292,2.0292,2.0292,2.0292,2.0292,2.0292,2.0292,2.0369,2.0827,2.1062,2.1353,2.1939,2.2158,2.2381,2.2518,2.2644,2.2644,2.2644,2.2644,2.2644,2.2644,2.2644,2.2544,2.2333,2.1928,2.142,2.1121,2.1019,2.1027,2.0925,2.1019,2.1027,2.0925,2.0719,2.0617,2.0522,2.0094,1.9776,1.968,1.948,1.9279,1.9279,1.9484,1.9755,2.8088,2.9058,2.9843,0.0,0.0,0.0,3.1577,3.1452,3.1117,3.0702,3.0462,3.0225,2.9895,2.9721,2.9517,2.928,2.9251,2.8968,2.8232,2.7971,2.7554,2.6782,2.6071,2.5432,2.4837,2.3944,2.3387,2.3201,2.2731,2.2444,2.2444,2.2283,2.2136,2.1924,2.1879,2.1851,2.1843,2.1417,2.1046,2.0745,1.9797,1.9002,1.8523,1.8201,1.8121,1.804,1.804,1.804,1.804,1.804,1.804,1.8049,1.8168,1.8442,1.8819,1.9213,1.959,1.9949,2.0198,2.0292,2.0292,2.0292,2.0292,2.0292,2.0292,2.0292,2.0292,2.0292,2.0292,2.0292,2.0292,2.0292,2.0292,2.0292,2.0386,2.0566,2.0984,2.1293,2.1713,2.2098,2.2372,2.2644,2.2644,2.2644,2.2644,2.2644,2.2644,2.2644,2.2644,2.2644,2.2443,2.2021,2.1623,2.1326,2.0917,2.0925,2.0822,2.0822,2.0822,2.0822,2.0822,2.0514,2.0308,2.0205,1.9887,1.968,1.9576,1.9376,1.933,1.9433,1.9659,1.9989,2.8227,2.9396,3.0412,0.0,0.0,0.0,3.1537,3.1278,3.0955,3.0387,2.9898,2.9477,2.9162,2.8908,2.8651,2.821,2.8091,2.7934,2.759,2.7417,2.7165,2.6748,2.5727,2.4921,2.433,2.345,2.2854,2.2673,2.2203,2.1916,2.1916,2.1433,2.1094,2.0903,2.1205,2.1197,2.0828,2.1211,2.1104,2.0466,2.013,1.9478,1.87,1.8523,1.8273,1.804,1.804,1.804,1.804,1.804,1.804,1.8074,1.8442,1.8828,1.9222,1.9598,1.9975,2.0292,2.0292,2.0292,2.0292,2.0292,2.0292,2.0292,2.0292,2.0292,2.0292,2.0292,2.0292,2.0292,2.0292,2.0292,2.0292,2.0292,2.0591,2.1019,2.1285,2.169,2.2107,2.2475,2.2644,2.2644,2.2644,2.2644,2.2644,2.2644,2.2644,2.2644,2.2644,2.2644,2.2342,2.1725,2.1725,2.1522,2.0925,2.0925,2.0822,2.0522,2.0522,2.0522,2.0522,2.0197,1.9983,1.968,1.968,1.9583,1.9279,1.9279,1.9447,1.9762,1.9769,2.0113,2.8796,2.9396,0.0,3.0874,0.0,0.0,0.0,3.1278,0.0,0.0,2.9789,2.9415,2.9162,2.8844,2.8509,2.8143,2.7947,2.7776,2.7523,2.7443,2.7154,2.6435,2.582,2.5024,2.3965,2.31,2.2488,2.2145,2.1675,2.1388,2.1388,2.1314,2.1158,2.1094,2.0997,2.0984,2.1197,2.078,2.0686,2.0903,2.0361,1.9667,1.8922,1.8523,1.8273,1.804,1.804,1.804,1.804,1.804,1.804,1.8074,1.8442,1.8828,1.9222,1.9598,1.9975,2.0292,2.0292,2.0292,2.0292,2.0292,2.0292,2.0292,2.0292,2.0292,2.0292,2.0292,2.0292,2.0292,2.0292,2.0292,2.0292,2.0292,2.0591,2.096,2.1354,2.1724,2.2111,2.2558,2.2644,2.2644,2.2644,2.2644,2.2644,2.2846,2.2846,2.2846,2.2846,2.2636,2.2434,2.2021,2.1827,2.1522,2.1224,2.1224,2.1019,2.0822,2.0403,2.0189,2.0189,1.9983,1.9783,1.968,1.9472,1.9376,1.9279,1.9506,1.9667,1.9777,2.023,2.0537,2.9095,2.9585,0.0,3.1118,3.1367,3.1389,3.123,0.0,0.0,0.0,2.9588,2.9198,2.9022,2.8675,2.8417,2.8118,2.7894,2.7749,2.7523,2.7301,2.6948,2.6309,2.547,2.4549,2.3513,2.2645,2.2028,2.1617,2.1342,2.1221,2.1221,2.1221,2.1221,2.1221,2.0914,2.0868,2.1117,2.0684,2.0669,2.1073,2.0673,2.0156,1.9627,1.8993,1.8514,1.8112,1.804,1.804,1.804,1.804,1.804,1.8091,1.8614,1.8965,1.9239,1.9769,2.0103,2.0292,2.0292,2.0292,2.0292,2.0292,2.0292,2.0292,2.0292,2.0292,2.0292,2.0473,2.0473,2.0473,2.0473,2.0555,2.0598,2.058,2.0814,2.1191,2.1655,2.2088,2.2507,2.282,2.288,2.2872,2.2937,2.302,2.3129,2.3291,2.3364,2.3447,2.3256,2.3138,2.2828,2.2426,2.2224,2.2021,2.1623,2.1623,2.142,2.0917,2.0609,2.0292,2.0086,1.9783,1.9583,1.9583,1.9501,1.9469,1.9469,1.9791,2.0018,2.0157,2.0545,2.0794,2.9244,2.9886,0.0,3.1228,3.1682,0.0,3.0954,3.036,2.9917,2.9637,0.0,2.903,2.8853,2.8492,2.8233,2.8066,2.7841,2.7617,2.7406,2.6895,2.6465,2.6065,2.4861,2.3742,2.2986,2.221,2.1572,2.1221,2.1221,2.1221,2.1221,2.1221,2.1221,2.1221,2.1031,2.0839,2.0733,2.0754,2.082,2.0966,2.0845,2.0777,2.0585,1.9756,1.8993,1.8442,1.8201,1.804,1.8031,1.8031,1.804,1.8108,1.8879,1.917,1.9264,2.0018,2.0292,2.0292,2.0292,2.0292,2.0292,2.0292,2.0292,2.0292,2.0292,2.0382,2.0382,2.0654,2.0744,2.0744,2.0744,2.0916,2.1112,2.1102,2.1268,2.1612,2.2301,2.2784,2.3164,2.3409,2.3427,2.35,2.342,2.3683,2.38,2.3836,2.4089,2.4143,2.3863,2.3755,2.3538,2.3029,2.3029,2.2828,2.2224,2.2232,2.1827,2.1019,2.1027,2.0712,2.0189,1.971,1.942,1.942,1.9744,1.9913,1.9913,2.0128,2.0435,2.072,2.0757,2.0925,2.9215,2.9909,0.0,0.0,3.1485,3.1435,3.0763,3.0012,2.9423,2.9596,2.9345,2.9077,2.8817,2.843,2.7958,2.749,2.7154,2.675,2.6258,2.608,2.5735,2.4983,2.4342,2.3592,2.2627,2.2008,2.1624,2.14,2.1285,2.1221,2.1221,2.1221,2.1221,2.1221,2.1031,2.0903,2.0839,2.0629,2.0599,0.0,2.0945,2.0907,2.0747,2.0101,1.9469,1.8834,1.8523,1.8273,1.8282,1.8121,1.804,1.8108,1.8879,1.917,1.9264,2.0018,2.0292,2.0292,2.0292,2.0292,2.0292,2.0292,2.0292,2.0382,2.0564,2.0654,2.0744,2.1122,2.1212,2.1302,2.1463,2.1553,2.1726,2.2342,2.22,2.2187,2.2885,2.3269,2.3637,2.3854,2.3954,2.3954,2.3926,2.4205,2.4454,2.4878,2.4963,2.4941,2.4674,2.4486,2.418,2.3836,2.3827,2.3628,2.3129,2.3029,2.2728,2.192,2.1623,2.142,2.1011,2.0547,2.0272,2.0272,2.0397,2.0461,2.0461,2.0567,2.0655,2.0728,2.0984,2.1137,2.9126,0.0,0.0,3.1582,0.0,3.1407,3.0543,2.9842,2.9276,2.8799,2.8456,2.8201,2.7985,2.7561,2.7157,2.6818,2.6489,2.6182,2.5867,2.5572,2.5179,2.4561,2.4035,2.3403,2.2506,2.2061,2.1675,2.1388,2.1273,2.1221,2.1221,2.1221,2.1221,2.1221,2.1094,2.0967,2.0903,2.0658,2.0708,2.0962,2.0838,2.0899,2.1061,2.0284,1.9706,1.939,1.8913,1.8603,1.8531,1.8282,1.8121,1.8108,1.8879,1.917,1.9264,2.0018,2.0292,2.0292,2.0292,2.0292,2.0292,2.0473,2.0473,2.0564,2.0934,2.1024,2.1114,2.1741,2.1919,2.1919,2.2185,2.2504,2.2806,2.3335,2.3017,2.2804,2.38,2.4193,2.4421,2.4815,2.4913,2.4913,2.4913,2.5089,2.5441,2.5846,2.5905,2.5781,2.5509,2.5342,2.5147,2.4735,2.4627,2.4449,2.3972,2.3836,2.3511,2.271,2.2518,2.2401,2.2178,2.2119,2.1706,2.0801,2.0977,2.1016,2.0913,2.113,2.1068,2.0955,2.113,2.1211,2.8898,0.0,3.0499,3.1758,3.1799,0.0,3.0342,2.9793,2.917,2.794,2.7511,2.7297,2.7081,2.6674,2.635,2.6136,2.586,2.5664,2.5511,2.5118,2.4758,2.4442,2.3803,2.315,2.2604,2.2173,2.1788,2.1526,2.1336,2.1221,2.1221,2.1221,2.1221,2.1221,2.1221,2.1094,2.0967,2.0786,2.0859,2.1041,2.0739,2.0946,2.1492,2.0589,2.0178,2.0098,1.9469,1.9002,1.8851,1.8603,1.8362,1.8189,1.8886,1.9204,1.9342,2.003,2.0322,2.0374,2.0382,2.0382,2.0572,2.0744,2.0835,2.0925,2.1383,2.1571,2.1741,2.2441,2.2618,2.2627,2.2978,2.3525,2.4006,2.4322,2.387,2.3701,2.4859,2.5128,2.5226,2.5703,2.58,2.5887,2.5897,2.6081,2.635,2.6617,2.6617,2.6522,2.6234,2.6167,2.5994,2.5518,2.5421,2.5245,2.4792,2.4637,2.4295,2.3592,2.3582,2.356,2.3425,2.3695,2.3263,2.1779,2.1791,2.1808,2.1481,2.1647,2.1554,2.1325,2.1211,2.1211,2.8352,0.0,2.9807,0.0,3.1226,3.0951,0.0,0.0,2.8829,2.7758,2.7598,2.7509,2.7072,2.6868,2.6465,2.5661,2.5402,2.505,2.4413,2.4282,2.4171,2.4007,2.3633,2.3271,2.3017,2.2482,2.2061,2.1862,2.1526,2.1336,2.1221,2.1221,2.1221,2.1221,2.1221,2.1158,2.1158,2.0967,2.0873,2.0941,2.0831,2.1283,2.2169,2.1471,2.1124,2.0974,2.0177,1.9696,1.945,1.9073,1.8772,1.8656,1.9079,1.9375,1.9745,2.0009,2.0456,2.0907,2.0744,2.0934,2.1302,2.1302,2.1383,2.1642,2.2087,2.2264,2.2441,2.3144,2.3329,2.3505,2.4147,2.4375,2.4626,2.5355,2.5451,2.5496,2.5885,2.5897,2.6004,2.6294,2.64,2.6496,2.6699,2.6794,2.688,2.7156,2.6976,2.686,2.6788,2.6597,2.6416,2.633,2.6147,2.5877,2.5606,2.5323,2.4932,2.443,2.4764,2.4803,2.4555,2.4787,2.4765,2.4527,2.3659,2.3055,2.2717,2.2101,2.1668,2.1668,2.1325,2.1211,2.8565,2.9196,2.9592,0.0,3.0647,3.038,2.972,2.9259,2.8643,2.7583,2.7316,2.7107,2.6484,2.607,2.5666,2.5208,2.4922,2.4609,2.4242,2.4157,2.4067,2.3891,2.3772,2.3522,2.3138,2.2714,2.2297,2.1925,2.1588,2.1336,2.1221,2.1221,2.1221,2.1221,2.1221,2.1221,2.1221,2.1031,2.0839,2.0786,2.103,2.1362,2.1793,2.1697,2.1627,2.1655,2.0964,2.0489,2.0313,1.9696,1.939,1.9268,1.9516,1.9832,2.0238,2.0539,2.0934,2.1365,2.1284,2.1463,2.1811,2.1909,2.2087,2.2441,2.2882,2.3057,2.3144,2.3764,2.3851,2.4038,2.4757,2.5053,2.548,2.6136,2.6494,2.6635,2.6733,2.6688,2.6602,2.688,2.6976,2.6976,2.7071,2.7081,2.7167,2.7262,2.7177,2.7156,2.7115,2.703,2.6849,2.6754,2.6718,2.6527,2.63,2.6265,2.6116,2.572,2.5879,2.5973,2.59,2.6008,2.6102,2.6178,2.4684,2.3689,2.3239,2.2675,2.223,2.1668,2.1554,2.1325,0.0,0.0,2.9319,2.9997,3.0048,2.9806,0.0,2.8976,2.8589,2.7571,2.7233,2.6907,2.6326,2.566,2.5174,2.5061,2.4708,2.4465,2.4292,2.4203,2.4112,2.3949,2.3891,2.37,2.3258,2.2896,2.2469,2.1999,2.1663,2.1411,2.1221,2.1221,2.1221,2.1221,2.1221,2.1221,2.1221,2.1031,2.0914,2.0797,2.1104,2.1351,2.1486,2.1642,2.1843,2.1977,2.1504,2.1237,2.1098,2.0489,2.0089,1.9951,2.0042,2.04,2.0885,2.1098,2.1544,2.2087,2.2008,2.2167,2.2511,2.2608,2.2882,2.3144,2.359,2.3677,2.3764,2.4206,2.4374,2.4569,2.5186,2.572,2.6175,2.663,2.7013,2.7262,2.7262,2.7177,2.7081,2.7262,2.7262,2.7262,2.7262,2.7262,2.7262,2.7262,2.7262,2.7262,2.7262,2.7355,2.7342,2.7064,2.7198,2.7212,2.7011,2.6929,2.6937,2.6749,2.6795,2.6891,2.6979,2.7103,2.71,2.7206,2.5688,2.4573,2.3888,2.3352,2.2683,2.1881,2.1789,2.1561,0.0,2.8458,0.0,2.9304,2.9473,2.9408,2.9245,2.918,2.8895,2.7976,2.7539,2.7335,2.7181,2.6433,2.5729,2.5286,2.5061,2.4821,2.435,2.4292,2.4247,2.4112,2.4008,2.3819,2.3569,2.315,2.2665,2.2185,2.1886,2.1561,2.1233,2.1221,2.1221,2.1221,2.1221,2.1221,2.1221,2.1158,2.1158,2.1158,2.1001,2.1187,2.1597,2.1497,2.1586,2.1798,2.1664,2.167,2.1731,2.1272,2.1041,2.0789,2.0664,2.1113,2.1763,2.1534,2.2148,2.2969,2.2794,2.3067,2.3416,2.3416,2.358,2.3841,2.411,2.4206,2.4206,2.4454,2.4763,2.5295,2.573,2.6185,2.6651,2.7117,2.7241,2.7262,2.7262,2.7262,2.7262,2.7262,2.7262,2.7262,2.7262,2.7262,2.7262,2.7262,2.7262,2.7262,2.7262,2.7624,2.7796,2.7523,2.7622,2.7683,2.7369,2.7104,2.7031,2.6929,2.7412,2.7702,2.7614,2.7824,2.7892,2.7891,2.6989,2.5981,2.5075,2.3929,2.3038,2.2507,2.1919,2.1484,2.7457,0.0,0.0,2.8596,2.8765,2.8765,2.8716,2.8716,2.859,2.8134,2.7905,2.7705,2.7473,2.6721,2.6096,2.5839,2.5397,2.5005,2.4664,2.4421,2.4247,2.4112,2.4067,2.3949,2.3819,2.3463,2.303,2.2482,2.2049,2.1675,2.1336,2.1221,2.1221,2.1221,2.1221,2.1221,2.1221,2.1221,2.1221,2.1221,2.1094,2.1186,2.1369,2.1316,2.1393,2.1677,2.1951,2.2012,2.1903,2.1834,2.1731,2.1634,2.1415,2.1964,2.2686,2.2421,2.2992,2.3754,2.3493,2.3677,2.3937,2.3937,2.411,2.4282,2.4368,2.4368,2.4368,2.4454,2.4871,2.5326,2.5771,2.6227,2.6693,2.7148,2.7262,2.7262,2.7262,2.7262,2.7262,2.7262,2.7262,2.7262,2.7262,2.7262,2.7262,2.7262,2.7262,2.7262,2.7262,2.7645,2.7837,2.7554,2.7915,2.8144,2.7835,2.778,2.7832,2.7832,2.7978,2.8047,2.8114,2.8164,2.8165,2.8194,2.7716,2.6943,2.5771,2.4804,2.3904,2.3199,2.2546,2.201,2.7026,2.7396,2.7565,2.8242,2.8411,2.8411,2.8411,2.8411,2.8348,2.8299,2.8103,2.7905,2.7725,2.7049,2.6472,2.6218,2.5729,2.523,2.4835,2.4593,2.4319,2.4112,2.4112,2.4067,2.3891,2.3582,2.321,2.2714,2.2297,0.0,2.1526,2.1336,2.1221,2.1221,2.1221,2.1221,2.1221,2.1221,2.1221,2.1221,2.1221,2.1221,2.1221,2.1221,2.1277,2.137,2.2105,2.2324,2.2241,2.236,2.2402,2.2402,2.2111,2.26,2.3346,2.3174,2.367,2.4444,2.4272,2.4186,2.4282,2.4282,2.4368,2.454,2.454,2.454,2.454,2.454,2.4974,2.5513,2.5802,2.6341,2.6879,2.7189,2.7262,2.7262,2.7262,2.7262,2.7262,2.7262,2.7262,2.7262,2.7262,2.7262,2.7262,2.7262,2.7262,2.7262,2.7262,2.7693,2.7867,2.7679,2.8176,2.8396,2.8081,2.8231,2.8291,2.8291,2.8291,2.8291,2.8291,2.8291,2.8291,2.8291,2.8028,2.7492,2.6663,2.5762,2.4753,2.376,2.3183,2.2554,0.0,0.0,0.0,2.8242,2.8411,2.8411,2.8411,2.8411,2.8411,2.8411,2.8201,2.7955,2.784,2.735,2.6832,2.6404,2.5974,2.5508,2.4892,2.4677,2.4505,2.4112,2.4112,2.4067,2.3891,2.3582,2.3283,2.2909,2.2494,2.2049,2.1714,2.1514,2.1336,2.1221,2.1221,2.1221,2.1221,2.1221,2.1221,2.1221,2.1221,2.1221,2.1221,2.1221,2.1094,2.0948,2.1958,2.2533,2.2816,2.2941,2.3001,2.3001,2.2553,2.2988,2.3828,2.3817,2.4249,2.4946,2.4861,2.47,2.454,2.454,2.454,2.454,2.454,2.454,2.454,2.454,2.5181,2.5885,2.5906,2.6589,2.7262,2.7262,2.7262,2.7262,2.7262,2.7262,2.7262,2.7262,2.7262,2.7262,2.7262,2.7262,2.7262,2.7262,2.7262,2.7262,2.7262,2.7774,2.8127,2.7814,2.8306,2.8621,2.8291,2.8291,2.8291,2.8291,2.8291,2.8291,2.8291,2.8291,2.8291,2.8291,2.8067,2.796,2.7853,2.6717,2.5498,2.4394,2.3743,2.2998,2.7026,0.0,0.0,0.0,0.0,0.0,2.8411,2.8411,2.8348,2.8299,2.8201,2.8039,2.774,2.7386,2.6959,2.6404,2.5974,2.5508,2.4892,2.4677,2.4505,2.4112,2.4112,2.4112,2.4067,2.3891,2.3641,0.0,2.2909,2.2555,2.2049,2.1651,2.1336,2.1221,2.1221,2.1221,2.1221,2.1221,2.1221,2.1221,2.1221,2.1221,2.1221,2.1221,2.1158,2.1152,2.217,2.2685,2.2742,2.3245,2.3372,2.3224,2.3075,2.3536,2.4317,2.4068,2.4577,2.5391,2.5031,2.4861,2.4786,2.454,2.454,2.454,2.454,2.454,2.454,2.454,2.5181,2.6041,2.6703,2.7065,2.7262,2.7262,2.7262,2.7262,2.7262,2.7262,2.7262,2.7262,2.7262,2.7262,2.7262,2.7262,2.7262,2.7262,2.7262,2.7262,2.7081,2.7676,2.8026,2.7602,2.8202,2.8621,2.8291,2.8291,2.8291,2.8291,2.8291,2.8291,2.8291,2.8291,2.8291,2.8291,2.8184,2.8067,2.7853,2.6971,2.6182,2.5608,2.4326,2.3328,2.7103,2.7396,2.7565,2.8242,0.0,0.0,2.8411,2.8348,2.8299,2.8235,2.8088,2.7825,2.7473,2.7167,2.6736,2.6136,2.5784,2.5411,2.4905,2.4677,2.4505,2.4112,2.4112,2.4112,2.4112,2.4008,2.3832,2.3641,2.321,2.2726,2.2259,2.1788,2.1526,2.1273,2.1273,2.1285,2.1221,2.1221,2.1221,2.1221,2.1221,2.1221,2.1221,2.1221,2.1221,2.1279,2.2237,2.2685,2.2754,2.3561,2.3751,2.3519,2.3372,2.383,2.4533,2.4317,2.4832,2.5559,2.5295,2.5041,2.4861,2.47,2.4625,2.454,2.454,2.454,2.454,2.454,2.5181,2.6092,2.7024,2.7262,2.7262,2.7262,2.7262,2.7262,2.7262,2.7262,2.7262,2.7262,2.7262,2.7262,2.7262,2.7262,2.7262,2.7262,2.7262,2.7262,2.7081,2.7513,2.7713,2.7582,2.8034,2.8318,2.8281,2.8291,2.8291,2.8291,2.8291,2.8291,2.8291,2.8291,2.8291,2.8291,2.8291,2.8184,2.7853,2.7413,2.6754,2.6082,2.5,2.4008,2.7272,2.7456,2.761,2.8209,2.8363,0.0,2.8363,2.825,2.8186,2.8137,2.7825,2.7524,2.7233,2.6788,2.6297,2.5784,2.5592,2.5327,2.4848,2.4677,2.4505,2.4112,2.4112,2.4112,2.4112,2.4008,2.3891,2.3891,2.345,2.2896,2.2309,2.2123,2.1788,2.1463,2.1463,2.14,2.1233,2.1221,2.1221,2.1221,2.1221,2.1221,2.1221,2.1221,2.1221,2.1279,2.2237,2.2685,2.2754,2.3775,2.4043,2.3897,2.3519,2.3884,2.4657,2.4544,2.5006,2.5644,2.5644,2.5306,2.4946,2.4946,2.47,2.454,2.454,2.454,2.456,2.4664,2.5264,2.6092,2.7024,2.7262,2.7262,2.7262,2.7262,2.7262,2.7262,2.7262,2.7262,2.7262,2.7262,2.7262,2.7262,2.7262,2.7262,2.7262,2.7262,2.7262,2.7262,2.7161,2.7321,2.7663,2.7712,2.7832,2.8262,2.8291,2.8291,2.8291,2.8291,2.8291,2.8291,2.8291,2.8291,2.8291,2.8291,2.8184,2.796,2.796,2.7314,2.6236,2.567,2.5128,2.7674,2.7871,2.7902,2.8039,2.8069,0.0,2.8069,2.8054,2.8005,2.7775,2.7675,2.7473,2.6989,2.6698,2.6297,2.5784,2.5592,2.5327,2.4734,2.462,2.4505,2.4112,2.4112,2.4112,2.4112,2.4054,2.4008,2.3891,2.3582,2.315,2.2787,2.2592,2.2285,2.18,2.18,2.1737,2.1635,2.1411,2.1336,2.1336,2.1221,2.1221,2.1221,2.1221,2.1221,2.1279,2.2237,2.2685,2.2754,2.3775,2.4043,2.3897,2.3824,2.4186,2.4725,2.4657,2.5135,2.5812,2.5644,2.538,2.5115,2.4946,2.47,2.454,2.454,2.454,2.4695,2.5409,2.574,2.6092,2.7024,2.7262,2.7262,2.7262,2.7262,2.7262,2.7262,2.7262,2.7262,2.7262,2.7262,2.7262,2.7262,2.7262,2.7262,2.7262,2.7262,2.7262,2.6996,2.7073,2.7212,2.7451,2.7599,2.7832,2.8262,2.8291,2.8291,2.8291,2.8291,2.8291,2.8291,2.8291,2.8291,2.8291,2.8291,2.8291,2.8184,2.796,2.753,2.6772,2.6654,2.6227,2.7615,2.7755,2.779,2.779,2.779,0.0,0.0,2.7755,2.7655,2.7423,2.7269,2.7063,2.6645,2.6365,2.6042,2.5688,2.5481,2.5188,2.4677,2.462,2.4505,2.4112,2.4374,2.4426,2.4151,2.4374,2.4367,2.3916,2.376,2.3522,2.3163,2.3017,2.2775,2.2285,2.2223,2.2173,2.1949,2.1737,2.1663,2.1663,2.14,2.1273,2.1273,2.1221,2.1221,2.1279,2.2237,2.2685,2.2754,2.3775,2.4116,2.4043,2.397,2.4202,2.4647,2.4726,2.5132,2.5733,2.5735,2.5549,2.52,2.5115,2.4786,2.454,2.454,2.454,2.4685,2.5368,2.5709,2.6041,2.6734,2.7086,2.7262,2.7262,2.7262,2.7262,2.7262,2.7262,2.7262,2.7262,2.7262,2.7262,2.7262,2.7262,2.7262,2.7262,2.7262,2.7262,2.7081,2.6881,2.6981,2.7532,2.7402,2.7598,2.8242,2.8291,2.8291,2.8291,2.8291,2.8291,2.8291,2.8291,2.8291,2.8291,2.8291,2.8291,2.8291,2.8184,2.7853,2.7422,2.7314,2.6881,2.7181,2.7269,2.7357,2.7357,2.7357,2.7357,0.0,0.0,0.0,2.7026,2.6817,2.6553,2.6244,2.5988,2.5729,2.5425,2.5244,0.0,0.0,2.4549,0.0,2.4112,2.4517,2.4622,2.4164,2.4635,2.4726,2.3988,2.4053,2.3948,2.3535,2.3522,2.3271,2.2775,2.2763,2.2592,2.2309,2.2123,2.2049,2.1987,2.1663,2.1463,2.1451,2.1285,2.1221,2.1279,2.2237,2.2685,2.2754,2.3775,2.42,2.4189,2.4043,2.4203,2.4638,2.4715,2.5057,2.5566,2.5815,2.5644,2.5285,2.52,2.4871,2.454,2.454,2.454,2.4633,2.5099,2.5544,2.5989,2.6455,2.691,2.7262,2.7262,2.7262,2.7262,2.7262,2.7262,2.7262,2.7262,2.7262,2.7262,2.7262,2.7262,2.7262,2.7262,2.7262,2.7262,2.7262,2.688,2.6808,2.7603,2.7189,2.7246,2.8096,2.8174,2.8203,2.8291,2.8291,2.8291,2.8291,2.8291,2.8291,2.8291,2.8291,2.8291,2.8291,2.8291,2.8184,2.796,2.7755,2.7431,2.6351,2.6457,2.6443,2.6443,2.6443,2.6443,2.6443,0.0,2.6404,2.6272,0.0,2.6111,2.5839,0.0,0.0,2.5118,2.4962,0.0,2.435,2.435,2.4247,2.4112,2.4178,2.4191,2.4125,2.4635,2.4726,2.4106,2.4583,2.4588,2.3857,2.3832,2.3713,2.3343,2.3343,2.315,2.2787,2.2592,2.2469,2.2359,2.1987,2.1788,2.1651,2.1463,2.1336,2.1279,2.2237,2.2685,2.2754,2.3775,2.42,2.42,2.42,2.4363,2.4638,2.487,2.5216,2.5566,2.5815,2.5728,2.5559,2.5285,2.4871,2.454,2.454,2.454,2.4633,2.5099,2.5544,2.5989,2.6455,2.691,2.7262,2.7262,2.7262,2.7262,2.7262,2.7262,2.7262,2.7262,2.7262,2.7262,2.7262,2.7262,2.7262,2.7262,2.7262,2.7262,2.7262,2.688,2.6677,2.717,2.6744,2.6807,2.7666,2.7734,2.7891,2.8271,2.8291,2.8291,2.8291,2.8291,2.8291,2.8291,2.8291,2.8291,2.8291,2.8291,2.8291,2.8291,2.8184,2.8077,2.5356,2.5453,2.5563,2.5563,2.5563,2.5563,2.5563,2.5563,2.5522,2.53,0.0,0.0,0.0,0.0,0.0,0.0,2.4478,2.4319,0.0,0.0,2.4157,2.4112,0.0,0.0,2.4609,2.4517,2.4374,2.4138,2.4648,2.4857,2.4562,2.4814,2.4922,2.4677,2.4343,2.4042,2.3799,2.3301,2.2969,2.2775,2.2469,2.2235,2.1987,2.1726,2.1463,2.1394,2.2304,2.2685,2.2754,2.3775,2.42,2.42,2.42,2.4253,2.438,2.4846,2.5105,2.5247,2.5716,2.5738,2.5559,2.5126,2.4861,2.47,2.454,2.454,2.4581,2.4778,2.5337,2.5927,2.6113,2.6713,2.7262,2.7262,2.7262,2.7262,2.7262,2.7262,2.7262,2.7262,2.7262,2.7262,2.7262,2.7262,2.7262,2.7262,2.7262,2.7262,2.7262,2.688,2.6657,2.71,2.6675,2.6631,2.7236,2.7285,2.7363,2.7539,2.7793,2.8037,2.8281,2.8291,2.8291,2.8291,2.8291,2.8291,2.8291,2.8291,2.8291,2.8291,2.8291,2.8291,2.4266,2.4381,2.4483,2.4483,2.4483,2.4483,2.4483,2.4483,2.4483,2.4323,2.4381,0.0,0.0,0.0,2.4073,2.4073,0.0,2.378,2.3688,2.3819,2.3936,0.0,0.0,0.0,0.0,2.4504,2.4347,2.4347,0.0,2.5197,2.5197,2.5602,2.5762,2.5636,2.5221,2.4861,2.4584,2.4004,2.3603,2.3258,2.2957,2.2665,2.2371,2.2037,2.1796,2.1719,2.2417,2.2822,2.2949,2.3833,2.42,2.42,2.42,2.42,2.4242,2.4767,2.4971,2.5116,2.5722,2.5738,2.5559,2.5126,2.4946,2.4861,2.4625,2.454,2.454,2.454,2.5181,2.5875,2.5875,2.6568,2.7262,2.7262,2.7262,2.7262,2.7262,2.7262,2.7262,2.7262,2.7262,2.7262,2.7262,2.7262,2.7262,2.7262,2.7262,2.7262,2.7262,2.688,2.6617,2.6929,2.6498,2.6387,2.6807,2.6846,2.6894,2.7012,2.7422,2.7803,2.8105,2.8232,2.8291,2.8291,2.8291,2.8291,2.8291,2.8291,2.8291,2.8291,2.8291,2.8291,0.0,0.0,0.0,2.3148,0.0,2.3148,2.3148,2.3255,2.3361,2.3374,2.3505,2.3636,2.3636,2.3497,2.3463,2.3463,2.3258,0.0,0.0,2.3271,2.3522,2.3891,0.0,0.0,0.0,2.4622,2.4996,0.0,2.5471,0.0,2.5798,2.5811,2.5824,2.5762,2.5735,2.54,2.4693,2.4667,2.4275,2.3556,2.345,2.321,2.2848,2.2543,2.2375,2.2374,2.2768,2.3086,2.3395,2.3982,2.42,2.42,2.42,2.42,2.4242,2.4767,2.4971,2.5116,2.5722,2.5738,2.5559,2.5285,2.5031,2.4861,2.4625,2.454,2.454,2.454,2.5181,2.5875,2.5875,2.6568,2.7262,2.7262,2.7262,2.7262,2.7262,2.7262,2.7262,2.7262,2.7262,2.7262,2.7262,2.7262,2.7262,2.7262,2.7262,2.7262,2.7262,2.688,2.6506,2.6516,2.6043,2.5937,2.6367,2.6406,2.6582,2.6992,2.7422,2.7676,2.7685,2.8076,2.8291,2.8291,2.8291,2.8291,2.8291,2.8291,2.8291,2.8291,2.8291,2.8291,0.0,0.0,2.0976,2.1266,0.0,0.0,0.0,0.0,2.22,2.2177,2.2226,2.2311,2.2445,2.247,2.2433,2.2604,2.2555,2.2482,0.0,2.2726,2.3017,2.3522,2.3819,2.4008,0.0,0.0,0.0,0.0,2.585,0.0,0.0,2.6752,2.6961,2.6961,2.6582,2.6295,2.6022,2.5279,2.4736,2.4348,2.3927,2.3595,2.321,2.2909,2.2824,2.2927,2.3046,2.3292,2.3595,2.4054,2.42,2.42,2.42,2.42,2.4315,2.502,2.5228,2.5374,2.5886,2.599,2.5728,2.5559,2.5295,2.5031,2.4861,2.4615,2.454,2.454,2.5181,2.5875,2.5875,2.6568,2.7262,2.7262,2.7262,2.7262,2.7262,2.7262,2.7262,2.7262,2.7262,2.7262,2.7262,2.7262,2.7262,2.7262,2.7262,2.7262,2.7262,2.688,2.6496,2.6496,2.6024,2.5791,2.5947,2.5957,2.6143,2.6572,2.7002,2.7363,2.7656,2.8066,2.8291,2.8291,2.8291,2.8291,2.8291,2.8291,2.8291,2.8291,2.8291,2.8291,1.9221,1.9113,0.0,1.9532,1.9698,0.0,2.0387,0.0,2.0837,0.0,2.1123,2.126,2.1495,2.1506,2.1592,2.1803,2.1815,2.1901,0.0,2.2173,2.2457,2.3017,2.345,2.3819,2.4008,2.4562,2.4979,2.5249,2.6138,0.0,0.0,0.0,2.7523,2.7523,2.717,2.6883,2.6674,2.5746,2.5097,2.4814,2.4209,2.3819,2.3582,2.3223,2.3245,2.3514,2.3316,2.3534,2.4002,2.4123,2.42,2.42,2.42,2.42,2.4326,2.5097,2.5543,2.5699,2.6102,2.6074,2.5895,2.5654,2.538,2.52,2.4946,2.47,2.4571,2.4736,2.5316,2.5916,2.6082,2.6693,2.7262,2.7262,2.7262,2.7262,2.7262,2.7262,2.7262,2.7262,2.7262,2.7262,2.7262,2.7262,2.7262,2.7262,2.7262,2.7262,2.7262,2.688,2.6496,2.6496,2.6024,2.5742,2.5742,2.5742,2.5859,2.6143,2.6699,2.7139,2.7422,2.7988,2.8291,2.8291,2.8291,2.8291,2.8291,2.8291,2.8291,2.8291,2.8291,2.8291]},{"header":{"parameterUnit":"m.s-1","parameterCategory":1,"la1":30.6,"la2":29.2853,"lo1":-89.7004,"lo2":-87.6739,"dy":0.0162,"dx":0.0183,"nx":112,"ny":82,"refTime":"2024-08-17T00:00:00:Z","depth":0,"parameterNumber":3,"parameterNumberName":"V-component_of_WINDS"},"data":[0.0,0.0,0.0,0.0,0.0,0.0,0.0,0.0,0.0,0.0,0.0,0.0,0.0,0.0,0.0,0.0,0.0,0.0,0.0,0.0,0.0,0.0,0.0,0.0,0.0,0.0,0.0,0.0,0.0,0.0,0.0,0.0,0.0,0.0,0.0,0.0,0.0,0.0,0.0,0.0,0.0,0.0,0.0,0.0,0.0,0.0,0.0,0.0,0.0,0.0,0.0,0.0,0.0,0.0,0.0,0.0,0.0,0.0,0.0,0.0,0.0,0.0,0.0,0.0,0.0,0.0,0.0,0.0,0.0,0.0,0.0,0.0,0.0,0.0,0.0,0.0,0.0,0.0,0.0,0.0,0.0,0.0,0.0,0.0,0.0,0.0,0.0,0.0,0.0,0.0,-2.6847,-2.8973,-3.0321,-3.1188,-3.142,-3.0763,-2.9687,-2.8316,0.0,0.0,0.0,0.0,0.0,0.0,0.0,0.0,0.0,0.0,0.0,0.0,0.0,0.0,0.0,0.0,0.0,0.0,0.0,0.0,0.0,0.0,0.0,0.0,0.0,0.0,0.0,0.0,0.0,0.0,0.0,0.0,0.0,0.0,0.0,0.0,0.0,0.0,0.0,0.0,0.0,0.0,0.0,0.0,0.0,0.0,0.0,0.0,0.0,0.0,0.0,0.0,0.0,0.0,0.0,0.0,0.0,0.0,0.0,0.0,0.0,0.0,0.0,0.0,0.0,0.0,0.0,0.0,0.0,0.0,0.0,0.0,0.0,0.0,0.0,0.0,0.0,0.0,0.0,0.0,0.0,0.0,0.0,0.0,0.0,0.0,0.0,0.0,0.0,0.0,0.0,0.0,0.0,0.0,0.0,0.0,0.0,0.0,0.0,0.0,0.0,0.0,0.0,0.0,-2.7584,-3.0404,-3.1554,-3.2046,-3.1671,-3.1047,-3.0013,-2.8555,0.0,0.0,0.0,0.0,0.0,0.0,0.0,0.0,0.0,0.0,0.0,0.0,0.0,0.0,0.0,0.0,0.0,0.0,0.0,0.0,0.0,0.0,0.0,0.0,0.0,0.0,0.0,0.0,0.0,0.0,0.0,0.0,0.0,0.0,0.0,0.0,0.0,0.0,0.0,0.0,0.0,0.0,0.0,0.0,0.0,0.0,0.0,0.0,0.0,0.0,0.0,0.0,0.0,0.0,0.0,0.0,0.0,0.0,0.0,0.0,0.0,0.0,0.0,0.0,0.0,0.0,0.0,0.0,0.0,0.0,0.0,0.0,0.0,0.0,0.0,0.0,0.0,0.0,0.0,0.0,0.0,0.0,0.0,0.0,0.0,0.0,0.0,0.0,0.0,0.0,0.0,0.0,0.0,0.0,0.0,0.0,0.0,0.0,0.0,0.0,0.0,0.0,0.0,-2.7815,-2.9284,-3.0947,-3.1615,-3.1767,-3.1319,-3.0891,-3.0051,-2.8601,-2.7547,0.0,0.0,0.0,0.0,0.0,0.0,0.0,0.0,0.0,0.0,0.0,0.0,0.0,0.0,0.0,0.0,0.0,0.0,0.0,0.0,0.0,0.0,0.0,0.0,0.0,0.0,0.0,0.0,0.0,0.0,0.0,0.0,0.0,0.0,0.0,0.0,0.0,0.0,0.0,0.0,0.0,0.0,0.0,0.0,0.0,0.0,0.0,0.0,0.0,0.0,0.0,0.0,0.0,0.0,0.0,0.0,0.0,0.0,0.0,0.0,0.0,0.0,0.0,0.0,0.0,0.0,0.0,0.0,0.0,0.0,0.0,0.0,0.0,0.0,0.0,0.0,0.0,0.0,0.0,0.0,0.0,0.0,0.0,0.0,0.0,0.0,0.0,0.0,0.0,0.0,0.0,0.0,0.0,0.0,0.0,0.0,0.0,0.0,0.0,0.0,0.0,0.0,-2.9272,-3.0558,-3.1155,-3.1384,-3.1324,-3.0875,-3.0585,-2.9872,-2.8538,-2.7429,0.0,0.0,0.0,0.0,0.0,0.0,0.0,0.0,0.0,0.0,0.0,0.0,0.0,0.0,0.0,0.0,0.0,0.0,0.0,0.0,0.0,0.0,0.0,0.0,0.0,0.0,0.0,0.0,0.0,0.0,0.0,0.0,0.0,0.0,0.0,0.0,0.0,0.0,0.0,0.0,0.0,0.0,0.0,0.0,0.0,0.0,0.0,0.0,0.0,0.0,0.0,0.0,0.0,0.0,0.0,0.0,0.0,0.0,0.0,0.0,0.0,0.0,0.0,0.0,0.0,0.0,0.0,0.0,0.0,0.0,0.0,0.0,0.0,0.0,0.0,0.0,0.0,0.0,0.0,0.0,0.0,0.0,0.0,0.0,0.0,0.0,0.0,0.0,0.0,0.0,0.0,0.0,0.0,0.0,0.0,0.0,0.0,0.0,0.0,0.0,0.0,0.0,-2.9574,-3.0567,-3.09,-3.1351,-3.1319,-3.0691,-3.0041,-2.9261,-2.836,-2.6915,0.0,0.0,0.0,0.0,0.0,0.0,0.0,0.0,0.0,0.0,0.0,0.0,0.0,0.0,0.0,0.0,0.0,0.0,0.0,0.0,0.0,0.0,0.0,0.0,0.0,0.0,0.0,0.0,0.0,0.0,0.0,0.0,0.0,0.0,0.0,0.0,0.0,0.0,0.0,0.0,0.0,0.0,0.0,0.0,0.0,0.0,0.0,0.0,0.0,0.0,0.0,0.0,0.0,0.0,0.0,0.0,0.0,0.0,0.0,0.0,0.0,0.0,0.0,0.0,0.0,0.0,0.0,0.0,0.0,0.0,0.0,0.0,0.0,0.0,0.0,0.0,0.0,0.0,0.0,0.0,0.0,0.0,0.0,0.0,0.0,0.0,0.0,0.0,0.0,0.0,0.0,0.0,0.0,0.0,0.0,0.0,0.0,0.0,0.0,0.0,0.0,0.0,-2.9312,-3.0312,-3.0803,-3.113,-3.1118,-3.0557,-3.0193,-2.9453,-2.8263,0.0,0.0,0.0,0.0,0.0,0.0,0.0,0.0,0.0,0.0,0.0,0.0,0.0,0.0,0.0,0.0,0.0,0.0,0.0,0.0,0.0,0.0,0.0,0.0,0.0,0.0,0.0,0.0,0.0,0.0,0.0,0.0,0.0,0.0,0.0,0.0,0.0,0.0,0.0,0.0,0.0,0.0,0.0,0.0,0.0,0.0,0.0,0.0,0.0,0.0,0.0,0.0,0.0,0.0,0.0,0.0,0.0,0.0,0.0,0.0,0.0,0.0,0.0,0.0,0.0,0.0,0.0,0.0,0.0,0.0,0.0,0.0,0.0,0.0,0.0,0.0,0.0,0.0,0.0,0.0,0.0,0.0,0.0,0.0,0.0,0.0,0.0,0.0,0.0,0.0,0.0,0.0,0.0,0.0,0.0,0.0,0.0,0.0,0.0,0.0,0.0,0.0,-2.8015,-2.9184,-2.9992,-3.0514,-3.0793,-3.0719,-3.0179,-3.0005,-2.9402,-2.7989,0.0,0.0,0.0,0.0,0.0,0.0,0.0,0.0,0.0,0.0,0.0,0.0,0.0,0.0,0.0,0.0,0.0,0.0,0.0,0.0,0.0,0.0,0.0,0.0,0.0,0.0,0.0,0.0,0.0,0.0,0.0,0.0,0.0,0.0,0.0,0.0,0.0,0.0,0.0,0.0,0.0,0.0,0.0,0.0,0.0,0.0,0.0,0.0,0.0,0.0,0.0,0.0,0.0,0.0,0.0,0.0,0.0,0.0,0.0,0.0,0.0,0.0,0.0,0.0,0.0,0.0,0.0,0.0,0.0,0.0,0.0,0.0,0.0,0.0,0.0,0.0,0.0,0.0,0.0,0.0,0.0,0.0,0.0,0.0,0.0,0.0,0.0,0.0,0.0,0.0,0.0,0.0,0.0,0.0,0.0,0.0,0.0,0.0,0.0,0.0,0.0,0.0,-2.8278,-2.9164,-2.9728,-3.0053,-3.0275,-3.0147,-2.9537,-2.9518,-2.891,0.0,0.0,0.0,0.0,0.0,0.0,0.0,0.0,0.0,0.0,0.0,0.0,0.0,0.0,0.0,0.0,0.0,0.0,0.0,0.0,0.0,0.0,0.0,0.0,0.0,0.0,0.0,0.0,0.0,0.0,0.0,0.0,0.0,0.0,0.0,0.0,0.0,0.0,0.0,0.0,0.0,0.0,0.0,0.0,0.0,0.0,0.0,0.0,0.0,0.0,0.0,0.0,0.0,0.0,0.0,0.0,0.0,0.0,0.0,0.0,0.0,0.0,0.0,0.0,0.0,0.0,0.0,0.0,0.0,0.0,0.0,0.0,0.0,0.0,0.0,0.0,0.0,0.0,0.0,0.0,0.0,0.0,0.0,0.0,0.0,0.0,0.0,0.0,0.0,0.0,0.0,0.0,0.0,0.0,0.0,0.0,0.0,0.0,0.0,0.0,0.0,0.0,0.0,-2.7821,-2.8627,-2.9092,-2.9515,-2.979,-2.9919,-2.971,-2.9798,-2.9243,-2.7843,0.0,0.0,0.0,0.0,0.0,0.0,0.0,0.0,0.0,0.0,0.0,0.0,0.0,0.0,0.0,0.0,0.0,0.0,0.0,0.0,0.0,0.0,0.0,0.0,0.0,0.0,0.0,0.0,0.0,0.0,0.0,0.0,0.0,0.0,0.0,0.0,0.0,0.0,0.0,0.0,0.0,0.0,0.0,0.0,0.0,0.0,0.0,0.0,0.0,0.0,0.0,0.0,0.0,0.0,0.0,0.0,0.0,0.0,0.0,0.0,0.0,0.0,0.0,0.0,0.0,0.0,0.0,0.0,0.0,0.0,0.0,0.0,0.0,0.0,0.0,0.0,0.0,0.0,0.0,0.0,0.0,0.0,0.0,0.0,0.0,0.0,0.0,0.0,0.0,0.0,0.0,0.0,0.0,0.0,0.0,0.0,0.0,0.0,0.0,0.0,0.0,0.0,-2.7762,-2.8479,-2.8967,-2.9396,-2.9694,-2.9897,-3.0027,-3.013,-2.9608,-2.8148,0.0,0.0,0.0,0.0,0.0,0.0,0.0,0.0,0.0,0.0,0.0,0.0,0.0,0.0,0.0,0.0,0.0,0.0,0.0,0.0,0.0,0.0,0.0,0.0,0.0,0.0,0.0,0.0,0.0,0.0,0.0,0.0,0.0,0.0,0.0,0.0,0.0,0.0,0.0,0.0,0.0,0.0,0.0,0.0,0.0,0.0,0.0,0.0,0.0,0.0,0.0,0.0,0.0,0.0,0.0,0.0,0.0,0.0,0.0,0.0,0.0,0.0,0.0,0.0,0.0,0.0,0.0,0.0,0.0,0.0,0.0,0.0,0.0,0.0,0.0,0.0,0.0,0.0,0.0,0.0,0.0,0.0,0.0,0.0,0.0,0.0,0.0,0.0,0.0,0.0,0.0,0.0,0.0,0.0,0.0,0.0,0.0,0.0,0.0,0.0,0.0,0.0,-2.8003,-2.8637,-2.9152,-2.9681,-2.9902,-3.0146,-3.0401,-3.0526,-2.9954,-2.8544,0.0,0.0,0.0,0.0,0.0,0.0,0.0,0.0,0.0,0.0,0.0,0.0,0.0,0.0,0.0,0.0,0.0,0.0,0.0,0.0,0.0,0.0,0.0,0.0,0.0,0.0,0.0,0.0,0.0,0.0,0.0,0.0,0.0,0.0,0.0,0.0,0.0,0.0,0.0,0.0,0.0,0.0,0.0,0.0,0.0,0.0,0.0,0.0,0.0,0.0,0.0,0.0,0.0,0.0,0.0,0.0,0.0,0.0,0.0,0.0,-2.3823,0.0,0.0,0.0,0.0,0.0,0.0,0.0,0.0,0.0,0.0,0.0,0.0,0.0,0.0,0.0,0.0,0.0,0.0,0.0,0.0,0.0,0.0,0.0,0.0,0.0,0.0,0.0,0.0,0.0,0.0,0.0,0.0,0.0,0.0,0.0,0.0,0.0,0.0,0.0,0.0,0.0,-2.8275,-2.8997,-2.9515,-2.9886,-3.0231,-3.0468,-3.0683,-3.0838,-3.0549,-2.9758,-2.9707,0.0,0.0,0.0,0.0,0.0,0.0,0.0,0.0,0.0,0.0,0.0,0.0,0.0,0.0,0.0,0.0,0.0,0.0,0.0,0.0,0.0,0.0,0.0,0.0,0.0,0.0,0.0,0.0,0.0,0.0,0.0,0.0,0.0,0.0,0.0,0.0,0.0,0.0,0.0,0.0,0.0,0.0,0.0,0.0,0.0,0.0,0.0,0.0,0.0,0.0,0.0,0.0,0.0,0.0,0.0,0.0,0.0,0.0,0.0,0.0,-2.5308,0.0,0.0,0.0,0.0,0.0,0.0,0.0,0.0,0.0,0.0,0.0,0.0,0.0,0.0,0.0,0.0,0.0,0.0,0.0,0.0,0.0,0.0,0.0,0.0,0.0,0.0,0.0,0.0,0.0,0.0,0.0,0.0,0.0,0.0,0.0,0.0,0.0,0.0,0.0,0.0,-2.8654,-2.9319,-2.9826,-3.0189,-3.0526,-3.0838,-3.1004,-3.1179,-3.0989,-3.0316,-3.0372,0.0,0.0,0.0,0.0,0.0,0.0,0.0,0.0,0.0,0.0,0.0,0.0,0.0,0.0,0.0,0.0,0.0,0.0,0.0,0.0,0.0,0.0,0.0,0.0,0.0,0.0,0.0,0.0,0.0,0.0,0.0,0.0,0.0,0.0,0.0,0.0,0.0,0.0,0.0,0.0,0.0,0.0,0.0,0.0,0.0,0.0,0.0,0.0,0.0,0.0,0.0,0.0,0.0,-2.972,-2.9993,-3.0258,-3.0489,-3.0706,-3.0815,-2.9883,-2.8596,-2.7208,-2.6808,0.0,0.0,0.0,0.0,0.0,0.0,0.0,0.0,0.0,0.0,0.0,0.0,0.0,0.0,0.0,0.0,0.0,0.0,0.0,0.0,0.0,0.0,0.0,0.0,-2.9599,-2.9489,-2.8426,0.0,0.0,0.0,0.0,0.0,0.0,0.0,0.0,0.0,0.0,0.0,-2.9087,-2.9617,-3.007,-3.0551,-3.0895,-3.1157,-3.1389,-3.1542,-3.1379,-3.0833,-3.0887,-3.0611,0.0,0.0,0.0,0.0,0.0,0.0,0.0,0.0,0.0,0.0,0.0,0.0,0.0,0.0,0.0,0.0,0.0,0.0,0.0,0.0,0.0,0.0,0.0,0.0,0.0,0.0,0.0,0.0,0.0,0.0,0.0,0.0,-2.0184,-2.1002,0.0,0.0,0.0,0.0,0.0,0.0,0.0,0.0,0.0,0.0,0.0,0.0,0.0,-2.8057,-2.8966,-2.9562,-2.9953,-3.0268,-3.0763,-3.136,-3.1974,-3.2244,-3.278,-3.339,-3.3272,0.0,-2.9718,-2.9426,0.0,0.0,0.0,0.0,0.0,0.0,0.0,0.0,0.0,0.0,0.0,0.0,0.0,0.0,0.0,0.0,0.0,0.0,0.0,0.0,0.0,0.0,-3.0989,-3.1748,-3.205,-3.209,0.0,-3.0531,-2.9342,-2.9342,-2.9298,0.0,0.0,0.0,0.0,0.0,0.0,0.0,-2.9661,-3.0011,-3.0393,-3.0895,-3.1117,-3.1389,-3.1709,-3.1802,-3.186,-3.1898,-3.1898,-3.1793,-3.1564,-3.0941,0.0,0.0,0.0,0.0,0.0,0.0,0.0,0.0,0.0,0.0,0.0,0.0,0.0,0.0,0.0,0.0,0.0,0.0,0.0,0.0,0.0,0.0,0.0,0.0,0.0,0.0,0.0,0.0,0.0,-2.0322,-2.1341,-2.1952,-2.2103,-2.2273,0.0,0.0,0.0,0.0,0.0,0.0,0.0,0.0,0.0,-2.851,-2.9071,-2.9938,-3.101,-3.127,-3.1766,-3.2466,-3.2734,-3.306,-3.3565,-3.3811,-3.4056,-3.4399,-3.4561,-3.4055,-3.3032,-3.1942,-3.1247,-3.0901,0.0,0.0,0.0,0.0,-3.0717,-3.0717,-3.0767,-3.0817,-3.0817,-3.0717,0.0,0.0,0.0,0.0,0.0,0.0,0.0,0.0,0.0,0.0,-3.2535,-3.3024,-3.3245,-3.3351,-3.3455,-3.2859,-3.2084,0.0,-3.0789,-3.0375,-2.9884,0.0,0.0,0.0,0.0,-2.9853,-3.0241,-3.0535,-3.0861,-3.1274,-3.1466,-3.1709,-3.1929,-3.2037,-3.2091,-3.2144,-3.2232,-3.2232,-3.2179,-3.1795,-3.1533,0.0,0.0,0.0,0.0,0.0,0.0,0.0,0.0,0.0,0.0,0.0,0.0,0.0,0.0,0.0,0.0,0.0,0.0,0.0,0.0,0.0,0.0,0.0,0.0,0.0,0.0,0.0,0.0,-2.149,-2.2527,-2.3167,-2.3554,-2.3992,0.0,0.0,0.0,0.0,0.0,0.0,-2.809,-2.9244,-3.0166,-3.0722,-3.0892,-3.1558,-3.2727,-3.2844,-3.3351,-3.4284,-3.4382,-3.4578,-3.4771,-3.4975,-3.5098,-3.5144,-3.5345,-3.5526,-3.552,-3.4046,-3.3174,-3.2747,-3.2637,-3.259,-3.259,-3.259,-3.259,-3.259,-3.259,-3.2606,-3.2559,-3.2559,-3.2223,-3.1855,-3.1662,0.0,0.0,0.0,0.0,-3.2798,-3.3045,-3.3448,-3.385,-3.4018,-3.4184,-3.4284,-3.4382,-3.448,-3.417,0.0,-3.2265,-3.19,-3.1806,0.0,0.0,0.0,0.0,-3.065,-3.0831,-3.1055,-3.1274,-3.1654,-3.1783,-3.1929,-3.2108,-3.2179,-3.2267,-3.2267,-3.2354,-3.2406,-3.2406,-3.2336,-3.2284,-3.2284,0.0,0.0,0.0,0.0,0.0,0.0,0.0,0.0,0.0,0.0,0.0,0.0,0.0,0.0,0.0,0.0,0.0,0.0,0.0,0.0,0.0,0.0,0.0,0.0,0.0,0.0,0.0,0.0,0.0,-2.4945,-2.5862,0.0,0.0,0.0,0.0,-2.8807,-2.9355,-2.9826,-3.0228,-3.0561,-3.1209,-3.2139,-3.244,-3.3026,-3.3986,-3.4399,-3.4642,-3.4785,-3.5131,-3.5407,-3.5526,-3.5677,-3.5854,-3.6054,-3.6054,-3.6156,-3.6199,-3.5565,-3.5335,-3.5408,-3.5408,-3.5408,-3.5408,-3.5408,-3.5408,-3.5408,-3.5408,-3.5318,-3.5165,-3.5073,-3.4422,-3.3557,-3.2857,-3.3094,0.0,0.0,-3.4157,-3.4671,-3.483,-3.4894,-3.4975,-3.5085,-3.5131,-3.5131,-3.5131,-3.5131,-3.4975,0.0,-3.4414,-3.42,-3.362,0.0,-3.3356,-3.1957,-3.1993,-3.1952,-3.1359,-3.1466,-3.1654,-3.1858,-3.1984,-3.2108,-3.2179,-3.2301,-3.2406,-3.2406,-3.2406,-3.2406,-3.2406,-3.2439,-3.2489,-3.2489,-3.2539,0.0,0.0,0.0,0.0,0.0,0.0,0.0,0.0,0.0,0.0,0.0,0.0,0.0,0.0,0.0,0.0,0.0,0.0,0.0,0.0,0.0,0.0,0.0,0.0,0.0,0.0,0.0,0.0,-2.6076,-2.6813,0.0,-2.8111,-2.8679,-2.9233,-2.9758,-3.0661,-3.1379,-3.1839,-3.2368,-3.2987,-3.3696,-3.3909,-3.4283,-3.4899,-3.5148,-3.5362,-3.5588,-3.5766,-3.5941,-3.6071,-3.6174,-3.6301,-3.6451,-3.6492,-3.6673,-3.6776,-3.6597,-3.635,-3.6174,-3.6174,-3.6174,-3.6174,-3.6174,-3.6131,-3.6028,-3.6028,-3.6028,-3.5985,-3.582,-3.5545,-3.5203,-3.4871,-3.4928,-3.5148,-3.5148,-3.5334,-3.5493,-3.5554,-3.5599,-3.5599,-3.5644,-3.5644,-3.5688,-3.5749,-3.5793,-3.5749,-3.5661,-3.5436,-3.5199,-3.511,-3.482,-3.4432,-3.393,-3.3168,-3.2586,-3.2466,-3.2076,-3.1875,-3.2055,-3.2144,-3.2232,-3.2319,-3.2354,-3.2406,-3.2406,-3.2457,-3.2473,-3.2473,-3.3051,-3.3333,-3.3333,-3.388,-3.4146,0.0,0.0,0.0,0.0,0.0,0.0,0.0,0.0,0.0,0.0,0.0,0.0,0.0,0.0,0.0,0.0,0.0,0.0,0.0,0.0,0.0,0.0,0.0,0.0,0.0,-2.5024,-2.6269,-2.7303,-2.8078,-2.8797,-2.9433,-3.0052,-3.0615,-3.1164,-3.2003,-3.2752,-3.3206,-3.3742,-3.425,-3.4739,-3.4913,-3.5165,-3.5549,-3.5467,-3.5548,-3.5753,-3.5621,-3.5607,-3.5729,-3.6145,-3.6387,-3.6449,-3.6847,-3.7069,-3.7223,-3.7261,-3.7108,-3.6873,-3.6811,-3.6788,-3.6788,-3.6788,-3.6731,-3.6632,-3.6591,-3.6574,-3.6533,-3.6451,-3.6409,-3.6409,-3.6308,-3.6266,-3.6266,-3.6224,-3.6224,-3.6182,-3.6199,-3.6156,-3.6156,-3.6156,-3.6156,-3.6199,-3.6301,-3.6301,-3.6343,-3.6444,-3.6156,-3.5941,-3.6097,-3.5761,-3.5432,-3.5197,-3.4357,-3.3748,-3.3601,-3.3152,-3.2911,-3.3036,-3.3036,-3.309,-3.3178,-3.2932,-3.2774,-3.2827,-3.2878,-3.2929,-3.2945,-3.3774,-3.425,-3.425,-3.4765,-3.5084,-3.5119,0.0,0.0,0.0,0.0,0.0,0.0,0.0,0.0,0.0,0.0,0.0,0.0,0.0,0.0,0.0,0.0,0.0,0.0,0.0,0.0,0.0,0.0,0.0,-2.4563,-2.6036,-2.7557,-2.8651,-2.9789,-3.0822,-3.148,-3.2048,-3.2633,-3.3096,-3.3503,-3.3899,-3.43,-3.4594,-3.4899,-3.5291,-3.5515,-3.5766,-3.5985,-3.5425,-3.5152,-3.5272,-3.4756,-3.4541,-3.4635,-3.5573,-3.6,-3.6128,-3.6984,-3.734,-3.7358,-3.7541,-3.7613,-3.7667,-3.7392,-3.7297,-3.7297,-3.7297,-3.7314,-3.7297,-3.7147,-3.7108,-3.7108,-3.7048,-3.7009,-3.7009,-3.7009,-3.7027,-3.6987,-3.6869,-3.6829,-3.6788,-3.6742,-3.6702,-3.6702,-3.6702,-3.6702,-3.6702,-3.6702,-3.6702,-3.6725,-3.6788,-3.6667,-3.6502,-3.6502,-3.6643,-3.6441,-3.5658,-3.5614,0.0,-3.4644,-3.4651,-3.4688,-3.4688,-3.4688,-3.4688,-3.4688,-3.3968,-3.3618,-3.3741,-3.3758,-3.3758,-3.3844,-3.4675,-3.5172,-3.5208,-3.5294,-3.5381,-3.5554,0.0,0.0,0.0,0.0,0.0,0.0,0.0,0.0,0.0,0.0,0.0,0.0,0.0,0.0,0.0,0.0,0.0,0.0,0.0,0.0,0.0,-2.5057,-2.6125,-2.6448,-2.7712,-2.8978,-2.9892,-3.0719,-3.1422,-3.1966,-3.2523,-3.3081,-3.3503,-3.3899,-3.4349,-3.4851,-3.5118,-3.5379,-3.58,-3.6002,-3.5899,-3.5514,-3.5526,-3.5262,-3.4725,-3.4721,-3.4726,-3.4763,-3.5047,-3.5297,-3.5473,-3.5739,-3.5984,-3.6222,-3.6898,-3.7214,-3.7301,-3.7488,-3.7595,-3.7559,-3.7558,-3.741,-3.7297,-3.7259,-3.7279,-3.7299,-3.7317,-3.7279,-3.7279,-3.7279,-3.7259,-3.722,-3.7182,-3.7182,-3.7143,-3.7143,-3.7161,-3.7161,-3.7161,-3.7161,-3.7105,-3.7009,-3.7009,-3.697,-3.693,-3.6908,-3.6851,-3.6851,-3.6908,-3.6838,-3.6611,-3.6103,0.0,-3.5475,-3.5021,-3.4688,-3.4688,-3.4688,-3.4688,-3.4688,-3.4533,-3.4446,-3.4499,-3.4641,-3.4712,-3.4746,-3.5598,-3.6613,-3.7828,-3.7882,-3.8259,0.0,0.0,0.0,0.0,0.0,0.0,0.0,0.0,0.0,0.0,0.0,0.0,0.0,0.0,0.0,0.0,0.0,0.0,0.0,0.0,0.0,0.0,-2.6144,-2.7384,-2.791,-2.8641,-2.945,-3.0338,-3.0708,-3.1222,-3.206,-3.2535,-3.3133,-3.3882,-3.4349,-3.4787,-3.5274,-3.556,-3.5718,-3.571,-3.5918,-3.5717,-3.4957,-3.4853,-3.4561,-3.4069,-3.3952,-3.3899,-3.3899,-3.434,-3.4638,-3.4825,-3.5262,-3.5551,-3.5779,-3.6437,-3.6742,0.0,0.0,0.0,0.0,0.0,-3.7685,-3.7577,-3.7577,-3.7613,-3.7667,-3.7685,-3.7685,-3.7685,-3.7667,-3.7631,-3.7577,-3.7447,-3.741,-3.741,-3.7334,-3.7297,-3.7297,-3.7297,-3.7297,-3.7297,-3.7203,-3.7147,-3.7108,-3.7048,-3.7009,0.0,-3.6987,-3.6987,-3.6987,-3.6987,-3.6584,-3.6303,-3.6303,-3.5917,-3.5653,-3.5653,-3.5653,-3.5674,-3.5711,-3.5449,0.0,0.0,0.0,-3.5936,-3.6631,-3.7148,0.0,0.0,0.0,0.0,0.0,0.0,0.0,0.0,-4.0455,-4.1339,0.0,0.0,0.0,0.0,0.0,0.0,0.0,0.0,0.0,0.0,0.0,0.0,0.0,0.0,0.0,0.0,-2.723,-2.8598,-2.9007,-2.906,-2.9389,-3.0257,-3.0258,-3.0612,-3.1789,-3.2225,-3.293,-3.4121,-3.4493,-3.4918,-3.5487,0.0,0.0,0.0,0.0,-3.5186,-3.4419,-3.3792,-3.3459,-3.3389,-3.2841,-3.2606,-3.2623,-3.3568,-3.3987,-3.4135,-3.5042,-3.5489,-3.5612,-3.6017,-3.6325,-3.6619,-3.7814,-3.8328,-3.8289,-3.8086,-3.8052,-3.8018,-3.8018,0.0,0.0,-3.8135,-3.8135,-3.8135,-3.8052,-3.8018,-3.7949,-3.7721,-3.7649,-3.7594,-3.741,-3.7372,-3.7372,-3.7334,-3.7334,-3.7334,-3.7334,-3.7203,-3.7147,-3.7108,-3.7087,-3.7009,-3.7009,-3.7027,-3.6987,-3.6987,-3.6987,-3.6987,-3.6987,-3.6987,-3.7009,-3.7009,0.0,0.0,-3.7108,-3.6547,-3.6233,-3.6416,-3.6523,-3.729,-3.8879,-3.9009,-3.9442,-4.0249,-4.038,-4.0581,-4.0835,-4.2262,-4.3023,-4.3192,-4.3113,-4.3588,0.0,0.0,0.0,0.0,0.0,0.0,0.0,0.0,0.0,0.0,0.0,0.0,0.0,0.0,0.0,-2.7057,-2.8526,-2.9608,-3.0033,-2.9973,-2.9955,-3.013,-3.0458,-3.0853,-3.1297,-3.1725,-3.2402,-3.3468,-3.3442,-3.3805,-3.4908,-3.4719,-3.4601,-3.4638,-3.4824,-3.4493,-3.3722,-3.3564,-3.3196,-3.2616,0.0,0.0,-3.2606,-3.298,-3.3212,-3.3337,-3.3683,-3.3975,-3.4266,-3.519,-3.643,-3.7742,-3.7679,-3.8004,-3.8446,-3.835,-3.8303,-3.8223,-3.8223,-3.8271,-3.8318,-3.8396,-3.8428,-3.8396,-3.835,-3.8219,0.0,-3.7949,-3.7863,-3.7828,-3.7793,-3.7793,-3.7757,-3.7649,-3.7631,-3.7577,-3.7429,-3.7354,-3.7317,-3.7259,-3.7259,-3.722,-3.722,-3.7105,-3.6987,-3.6987,-3.6987,-3.6987,-3.6987,-3.6987,-3.7009,-3.7069,-3.7069,-3.7126,-3.7259,-3.7193,-3.7124,-3.7198,-3.7951,-3.8831,-3.9797,-3.9946,-4.0435,-4.1302,-4.132,-4.2027,-4.3369,-4.3677,-4.4243,-4.4992,-4.4992,-4.5085,0.0,0.0,0.0,0.0,0.0,0.0,0.0,0.0,0.0,0.0,0.0,-2.3338,-2.3933,0.0,-2.6568,-2.8026,-2.9026,-2.9752,-3.0177,-3.0029,-2.9924,-2.9924,-2.9931,-3.021,-3.0815,-3.1181,-3.1846,-3.3057,-3.3117,-3.3499,-3.4455,-3.4367,-3.4196,-3.3999,-3.4055,-3.3722,-3.295,-3.295,-3.295,-3.295,-3.3122,-3.3402,-3.3792,-3.3977,-3.4142,-3.4321,-3.454,-3.4543,-3.4449,-3.521,-3.6279,-3.7466,-3.7673,-3.8182,-3.8766,-3.8634,-3.859,-3.8546,-3.8546,-3.8559,-3.8621,-3.8664,-3.8695,-3.8683,-3.8621,-3.8496,-3.8368,-3.8252,-3.8138,-3.8088,-3.8002,-3.8002,-3.7967,-3.788,-3.7828,-3.7757,-3.7613,-3.7449,-3.7392,-3.7354,-3.7334,-3.7297,-3.7297,-3.7164,-3.7048,-3.7048,-3.7009,-3.7009,-3.7048,-3.7048,-3.7087,-3.7203,-3.7203,-3.7241,-3.7317,-3.7802,-3.8091,-3.8165,-3.9009,-3.989,-4.0717,-4.0885,-4.1339,-4.217,-4.2246,-4.2862,-4.4095,-4.459,-4.5285,-4.6184,-4.672,-4.6798,0.0,0.0,0.0,0.0,0.0,0.0,0.0,-2.2855,-2.3165,-2.3353,-2.3879,-2.4423,-2.4829,-2.616,-2.7611,-2.8606,-2.9351,-2.9885,-3.0151,-2.9948,-2.9715,-2.9623,-2.9313,-2.9482,-3.0348,-3.0626,-3.1324,-3.2657,-3.2798,-3.3165,-3.3934,-3.4106,-3.3995,-3.3493,-3.3652,-3.3441,-3.2845,-3.2845,-3.3143,-3.3758,-3.39,-3.4358,-3.4995,-3.5136,-3.5289,-3.5493,-3.5797,-3.5659,-3.5285,-3.5625,-3.6279,-3.708,-3.7705,-3.8422,-3.9045,-3.8892,-3.8851,-3.8851,-3.8851,-3.8851,-3.8851,-3.8921,-3.895,-3.8921,-3.8881,-3.8792,-3.8689,-3.8528,-3.8401,-3.8354,-3.8252,-3.8219,-3.8168,-3.8086,-3.802,-3.7881,-3.7739,-3.7559,-3.7449,-3.7449,-3.7392,-3.7372,-3.7372,-3.7241,-3.7147,-3.7091,-3.7048,-3.7009,-3.7108,-3.7108,-3.7147,-3.7297,-3.7334,-3.7443,-3.7642,-3.8378,-3.899,-3.9333,-3.9998,-4.0791,-4.1659,-4.1809,-4.2154,-4.2804,-4.2862,-4.3409,-4.437,-4.5158,-4.6075,-4.7142,-4.8106,-4.8218,-2.248,-2.2101,-2.2047,-2.2631,-2.3272,-2.3702,0.0,-2.4436,-2.5094,-2.5094,-2.5507,-2.5849,-2.5903,-2.731,-2.865,-2.9098,-3.0068,-3.0684,-3.0577,-3.023,-2.98,-2.9404,-2.9307,-2.9457,-2.9835,-3.0131,-3.0787,-3.2018,-3.1839,-3.2128,-3.3066,-3.338,-3.3491,-3.3494,-3.4179,-3.4512,-3.4424,-3.4424,-3.4477,-3.4565,-3.4639,-3.48,-3.4995,-3.5084,-3.5205,-3.5426,-3.5797,-3.6029,-3.6177,-3.6398,-3.7005,-3.7774,-3.7812,-3.8303,-3.9007,-3.8997,-3.8997,-3.8997,-3.8997,-3.8997,-3.8979,-3.9045,-3.9073,-3.9073,-3.9007,-3.8921,-3.8881,-3.8792,-3.8664,-3.8572,-3.8609,-3.8528,-3.8415,-3.8289,-3.8171,-3.8018,-3.7739,-3.7667,-3.7667,-3.7667,-3.7613,-3.7577,-3.7631,-3.7429,-3.7259,-3.7108,-3.7048,-3.7009,-3.7108,-3.7108,-3.7185,-3.7392,-3.7392,-3.7714,-3.8574,-3.8793,-3.9512,-4.0927,-4.1281,-4.1809,-4.2621,-4.2698,-4.281,-4.29,-4.29,-4.3719,-4.5358,-4.549,-4.6541,-4.8328,-4.8642,-4.8714,-2.3487,-2.377,-2.4054,-2.4557,-2.4873,-2.5053,-2.5053,-2.5465,-2.5825,-2.5825,-2.6056,-2.6286,-2.6447,-2.7544,-2.8523,-2.9004,-2.965,-3.0089,-3.0261,-2.9815,-2.9469,-2.9398,-2.9412,-2.9531,-2.9766,-3.013,-3.0617,-3.1348,-3.146,-3.1981,-3.304,-3.3295,-3.3668,-3.4179,-3.4512,-3.4688,-3.4688,-3.4688,-3.4916,-3.5337,-3.5467,-3.5733,-3.6231,-3.6379,-3.6577,-3.6858,-3.662,-3.6625,-3.6838,-3.6945,-3.7235,-3.7653,-3.8103,-3.846,-3.8785,-3.895,-3.8979,-3.9026,-3.9045,-3.9064,-3.9045,-3.9101,-3.9101,-3.9101,-3.9073,-3.9007,-3.895,-3.8921,-3.8833,-3.8773,-3.8822,-3.8773,-3.8713,-3.8564,-3.8401,-3.8201,-3.7966,-3.7845,-3.781,-3.781,-3.7775,-3.7775,-3.7703,-3.7577,-3.7429,-3.7299,-3.7147,-3.7087,-3.7203,-3.7223,-3.7354,-3.7503,-3.7987,-3.8435,-3.8811,-3.9783,-4.0684,-4.1425,-4.1988,-4.2461,-4.2862,-4.29,-4.2882,-4.2882,-4.2882,-4.3774,-4.5485,-4.5659,-4.669,-4.8569,-4.8785,-4.8717,-2.4169,-2.4882,-2.545,-2.5694,-2.5748,-2.5748,-2.5748,-2.5728,-2.5706,-2.5706,-2.594,-2.6242,-2.6518,-2.7474,-2.8375,-2.891,-2.93,-2.9599,-2.9939,-2.9486,-2.9183,-2.9473,-2.9694,-2.9897,-3.0162,-3.0303,-3.0651,-3.1261,-3.1674,-3.2345,-3.3482,-3.3892,-3.4333,-3.4986,-3.5214,-3.532,-3.532,-3.532,-3.5601,-3.6145,-3.6239,-3.6559,-3.7108,-3.7299,-3.754,-3.7792,-3.7354,-3.7268,-3.743,-3.7494,-3.7539,-3.7656,-3.8222,-3.846,-3.8491,-3.8725,-3.8892,-3.895,-3.9045,-3.9073,-3.9073,-3.9101,-3.9101,-3.9101,-3.9101,-3.9064,-3.9036,-3.9036,-3.9007,-3.895,-3.895,-3.8921,-3.8881,-3.875,-3.8578,-3.835,-3.8186,-3.8036,-3.7951,-3.7951,-3.7951,-3.7881,-3.7792,-3.7649,-3.754,-3.7429,-3.7438,-3.7471,-3.7352,-3.7392,-3.7592,-3.7898,-3.8526,-3.9065,-3.9512,-4.072,-4.1589,-4.1899,-4.2497,-4.2842,-4.29,-4.2882,-4.2882,-4.2882,-4.3118,-4.3991,-4.5524,-4.5936,-4.7022,-4.8714,-4.8959,-4.8861,-2.4182,-2.4802,-2.5374,-2.5426,-2.544,-2.544,-2.544,-2.4991,-2.4646,-2.4646,-2.5271,-2.5872,-2.5973,-2.7336,-2.851,-2.891,-2.93,-2.9599,-2.9939,-2.9486,-2.9183,-2.9473,-3.0126,-3.0681,-3.103,-3.0658,-3.085,-3.1967,-3.252,-3.3214,-3.4318,-3.5241,-3.572,-3.5776,-3.6513,-3.6917,-3.6917,-3.6917,-3.6917,-3.6935,-3.6992,-3.7031,-3.7108,-3.7299,-3.7466,-3.7631,-3.7792,-3.7915,-3.7982,-3.8032,-3.8065,-3.8065,-3.8101,-3.8101,-3.8135,-3.835,-3.859,-3.8803,-3.8968,-3.9007,-3.9007,-3.9073,-3.9101,-3.9101,-3.9101,-3.9101,-3.9101,-3.9101,-3.9101,-3.9101,-3.9101,-3.9007,-3.8862,-3.8822,-3.859,-3.8401,-3.8289,-3.8204,-3.8101,-3.8101,-3.8052,-3.7967,-3.7899,-3.7739,-3.754,-3.7429,-3.8069,-3.8282,-3.7481,-3.7503,-3.788,-3.8683,-3.8829,-3.9512,-4.1109,-4.1443,-4.1917,-4.2693,-4.2862,-4.29,-4.2882,-4.2882,-4.2882,-4.2882,-4.3661,-4.4574,-4.5603,-4.6598,-4.7702,-4.8909,-4.9113,-4.9295,-2.3826,-2.4382,-2.4919,-2.5048,-2.5034,-2.5019,-2.5019,-2.4846,-2.4737,-2.4737,-2.4959,-2.5334,-2.6021,-2.6713,-2.7495,-2.8347,-2.8817,-2.9106,-2.9234,-2.9171,-2.9357,-3.0035,-3.0306,-3.0766,-3.1498,-3.1716,-3.205,-3.2646,-3.3124,-3.3871,-3.5,-3.5475,-3.5997,-3.6584,-3.6847,-3.6987,-3.6987,-3.6987,-3.6987,-3.6987,-3.6987,-3.7048,-3.7108,-3.7185,-3.7279,-3.741,-3.7484,-3.7558,-3.7595,-3.7631,-3.7703,-3.7774,-3.781,-3.7827,-3.788,-3.8052,-3.8219,-3.8382,-3.8743,-3.891,-3.895,-3.9007,-3.9045,-3.9101,-3.9101,-3.9101,-3.9101,-3.9101,-3.9073,-3.9036,-3.9036,-3.8979,-3.8862,-3.8822,-3.8701,-3.8578,-3.8465,-3.835,-3.8285,-3.8238,-3.8153,-3.8018,-3.7934,-3.7775,-3.7828,-3.8271,-3.848,-3.8729,-3.9017,-3.9091,-3.9236,-3.9504,-4.0157,-4.0791,-4.133,-4.2044,-4.2573,-4.2844,-4.29,-4.2882,-4.2882,-4.2882,-4.3136,-4.3679,-4.3951,-4.4865,-4.6405,-4.6891,-4.7721,-4.8909,-4.9113,-4.8995,-2.3414,-2.4024,-2.463,-2.4573,-2.4515,-2.45,-2.45,-2.4278,-2.4105,-2.4105,-2.4293,-2.4752,-2.5703,-2.6243,-2.6909,-2.803,-2.8693,-2.9138,-2.9249,-2.9612,-3.0101,-3.0704,-3.099,-3.1406,-3.208,-3.2722,-3.3129,-3.3273,-3.3676,-3.4438,-3.5659,-3.5953,-3.6339,-3.697,-3.6987,-3.6987,-3.6987,-3.6987,-3.6987,-3.6987,-3.6987,-3.7009,-3.7069,-3.7108,-3.7147,-3.7241,-3.7297,-3.7334,-3.7354,-3.7354,-3.741,-3.7521,-3.754,-3.7559,-3.7595,-3.7774,-3.7915,-3.8086,-3.8559,-3.8743,-3.8851,-3.895,-3.9036,-3.9073,-3.9101,-3.9073,-3.9045,-3.9045,-3.9007,-3.8921,-3.8921,-3.8833,-3.8773,-3.8762,-3.8689,-3.8578,-3.8559,-3.8478,-3.8433,-3.8354,-3.8474,-3.8538,-3.8366,-3.842,-3.8758,-3.9504,-3.9533,-3.9587,-3.9839,-3.9914,-4.0021,-4.0307,-4.0984,-4.153,-4.1818,-4.2479,-4.2882,-4.2882,-4.2882,-4.2882,-4.2882,-4.2882,-4.3262,-4.4077,-4.4385,-4.5301,-4.6807,-4.7274,-4.8016,-4.8909,-4.9113,-4.9014,-2.3016,-2.3771,-2.4554,-2.3992,-2.3847,-2.3847,-2.3847,-2.3383,-2.2888,-2.2888,-2.3426,-2.4145,-2.5132,-2.5883,-2.6767,-2.8061,-2.9015,-2.971,-3.0002,-3.0714,-3.1272,-3.1451,-3.204,-3.257,-3.2835,-3.3596,-3.4007,-3.3859,0.0,-3.4931,-3.6224,-3.6544,-3.6766,-3.6987,-3.6987,-3.6987,-3.6987,-3.6987,-3.6987,-3.6987,-3.6987,-3.6987,-3.7009,-3.7069,-3.7108,-3.7108,-3.7203,-3.7297,-3.7297,-3.7297,-3.7297,-3.7314,-3.735,-3.7388,-3.7482,-3.7647,-3.7828,-3.8042,-3.8391,-3.8596,-3.8719,-3.891,-3.8979,-3.9007,-3.9073,-3.9045,-3.8979,-3.8979,-3.8892,-3.8773,-3.8773,-3.8634,-3.8528,-3.8713,-3.8619,-3.8538,-3.8755,-3.8719,-3.8588,-3.851,-3.9049,-3.9441,-3.9193,-3.96,-4.0235,-4.0985,-4.1145,-4.0895,-4.0128,-4.0039,-4.0324,-4.1074,-4.136,-4.1782,-4.2537,-4.2786,-4.2882,-4.2882,-4.2882,-4.29,-4.2955,-4.2955,-4.3353,-4.4204,-4.4965,-4.5882,-4.6879,-4.7824,-4.8495,-4.8909,-4.9113,-4.9313,-2.29,-2.3134,-2.3337,-2.3178,-2.3134,-2.3134,-2.3134,-2.3004,-2.2888,-2.2888,-2.3033,-2.3574,-2.5044,-2.5622,-2.6504,-2.8475,-2.9323,-2.9964,-3.0529,-3.0948,-3.1413,-3.1985,-3.2257,-3.2625,-3.3288,-3.3582,-3.3869,-3.4039,-3.4648,-3.5284,-3.5898,-3.6318,-3.6626,-3.6851,-3.6948,-3.6987,-3.6987,-3.6987,-3.6987,-3.6987,-3.6987,-3.6987,-3.6987,-3.7009,-3.7009,-3.7009,-3.7066,-3.7066,-3.7066,-3.7066,-3.7066,-3.7158,-3.7778,-3.8143,-3.8274,-3.8993,-3.9379,-3.9478,-3.9138,-3.8794,-3.859,-3.875,-3.8851,-3.8921,-3.895,-3.8892,-3.8851,-3.8851,-3.8713,-3.8572,-3.8572,-3.851,-3.8579,-3.9232,-3.9429,-3.9593,-4.0163,-4.0288,-4.0218,-3.9999,-3.995,-3.9892,-3.9723,-4.0328,-4.086,-4.1074,-4.1609,-4.1912,-4.1698,-4.168,-4.177,-4.1966,-4.2185,-4.2393,-4.2591,-4.2786,-4.2882,-4.2882,-4.2882,-4.3154,-4.3769,-4.3788,-4.444,-4.5852,-4.6087,-4.6699,-4.7682,-4.808,-4.8495,-4.8909,-4.9113,-4.9313,-2.2766,-2.2872,-2.2857,-2.2888,-2.2888,-2.2888,-2.2888,-2.2888,-2.2888,-2.2888,-2.2888,-2.3385,-2.5014,-2.5441,-2.6273,-2.8637,-2.9592,-3.0363,-3.115,-3.1781,-3.2282,-3.2677,-3.2724,-3.2918,-3.3471,-3.3555,-3.3694,-3.4,-3.4643,-3.5211,-3.5677,-3.6114,-3.6468,-3.6788,-3.6948,-3.6987,-3.6987,-3.6987,-3.6987,-3.6987,-3.6987,-3.6987,-3.6987,-3.6987,-3.6987,-3.6987,0.0,-3.6987,-3.7044,-3.7338,-3.7479,-3.7549,-3.8397,-3.8818,-3.9031,-3.9514,-3.9889,-4.0068,-3.9714,-3.9463,-3.9231,-3.8766,-3.8652,-3.8743,-3.8792,-3.8743,-3.8726,-3.9061,-3.9045,-3.9021,-3.9316,-3.934,-3.9449,-3.9956,-4.0117,-4.0297,-4.063,-4.0755,-4.0812,-4.089,-4.072,-4.0613,-4.0816,-4.1243,-4.1528,-4.1528,-4.1961,-4.2287,-4.2287,-4.2287,-4.2287,-4.2287,-4.249,-4.2609,-4.2609,-4.2786,-4.2882,-4.2882,-4.3226,-4.3625,-4.4077,-4.444,-4.5218,-4.6486,-4.6504,-4.7007,-4.7992,-4.819,-4.8495,-4.8909,-4.9113,-4.9313,-2.2689,-2.2749,-2.2795,-2.2857,-2.2888,-2.2888,-2.2888,-2.2888,-2.2888,-2.2888,-2.296,-2.3487,-2.4982,-2.5372,-2.6232,-2.8586,-2.9797,-3.0768,-3.1675,-3.2641,-3.3309,-3.3309,-3.3309,-3.3361,-3.345,-3.3503,-3.3591,-3.3848,-3.4349,-3.4866,-3.5498,-3.5898,-3.6284,-3.6771,-3.6948,-3.6987,-3.6987,-3.6987,-3.6987,-3.6987,-3.6987,-3.6987,-3.6987,-3.6987,-3.6987,-3.6987,-3.6987,0.0,-3.718,-3.7848,-3.8164,-3.8357,-3.9164,-3.957,-3.9734,-3.984,-4.0095,-4.0349,-4.0241,-4.0303,-4.0275,-3.9137,-3.8757,-3.8775,-3.8907,-3.8857,-3.8889,-3.9553,-3.967,-3.9765,-4.0347,-4.0474,-4.0546,-4.078,-4.0816,-4.0834,-4.0871,-4.0854,-4.0981,-4.1423,-4.1372,-4.1385,-4.1997,-4.2103,-4.2103,-4.2103,-4.2187,-4.2287,-4.2287,-4.2287,-4.2287,-4.2287,-4.249,-4.257,-4.2609,-4.2876,-4.3045,-4.3045,-4.3806,-4.4313,-4.4403,-4.5091,-4.5834,-4.6649,-4.6667,-4.7116,-4.801,-4.819,-4.8495,-4.8874,-4.9079,-4.9295,-2.2431,-2.2644,-2.2795,-2.2795,-2.2872,-2.2888,-2.2888,-2.2888,-2.2888,-2.2888,-2.3354,-2.401,-2.496,-2.5712,-2.6788,-2.8544,-2.9833,-3.0856,-3.1659,-3.2641,-3.3309,-3.3309,-3.3309,-3.3309,-3.3346,-3.345,-3.3555,-3.3694,-3.405,-3.4497,-3.5165,-3.5694,-3.6276,-3.6771,-3.6948,-3.6987,-3.6987,-3.6987,-3.6987,-3.6987,-3.6987,-3.6987,-3.6987,-3.6987,-3.6987,-3.6987,-3.6987,0.0,-3.7918,-3.8058,-3.8497,-3.9182,-3.9972,-4.0355,-4.0493,-4.1188,-4.1538,-4.1576,-4.0966,-4.0758,-4.0735,-4.022,-4.0094,-4.0165,-4.0165,-4.013,-4.0095,-4.0274,-4.0293,-4.0275,-4.0456,-4.0456,-4.0582,-4.1269,-4.145,-4.1594,-4.2129,-4.2214,-4.2149,-4.2136,-4.2032,-4.1961,-4.2012,-4.2037,-4.2103,-4.2103,-4.2187,-4.2287,-4.2287,-4.2287,-4.2287,-4.2287,-4.2445,-4.2526,-4.2609,-4.334,-4.3837,-4.3896,-4.4639,-4.5399,-4.6069,-4.6214,-4.6667,-4.7482,-4.75,-4.7614,-4.7943,-4.8108,-4.8363,-4.866,-4.8925,-4.9127,-2.2044,-2.2292,-2.2491,-2.2583,-2.2735,-2.2872,-2.2872,-2.2857,-2.2888,-2.2888,-2.3441,-2.4141,-2.4926,-2.5717,-2.6722,-2.8389,-2.9574,-3.0597,-3.1449,-3.2535,-3.3203,-3.3203,-3.3256,-3.3309,-3.3309,-3.3346,-3.3503,-3.3694,-3.3899,-3.43,-3.4947,-3.5739,-3.6343,-3.6788,-3.6948,-3.6987,-3.6987,-3.6987,-3.6987,-3.6987,-3.6987,-3.6987,-3.6987,-3.6987,-3.6987,-3.6987,-3.6996,0.0,-3.7586,-3.8373,-3.8933,-3.9406,-4.0595,-4.1112,-4.118,-4.1551,-4.177,-4.1864,-4.1498,-4.1392,-4.1434,-4.1266,-4.0802,-4.0291,-4.0291,-4.0346,-4.0473,-4.0834,-4.0997,-4.116,-4.1502,-4.1629,-4.1717,-4.2039,-4.2034,-4.2063,-4.236,-4.2346,-4.2216,-4.2157,-4.2055,-4.1909,-4.1884,-4.1909,-4.1934,-4.1934,-4.2079,-4.2205,-4.2205,-4.262,-4.2751,-4.2323,-4.2744,-4.3077,-4.314,-4.4021,-4.461,-4.4632,-4.5432,-4.6106,-4.6486,-4.6902,-4.7319,-4.7699,-4.7717,-4.7759,-4.7902,-4.8087,-4.8324,-4.8587,-4.8872,-4.9127,-2.1568,-2.1841,-2.2137,-2.2278,-2.2537,-2.2704,-2.2749,-2.2826,-2.2886,-2.3016,-2.3598,-2.4297,-2.5097,-2.5775,-2.6688,-2.807,-2.9222,-3.0236,-3.0983,-3.2213,-3.2989,-3.3058,-3.315,-3.3256,-3.3309,-3.3309,-3.3398,-3.3658,-3.3848,-3.425,-3.4947,-3.5783,-3.6385,-3.6748,-3.6869,-3.6987,-3.6987,-3.6987,-3.6987,-3.6987,-3.6987,-3.6987,-3.6987,-3.6987,-3.6987,-3.6987,-3.6991,-3.7196,0.0,-3.8804,-3.9485,-3.9887,-4.1139,-4.1596,-4.1613,-4.1613,-4.1674,-4.1778,-4.1778,-4.1831,-4.1902,-4.1902,-4.128,-4.0545,-4.0545,-4.0661,-4.0939,-4.1495,-4.1789,-4.2009,-4.2526,-4.2706,-4.2706,-4.253,-4.2369,-4.2246,-4.2264,-4.2115,-4.2005,-4.1945,-4.1884,-4.178,-4.1736,-4.178,-4.178,-4.178,-4.1952,-4.2132,-4.2292,-4.2963,-4.3237,-4.2816,-4.3382,-4.3823,-4.3865,-4.4749,-4.5323,-4.5364,-4.6223,-4.6716,-4.6757,-4.7373,-4.7717,-4.7717,-4.7717,-4.7759,-4.7861,-4.8046,-4.8265,-4.8532,-4.8802,-4.9042,-2.0983,-2.1375,-2.1698,-2.1996,-2.2231,-2.2477,-2.2569,-2.2615,-2.2772,-2.3345,-2.4086,-2.4832,-2.5467,-2.6323,-2.6997,-2.7307,-2.8727,-2.9887,-3.0091,-3.1567,-3.2726,-3.2897,-3.3058,-3.315,-3.3309,-3.3309,-3.3346,-3.3503,-3.3848,-3.4448,-3.5198,-3.5756,-3.6191,-3.6544,-3.6708,-3.6869,-3.6987,-3.6987,-3.6987,-3.6987,-3.6987,-3.6987,-3.6987,-3.6987,-3.6987,-3.6987,-3.7005,-3.7812,0.0,-3.9228,-4.0122,-4.1385,-4.1552,-4.1604,-4.1587,-4.1587,-4.1587,-4.1648,-4.1648,-4.1648,-4.1648,-4.1648,-4.176,-4.1932,-4.1932,-4.2091,-4.2329,-4.2444,-4.2501,-4.2559,-4.2727,-4.2645,-4.2445,-4.2205,-4.2145,-4.2121,-4.203,-4.2005,-4.1945,-4.1841,-4.1797,-4.1736,-4.1648,-4.1736,-4.178,-4.178,-4.1945,-4.2235,-4.2908,-4.3093,-4.3456,-4.4218,-4.4395,-4.4561,-4.4689,-4.5423,-4.6,-4.6194,-4.6952,-4.7446,-4.7591,-4.7663,-4.7717,-4.7717,-4.7717,-4.7717,-4.7717,-4.7861,-4.8046,-4.8265,-4.8569,-4.8818,-2.0485,-2.0885,-2.1277,-2.1375,-2.1698,-2.2127,-2.2552,-2.2794,-2.3087,-2.3808,-2.4497,-2.5112,-2.5523,-2.6226,-2.675,-2.7041,-2.8379,-2.9495,-2.9711,-3.1506,-3.2732,-3.2624,-3.317,-3.3427,-3.3181,-3.3256,-3.3361,-3.3503,-3.3848,-3.4284,-3.4754,-3.5407,-3.5958,-3.636,-3.665,-3.6851,-3.6987,-3.6987,-3.6987,-3.6987,-3.6987,-3.6987,-3.6987,-3.6987,-3.6987,-3.6987,-3.7013,-3.7872,0.0,-4.0285,-4.1059,-4.1604,-4.1604,-4.1604,-4.1604,-4.1604,-4.1604,-4.1604,-4.1604,-4.1604,-4.1604,-4.1604,-4.1797,-4.2072,-4.2108,-4.2222,-4.2414,-4.2508,-4.2588,-4.2609,-4.2606,-4.2427,-4.2205,-4.2121,-4.2037,-4.1909,-4.1884,-4.1797,-4.1754,-4.1692,-4.1692,-4.1648,-4.1604,-4.1648,-4.1692,-4.1692,-4.2185,-4.2635,-4.2917,-4.3872,-4.467,-4.5125,-4.5205,-4.5232,-4.5382,-4.6203,-4.6783,-4.6877,-4.7288,-4.7554,-4.7699,-4.7717,-4.7717,-4.7717,-4.7717,-4.7717,-4.7717,-4.7819,-4.8006,-4.8187,-4.8476,-4.8767,-2.0218,-2.0463,-2.0736,-2.0785,-2.1166,-2.1656,-2.2305,-2.2619,-2.3053,-2.3895,-2.4567,-2.5142,-2.5536,-2.6026,-2.6543,0.0,-2.8188,-2.9131,-2.9614,-3.1489,-3.2713,-3.2599,-3.3475,-3.3911,-3.3419,-3.3329,-3.3361,-3.3503,-3.3781,-3.4068,-3.4317,-3.4922,-3.5548,-3.6174,-3.6544,-3.6823,-3.6983,-3.7005,-3.6987,-3.6987,-3.6987,-3.6987,-3.6987,-3.6987,-3.6987,-3.6987,-3.6974,-3.7749,0.0,-4.038,-4.1041,-4.1288,-4.1516,-4.1604,-4.1604,-4.1604,-4.1604,-4.1604,-4.1604,-4.1604,-4.1604,-4.1604,-4.1736,-4.1909,-4.198,-4.2181,-4.2356,-4.245,-4.249,-4.249,-4.2387,-4.2222,-4.2079,-4.2019,-4.1909,-4.178,-4.1736,-4.1648,-4.1604,-4.1604,-4.1604,-4.1604,-4.1604,-4.1604,-4.1604,-4.1604,-4.2299,-4.2969,-4.318,-4.4424,-4.5464,-4.5833,-4.5914,-4.596,-4.6159,-4.6767,-4.7178,-4.7302,-4.7407,-4.7511,-4.7699,-4.7717,-4.7717,-4.7717,-4.7717,-4.7717,-4.7717,-4.7801,-4.7925,-4.8148,-4.842,-4.8731,-2.0316,-2.0185,-2.0093,-2.0321,-2.061,-2.1004,-2.1674,-2.1987,-2.2439,-2.3554,-2.4205,-2.4735,-2.5549,-2.5948,-2.6432,-2.7334,-2.8204,-2.8955,-2.9768,-3.1382,-3.2631,-3.2968,-3.3971,-3.453,-3.414,-3.3597,-3.3361,-3.3503,-3.3559,0.0,-3.4071,-3.4378,-3.4956,-3.5958,-3.6464,-3.6824,-3.6986,-3.7001,-3.6987,-3.6987,-3.6987,-3.6987,-3.6987,-3.6987,-3.6987,-3.6987,-3.6987,-3.7409,0.0,-3.9006,-3.9779,-4.0569,-4.1306,-4.1604,-4.1604,-4.1604,-4.1604,-4.1604,-4.1604,-4.1604,-4.1604,-4.1604,-4.1622,-4.1639,-4.1744,-4.2139,-4.2486,-4.2338,-4.2315,-4.2287,-4.2145,-4.2055,-4.1962,-4.1841,-4.178,-4.178,-4.1648,-4.1604,-4.1604,-4.1604,-4.1604,-4.1604,-4.1604,-4.1604,-4.1604,-4.1604,-4.2289,-4.3061,-4.3799,-4.4589,-4.5475,-4.6501,-4.6572,-4.6684,-4.698,-4.6998,-4.707,-4.7302,-4.7302,-4.7407,-4.7699,-4.7717,-4.7717,-4.7717,-4.7717,-4.7717,-4.7717,-4.7717,-4.7824,-4.7992,-4.8288,-4.8713,-2.0673,-2.0761,-2.0832,-2.0941,-2.1158,-2.1527,-2.2133,-2.2483,-2.2913,-2.38,-2.4243,-2.4705,-2.5245,-2.5953,-2.6582,-2.7073,-2.8268,0.0,-2.9653,-3.1514,-3.2885,-3.2883,-3.3644,-3.4201,-3.4227,-3.365,-3.3309,-3.3346,-3.3507,-3.3617,-3.3526,-3.3958,-3.4642,-3.5467,-3.6113,-3.6585,-3.6986,-3.7001,-3.6987,-3.6987,-3.6987,-3.6987,-3.6987,-3.6987,-3.6987,-3.6987,-3.6987,-3.7409,0.0,-3.8374,-3.9269,-4.0498,-4.0744,-4.1148,-4.1604,-4.1604,-4.1604,-4.1604,-4.1604,-4.1604,-4.1604,-4.1604,-4.1675,-4.1727,-4.1692,-4.1874,-4.2174,-4.2174,-4.215,-4.2168,-4.203,-4.1945,-4.1841,-4.1823,-4.1736,-4.1648,-4.1604,-4.1604,-4.1604,-4.1604,-4.1604,-4.1604,-4.1604,-4.1604,-4.1797,-4.2342,-4.3079,-4.3834,-4.4624,-4.5396,-4.6007,-4.6411,-4.6542,-4.6684,-4.6998,-4.6998,-4.7088,-4.7223,-4.7276,-4.7363,-4.7572,-4.7657,-4.7717,-4.7717,-4.7717,-4.7717,-4.7717,-4.7717,-4.7866,-4.813,-4.8363,-4.866,-2.1076,-2.1031,-2.1031,-2.1031,-2.12,-2.1506,-2.2113,-2.2412,-2.2796,-2.3487,-2.3897,-2.4358,-2.4989,-2.5745,-2.6618,-2.7425,-2.8523,-2.9563,-3.0158,-3.1816,-3.3315,-3.4121,-3.4268,-3.4397,-3.4715,-3.3862,-3.3309,-3.3309,-3.3423,-3.3419,-3.331,-3.3778,-3.4421,-3.5133,-3.5882,-3.653,-3.6992,-3.6991,-3.6983,-3.6987,-3.6987,-3.6987,-3.6987,-3.6987,-3.6987,-3.6987,-3.6987,0.0,0.0,-3.7988,-3.869,-3.9638,-4.0235,-4.0762,-4.1218,-4.1499,-4.1604,-4.1604,-4.1604,-4.1604,-4.1604,-4.1604,-4.1648,-4.1719,-4.1622,-4.177,-4.1952,-4.2041,-4.2058,-4.198,-4.1962,-4.1841,-4.1736,-4.1736,-4.1648,-4.1604,-4.1604,-4.1604,-4.1604,-4.1604,-4.1604,-4.1604,-4.1604,-4.1604,-4.1885,-4.2693,-4.343,-4.4185,-4.4992,-4.5765,-4.627,-4.6398,-4.6542,-4.6684,-4.6888,-4.698,-4.7043,-4.7196,-4.7249,-4.732,-4.7407,-4.7554,-4.7615,-4.7615,-4.7657,-4.7717,-4.7717,-4.7759,-4.7884,-4.813,-4.8324,-4.855,0.0,-2.115,-2.0879,-2.0879,-2.0982,-2.1219,-2.1722,-2.1975,0.0,-2.2749,-2.3236,-2.3906,-2.471,-2.5482,-2.6508,-2.8158,-2.8894,-2.98,-3.1142,-3.2386,-3.3916,-3.6137,-3.5543,-3.5008,-3.5331,-3.4099,-3.3309,-3.3309,-3.3292,-3.3304,-3.3342,-3.3827,-3.4345,-3.4885,-3.5779,-3.6466,-3.6984,-3.6975,-3.7013,-3.6987,-3.6987,-3.6987,-3.6987,-3.6987,-3.6987,0.0,-3.6987,0.0,0.0,-3.7742,-3.8058,-3.8251,-3.9743,-4.034,-4.0481,-4.1253,-4.1516,-4.1534,-4.1587,-4.1604,-4.1604,-4.1604,-4.1604,-4.1604,-4.1604,-4.1683,-4.1821,-4.1927,-4.1884,-4.1797,-4.1797,-4.1692,-4.1604,-4.1604,-4.1604,-4.1604,-4.1604,-4.1604,-4.1604,-4.1604,-4.1604,-4.1604,-4.1604,-4.1657,-4.1973,-4.2763,-4.3518,-4.4273,-4.508,-4.58,-4.627,-4.6398,-4.6495,-4.6637,-4.6778,-4.6934,-4.7043,-4.7196,-4.7178,-4.7223,-4.7276,-4.7407,-4.7511,-4.7511,-4.7615,-4.7699,-4.7717,-4.7819,-4.7925,-4.7992,-4.819,-4.8382,-2.2041,0.0,-2.1873,-2.1873,-2.1873,-2.1971,0.0,-2.2238,-2.2396,-2.2519,0.0,-2.4075,-2.4497,-2.584,-2.7314,-2.8565,-2.9582,-3.0552,-3.1654,-3.3187,-3.4525,-3.5508,-3.5233,-3.4908,-3.4849,-3.3931,-3.3309,-3.3309,-3.3303,-3.3459,-3.3909,-3.4034,-3.435,-3.4885,-3.5471,-3.6178,-3.6967,-3.6975,-3.7013,-3.6987,-3.6987,-3.6987,-3.6987,-3.6987,-3.6987,-3.6987,0.0,0.0,-3.6987,-3.718,-3.7584,-3.8146,-3.8515,-3.9041,-3.9691,-4.0463,-4.0744,-4.0832,-4.1394,-4.1604,-4.1604,-4.1604,-4.1604,-4.1604,-4.1604,-4.1631,-4.1675,-4.171,-4.1648,-4.1648,-4.1648,-4.1604,-4.1604,-4.1604,-4.1604,-4.1604,-4.1604,-4.1604,-4.1604,-4.1604,-4.1604,-4.1604,-4.1604,-4.2113,-4.278,-4.3535,-4.4308,-4.5098,-4.5852,-4.6116,-4.6221,-4.627,-4.635,-4.6495,-4.6637,-4.6888,-4.698,-4.7043,-4.7133,-4.7196,-4.7223,-4.7276,-4.7363,-4.7363,-4.7468,-4.7615,-4.7717,-4.7717,-4.7801,-4.7925,-4.7966,-4.8108,-2.2197,-2.2197,-2.2197,-2.2197,-2.2378,-2.2558,-2.2558,0.0,0.0,0.0,0.0,0.0,0.0,-2.6153,-2.7504,-2.8975,-2.9919,-3.1033,-3.2594,-3.3741,-3.4708,-3.5293,-3.4907,-3.4579,-3.4682,-3.3852,-3.3309,-3.3309,-3.3319,-3.3539,-3.4053,-3.4097,-3.4234,-3.4545,-3.5011,-3.5729,-3.6688,-3.6741,-3.68,-3.6908,-3.6987,-3.6987,-3.6987,-3.6987,-3.6987,-3.6987,0.0,0.0,-3.6987,-3.6987,-3.7233,-3.7619,-3.797,-3.8374,-3.8901,-4.0059,-4.0481,-4.0586,-4.1341,-4.1604,-4.1604,-4.1604,-4.1604,-4.1604,-4.1604,-4.1604,-4.1604,-4.1604,-4.1604,-4.1604,-4.1604,-4.1604,-4.1604,-4.1604,-4.1604,-4.1604,-4.1604,-4.1604,-4.1604,-4.1604,-4.1604,-4.1727,-4.2096,-4.2517,-4.3184,-4.4273,-4.4817,-4.5378,-4.6133,-4.6172,-4.6172,-4.6172,-4.6301,-4.6429,-4.6495,-4.6684,-4.6888,-4.6998,-4.7088,-4.7088,-4.7088,-4.7205,-4.7294,-4.7302,-4.7407,-4.7554,-4.7615,-4.7657,-4.7717,-4.7819,-4.7861,-4.7943,-2.2173,-2.2246,-2.2306,-2.2306,-2.2714,-2.3099,-2.3099,0.0,0.0,0.0,0.0,0.0,0.0,-2.6518,-2.7773,-2.9428,-3.0432,-3.1645,-3.3493,-3.4135,-3.4615,-3.5201,-3.4523,-3.4171,-3.4438,-3.3789,-3.3309,-3.3309,-3.3282,-3.3487,-3.3954,-3.4062,-3.4102,-3.4121,-3.4607,-3.5304,-3.6137,-3.6345,-3.6568,-3.6788,-3.6908,-3.6987,-3.6987,-3.6987,-3.6987,-3.6987,0.0,0.0,-3.6987,-3.6987,-3.6987,-3.704,-3.769,-3.7935,-3.8128,-3.9726,-4.0305,-4.0428,-4.1306,-4.1604,-4.1604,-4.1604,-4.1604,-4.1604,-4.1604,-4.1604,-4.1604,-4.1604,-4.1604,-4.1604,-4.1604,-4.1604,-4.1604,-4.1604,-4.1604,-4.1604,-4.1604,-4.1604,-4.1639,-4.1762,-4.178,-4.2043,-4.2833,-4.3079,-4.3605,-4.4904,-4.5203,-4.5501,-4.6102,-4.6172,-4.6172,-4.6172,-4.6301,-4.6398,-4.6381,-4.6525,-4.6702,-4.6934,-4.698,-4.698,-4.6998,-4.7088,-4.7223,-4.7276,-4.7425,-4.7468,-4.7511,-4.7615,-4.7717,-4.7699,-4.7819,-4.7861,-2.2077,-2.2522,-2.2859,-2.2859,-2.3256,-2.3652,-2.3652,0.0,0.0,0.0,0.0,0.0,0.0,-2.7524,-2.9094,-3.031,-3.2134,-3.3511,-3.3955,-3.4156,-3.4307,-3.4546,-3.4087,-3.3724,-3.3549,-3.3366,-3.3309,-3.3309,-3.3293,-3.3314,-3.3423,-3.3874,-3.4094,-3.4118,-3.4643,-3.506,-3.5463,-3.5915,-3.6343,-3.6742,-3.6788,-3.6908,-3.6987,-3.6987,-3.6987,-3.6987,0.0,-3.6987,-3.6987,-3.6987,-3.6987,-3.6987,-3.711,-3.7163,-3.7356,-3.8918,-3.9498,-3.9691,-4.1113,-4.1604,-4.1604,-4.1604,-4.1604,-4.1604,-4.1604,-4.1604,-4.1604,-4.1604,-4.1604,-4.1604,-4.1604,-4.1604,-4.1604,-4.1604,-4.1604,-4.1604,-4.1604,-4.1604,-4.1797,-4.2482,-4.2622,-4.2851,-4.3605,-4.4308,-4.4834,-4.5062,-4.5642,-4.6098,-4.6221,-4.6172,-4.6172,-4.6172,-4.6221,-4.627,-4.6381,-4.6525,-4.6684,-4.6842,-4.6842,-4.6888,-4.6998,-4.7043,-4.7088,-4.7223,-4.7276,-4.7407,-4.7511,-4.7615,-4.7717,-4.7717,-4.7717,-4.7717,-2.2053,-2.2787,-2.3412,-2.3412,-2.3863,-2.4316,-2.4316,0.0,0.0,0.0,0.0,0.0,0.0,-2.7945,-2.9578,-3.1308,-3.2928,-3.3837,-3.372,-3.3701,-3.3662,-3.3681,-3.3383,-3.3201,-3.3307,-3.3303,-3.3309,-3.3309,-3.3309,-3.3346,-3.3487,-3.367,-3.3841,-3.4,-3.4283,-3.4643,-3.4994,-3.5441,-3.5975,-3.6602,-3.6748,-3.6869,-3.6987,-3.6987,-3.6987,-3.6987,0.0,-3.6987,-3.6987,-3.6987,-3.6987,-3.6987,-3.6987,-3.6987,-3.718,-3.8725,-3.9585,-4.0112,-4.1218,-4.1604,-4.1604,-4.1604,-4.1604,-4.1604,-4.1604,-4.1604,-4.1604,-4.1604,-4.1604,-4.1604,-4.1604,-4.1604,-4.1604,-4.1604,-4.1604,-4.1604,-4.1604,-4.2043,-4.2545,-4.2763,-4.3131,-4.3641,-4.4413,-4.4852,-4.5238,-4.5642,-4.5993,-4.6172,-4.6172,-4.6172,-4.6172,-4.6172,-4.6253,-4.635,-4.6381,-4.6525,-4.6684,-4.6888,-4.6888,-4.6952,-4.6998,-4.6998,-4.7043,-4.7088,-4.7232,-4.732,-4.7407,-4.7615,-4.7717,-4.7717,-4.7717,-4.7935,-2.2017,-2.2967,-2.3773,-2.3773,0.0,-2.4998,-2.5066,0.0,0.0,0.0,0.0,0.0,0.0,-2.8331,-2.9875,-3.1895,-3.2908,-3.3403,-3.3151,-3.304,-3.2989,-3.3048,-3.2834,-3.2804,-3.3253,-3.3319,-3.3309,-3.3309,-3.3151,-3.3124,-3.3312,-3.3121,-3.3112,-3.3349,-3.3677,-3.4056,-3.4444,-3.5005,-3.5684,-3.6377,-3.6626,-3.6829,-3.693,-3.6987,-3.6987,-3.6987,-3.6987,-3.6987,-3.6987,-3.6987,-3.6987,-3.6987,-3.6987,-3.7198,-3.7672,-3.8866,-3.9919,-4.0832,-4.1394,-4.1604,-4.1604,-4.1604,-4.1604,-4.1604,-4.1604,-4.1604,-4.1604,-4.1604,-4.1604,-4.1604,-4.1604,-4.1604,-4.1604,-4.1604,-4.1604,-4.1622,-4.1612,-4.2394,-4.3142,-4.3237,-4.3763,-4.4431,-4.522,-4.5361,-4.5572,-4.6133,-4.6172,-4.6172,-4.6172,-4.6172,-4.6172,-4.6172,-4.6301,-4.6447,-4.6495,-4.659,-4.6731,-4.6998,-4.698,-4.6998,-4.6998,-4.6998,-4.698,-4.7043,-4.7232,-4.732,-4.7363,-4.7554,-4.7717,-4.7717,-4.7717,-4.8134,-2.1909,-2.2967,-2.3773,-2.3773,-2.4667,0.0,-2.5779,-2.6013,0.0,-2.6577,0.0,0.0,0.0,-2.893,-3.0349,-3.1533,-3.1952,-3.2162,-3.2249,-3.2265,-3.2481,-3.2961,-3.2654,-3.264,-3.3239,-3.3313,-3.3309,-3.3309,-3.2708,-3.2396,-3.2396,-3.1863,-3.1596,-3.1742,-3.2692,-3.3339,-3.3686,-3.4755,-3.5549,-3.6019,-3.6377,-3.6609,-3.6829,-3.693,-3.6987,-3.6987,-3.6987,-3.6987,-3.6987,-3.6987,-3.6987,-3.6987,-3.6987,-3.7865,-3.9164,-3.9269,-4.0253,-4.1534,-4.1587,-4.1604,-4.1604,-4.1604,-4.1604,-4.1604,-4.1604,-4.1604,-4.1604,-4.1604,-4.1604,-4.1604,-4.1604,-4.1604,-4.1604,-4.1604,-4.1604,-4.1595,-4.1618,-4.2269,-4.3184,-4.4366,-4.4804,-4.5256,-4.601,-4.6102,-4.6119,-4.6172,-4.6172,-4.6172,-4.6172,-4.6172,-4.6172,-4.6172,-4.6301,-4.6495,-4.6731,-4.6795,-4.6842,-4.6998,-4.6888,-4.6888,-4.698,-4.6998,-4.7043,-4.7178,-4.7232,-4.7363,-4.7511,-4.7615,-4.7717,-4.7717,-4.7717,-4.8134,-2.1909,-2.2727,-2.3364,-2.3688,0.0,0.0,0.0,-2.6302,-2.6645,-2.6998,-2.7268,0.0,0.0,-2.9583,-3.0387,-3.1673,-3.1982,-3.1969,-3.1757,-3.205,-3.2092,-3.1901,-3.2065,-3.2419,-3.2866,-3.2667,-3.2525,-3.2661,-3.2013,-3.1618,-3.1618,-3.1399,-3.1355,-3.1485,-3.1903,-3.2515,-3.3289,-3.3994,-3.4806,-3.565,-3.6233,-3.6626,-3.6811,-3.6948,-3.6987,-3.6987,-3.6987,-3.6987,-3.6987,-3.6987,-3.6987,-3.6987,-3.6987,-3.7637,-3.862,-3.9129,-3.9989,-4.0972,-4.1446,-4.1604,-4.1604,-4.1604,-4.1604,-4.1604,-4.1604,-4.1604,-4.1604,-4.1604,-4.1604,-4.1604,-4.1604,-4.1604,-4.1604,-4.1604,-4.1604,-4.1762,-4.2233,-4.2945,-4.3781,-4.4734,-4.5431,-4.5888,-4.6168,-4.6172,-4.6172,-4.6172,-4.6172,-4.6172,-4.6172,-4.6172,-4.6221,-4.6301,-4.6495,-4.6731,-4.6888,-4.6934,-4.6952,-4.6998,-4.6934,-4.6952,-4.6998,-4.7088,-4.7133,-4.7196,-4.7338,-4.745,-4.7511,-4.7615,-4.7717,-4.7717,-4.8224,-4.8894,-2.1945,-2.2702,-2.3316,0.0,0.0,0.0,-2.6146,-2.6508,-2.693,-2.7403,-2.7669,-2.8186,-2.9378,-2.9721,-3.0169,-3.1261,-3.1368,-3.1338,-3.1217,-3.1477,-3.1558,-3.1219,-3.1486,-3.183,-3.2222,-3.192,-3.175,-3.1934,-3.1286,-3.0891,-3.0891,-3.067,-3.0608,-3.0736,-3.1102,-3.1646,-3.2384,-3.3297,-3.4176,-3.5043,-3.5899,-3.6502,-3.6748,-3.6908,-3.6948,-3.6987,-3.6987,-3.6987,-3.6987,-3.6987,-3.6987,-3.7005,-3.7251,-3.7812,-3.8585,-3.9392,-4.0165,-4.0902,-4.1411,-4.1604,-4.1604,-4.1604,-4.1604,-4.1604,-4.1604,-4.1604,-4.1604,-4.1604,-4.1604,-4.1604,-4.1604,-4.1604,-4.1604,-4.1604,-4.1797,-4.2166,-4.2787,-4.3658,-4.4518,-4.5308,-4.587,-4.6172,-4.6172,-4.6172,-4.6172,-4.6172,-4.6172,-4.6172,-4.6172,-4.6172,-4.627,-4.6429,-4.6637,-4.6795,-4.698,-4.6998,-4.7043,-4.7043,-4.7043,-4.7043,-4.7043,-4.7178,-4.7267,-4.7312,-4.7425,-4.7511,-4.7554,-4.7657,-4.7844,-4.8098,-4.8659,-4.9474,-2.2053,-2.2967,-2.3761,0.0,0.0,0.0,-2.6346,-2.6714,-2.7146,-2.7723,-2.8249,-2.8716,-2.9035,-2.9289,-2.954,-2.9988,-2.9993,-3.0086,-3.0507,-3.0584,-3.0704,-3.1042,-3.0934,-3.0913,-3.1281,-3.1119,-3.1027,-3.1207,-3.0559,-3.0164,-3.0164,-2.9501,-2.9167,-2.9305,-3.0144,-3.0698,-3.0878,-3.2662,-3.3773,-3.4231,-3.5399,-3.6251,-3.6702,-3.6748,-3.6851,-3.6987,-3.6987,-3.6987,-3.6987,-3.6987,-3.6987,-3.7058,-3.7812,-3.8602,-3.941,-4.0182,-4.0955,-4.1604,-4.1604,-4.1604,-4.1604,-4.1604,-4.1604,-4.1604,-4.1604,-4.1604,-4.1604,-4.1604,-4.1604,-4.1604,-4.1604,-4.1604,-4.1604,-4.1604,-4.2219,-4.2858,-4.3162,-4.4225,-4.5326,-4.6081,-4.6172,-4.6172,-4.6172,-4.6172,-4.6172,-4.6172,-4.6172,-4.6172,-4.6172,-4.6172,-4.6319,-4.659,-4.659,-4.6684,-4.6998,-4.6998,-4.7043,-4.7196,-4.7196,-4.7196,-4.7196,-4.7294,-4.7363,-4.7511,-4.7511,-4.7572,-4.7717,-4.7717,-4.8134,-4.8912,-4.8931,-4.9782,-2.2498,-2.2967,0.0,-2.4121,0.0,0.0,0.0,-2.6714,0.0,0.0,-2.8392,-2.878,-2.9035,-2.9352,-2.9651,-2.9917,-3.0101,-3.0312,-3.0568,-3.0613,-3.0557,-3.0409,-3.0499,-3.0628,-3.0674,-3.0379,-3.0253,-3.048,-2.9832,-2.9437,-2.9437,-2.9201,-2.9121,-2.9167,-2.9573,-3.0108,-3.0698,-3.1544,-3.2628,-3.3943,-3.4566,-3.548,-3.6544,-3.6748,-3.6851,-3.6987,-3.6987,-3.6987,-3.6987,-3.6987,-3.6987,-3.7058,-3.7812,-3.8602,-3.941,-4.0182,-4.0955,-4.1604,-4.1604,-4.1604,-4.1604,-4.1604,-4.1604,-4.1604,-4.1604,-4.1604,-4.1604,-4.1604,-4.1604,-4.1604,-4.1604,-4.1604,-4.1604,-4.1604,-4.2219,-4.2973,-4.3541,-4.4295,-4.5085,-4.5996,-4.6172,-4.6172,-4.6172,-4.6172,-4.6172,-4.6073,-4.6073,-4.6073,-4.6073,-4.6154,-4.6253,-4.6429,-4.6542,-4.6684,-4.6842,-4.6842,-4.6934,-4.7043,-4.7205,-4.7276,-4.7276,-4.7363,-4.7468,-4.7511,-4.7597,-4.7657,-4.7717,-4.8279,-4.8677,-4.8949,-5.0071,-5.0832,-2.2528,-2.3011,0.0,-2.4094,-2.4727,-2.5419,-2.6438,0.0,0.0,0.0,-2.8573,-2.8944,-2.9149,-2.9435,-2.9685,-3.0021,-3.0176,-3.0283,-3.0568,-3.0321,-3.006,-3.0,-2.9822,-2.978,-2.9961,-2.9645,-2.9499,-2.9753,-2.9374,-2.9075,-2.9075,-2.9075,-2.9075,-2.9075,-2.9321,-2.9665,-3.0158,-3.081,-3.1827,-3.3238,-3.3901,-3.4912,-3.6148,-3.6485,-3.6731,-3.693,-3.6987,-3.6987,-3.6987,-3.6987,-3.6987,-3.7093,-3.8164,-3.8883,-3.9445,-4.0533,-4.1218,-4.1604,-4.1604,-4.1604,-4.1604,-4.1604,-4.1604,-4.1604,-4.1604,-4.1604,-4.1604,-4.1515,-4.1515,-4.1515,-4.1515,-4.1453,-4.1541,-4.1963,-4.2675,-4.3447,-4.4155,-4.4791,-4.539,-4.602,-4.6143,-4.6125,-4.6005,-4.592,-4.5887,-4.5959,-4.5855,-4.577,-4.5889,-4.5905,-4.6038,-4.6235,-4.6332,-4.6429,-4.6637,-4.6637,-4.6731,-4.698,-4.7116,-4.7232,-4.732,-4.7468,-4.7572,-4.7572,-4.7965,-4.8188,-4.8188,-4.8985,-4.9546,-4.989,-5.085,-5.1466,-2.2237,-2.3036,0.0,-2.3854,-2.4642,0.0,-2.679,-2.7577,-2.8143,-2.8495,0.0,-2.903,-2.9233,-2.9504,-2.9752,-3.0097,-3.0119,-3.0139,-3.0305,-2.974,-2.9392,-2.9721,-2.8981,-2.8673,-2.9158,-2.8945,-2.8889,-2.9075,-2.9075,-2.9075,-2.9075,-2.9075,-2.9075,-2.9075,-2.9213,-2.935,-2.9473,-3.0338,-3.1307,-3.2285,-3.3359,-3.4409,-3.5476,-3.6011,-3.6485,-3.6788,-3.6908,-3.6987,-3.697,-3.697,-3.6987,-3.7128,-3.8708,-3.9305,-3.9498,-4.1042,-4.1604,-4.1604,-4.1604,-4.1604,-4.1604,-4.1604,-4.1604,-4.1604,-4.1604,-4.156,-4.156,-4.1426,-4.138,-4.138,-4.138,-4.1272,-4.1435,-4.2555,-4.3366,-4.4067,-4.4729,-4.5449,-4.5957,-4.5942,-4.5977,-4.5874,-4.5717,-4.5494,-4.5477,-4.5788,-4.5545,-4.5406,-4.5598,-4.5632,-4.5701,-4.5938,-4.5938,-4.6038,-4.6332,-4.635,-4.6542,-4.6934,-4.6952,-4.707,-4.7276,-4.7583,-4.7766,-4.7766,-4.8562,-4.8978,-4.8978,-4.9818,-5.0578,-5.1285,-5.1375,-5.1792,-2.2723,-2.3263,0.0,0.0,-2.5269,-2.6377,-2.7217,-2.738,-2.7557,-2.8085,-2.8712,-2.9204,-2.9324,-2.9699,-2.985,-2.9351,-2.9504,-2.945,-2.8656,-2.8712,-2.8708,-2.8488,-2.85,-2.8493,-2.8446,-2.8682,-2.8826,-2.892,-2.9029,-2.9075,-2.9075,-2.9075,-2.9075,-2.9075,-2.9213,-2.9305,-2.935,-2.9736,-3.0396,0.0,-3.2253,-3.3297,-3.4359,-3.5528,-3.6233,-3.6568,-3.6748,-3.6851,-3.6869,-3.6948,-3.6987,-3.7128,-3.8708,-3.9305,-3.9498,-4.1042,-4.1604,-4.1604,-4.1604,-4.1604,-4.1604,-4.1604,-4.1604,-4.156,-4.1471,-4.1426,-4.138,-4.1233,-4.1186,-4.114,-4.1012,-4.0965,-4.1294,-4.2691,-4.3336,-4.3781,-4.4433,-4.518,-4.5649,-4.5581,-4.5528,-4.5528,-4.5477,-4.5284,-4.5039,-4.465,-4.4804,-4.4995,-4.5209,-4.5333,-4.5475,-4.5546,-4.5529,-4.5632,-4.5887,-4.5938,-4.6087,-4.6477,-4.6637,-4.6731,-4.6916,-4.7824,-4.8343,-4.8343,-4.9243,-4.9703,-4.9703,-5.0588,-5.1122,-5.1303,-5.1937,-5.2317,-2.2552,0.0,0.0,-2.4675,0.0,-2.6471,-2.6668,-2.6752,-2.6709,-2.6622,-2.7721,-2.8697,-2.8853,-2.9043,-2.8995,-2.8509,-2.8656,-2.8699,-2.8352,-2.8277,-2.821,-2.813,-2.8017,-2.8015,-2.8168,-2.8493,-2.8763,-2.8904,-2.9013,-2.9075,-2.9075,-2.9075,-2.9075,-2.9075,-2.9167,-2.9259,-2.9305,-2.9502,-2.999,-3.0787,-3.1482,-3.2492,-3.3868,-3.5311,-3.6105,-3.6276,-3.6527,-3.6708,-3.6766,-3.6869,-3.6948,-3.7128,-3.8708,-3.9305,-3.9498,-4.1042,-4.1604,-4.1604,-4.1604,-4.1604,-4.1604,-4.1515,-4.1515,-4.1471,-4.1307,-4.1261,-4.1215,-4.0888,-4.0793,-4.0793,-4.0648,-4.0808,-4.1355,-4.2535,-4.3062,-4.3573,-4.4527,-4.5025,-4.5213,-4.4998,-4.4944,-4.4944,-4.4944,-4.4801,-4.4512,-4.4097,-4.4198,-4.4429,-4.4631,-4.4793,-4.4903,-4.5086,-4.5123,-4.5264,-4.5563,-4.5546,-4.5649,-4.6052,-4.6168,-4.6442,-4.7024,-4.7979,-4.8467,-4.8416,-4.9721,-5.0425,-5.0488,-5.1329,-5.1818,-5.1864,-5.2299,-5.2498,-2.2175,0.0,-2.3935,-2.4924,-2.575,0.0,-2.5914,-2.6013,-2.5921,-2.5158,-2.6451,-2.7778,-2.8043,-2.8108,-2.8011,-2.7783,-2.7854,-2.8008,-2.8332,-2.7897,-2.7617,-2.7871,-2.7624,-2.759,-2.8039,-2.8381,-2.8653,-2.8826,-2.8967,-2.9075,-2.9075,-2.9075,-2.9075,-2.9075,-2.9075,-2.9167,-2.9259,-2.9412,-2.979,-3.0473,-3.0891,-3.1949,-3.3573,-3.4953,-3.5664,-3.5888,-3.6233,-3.6502,-3.6602,-3.6708,-3.6829,-3.7088,-3.8509,-3.9157,-3.9438,-4.0841,-4.1437,-4.1542,-4.156,-4.156,-4.1488,-4.138,-4.1335,-4.129,-4.1076,-4.1,-4.0888,-4.0485,-4.0387,-4.0404,-4.0408,-4.0747,-4.1371,-4.2339,-4.2842,-4.3426,-4.4616,-4.4869,-4.4814,-4.4519,-4.4463,-4.439,-4.4406,-4.4276,-4.4071,-4.3864,-4.3864,-4.3922,-4.4095,-4.4202,-4.435,-4.4648,-4.4703,-4.4848,-4.5189,-4.514,-4.5214,-4.5563,-4.5788,-4.6238,-4.6984,-4.8049,-4.8498,-4.8348,-5.0116,-5.1066,-5.1225,-5.1939,-5.2358,-5.2452,-5.2498,-5.2498,-2.2051,0.0,-2.3393,0.0,-2.5061,-2.54,0.0,0.0,-2.5394,-2.5214,-2.5848,-2.6565,-2.6955,-2.746,-2.7767,-2.7398,-2.748,-2.7458,-2.7113,-2.6968,-2.6963,-2.7135,-2.7307,-2.7488,-2.7675,-2.8137,-2.8493,-2.8621,-2.8826,-2.8967,-2.9075,-2.9075,-2.9075,-2.9075,-2.9075,-2.9121,-2.9121,-2.9259,-2.9398,-2.9494,-3.0451,-3.1702,-3.3178,-3.3703,-3.4472,-3.5429,-3.5844,-3.6088,-3.6199,-3.6444,-3.6643,-3.6812,-3.7648,-3.844,-3.9172,-4.0132,-4.0804,-4.1255,-4.138,-4.1307,-4.114,-4.114,-4.1076,-4.0918,-4.068,-4.0583,-4.0485,-4.0087,-4.0003,-4.0104,-4.0587,-4.0769,-4.1188,-4.2618,-4.2992,-4.3283,-4.4164,-4.4406,-4.4367,-4.4196,-4.4155,-4.4097,-4.3998,-4.3939,-4.3864,-4.3671,-4.3805,-4.3831,-4.3714,-4.3831,-4.3963,-4.4037,-4.4169,-4.4373,-4.4575,-4.4759,-4.4978,-4.523,-4.5849,-4.6161,-4.5939,-4.787,-4.8868,-4.866,-5.045,-5.1479,-5.1629,-5.2066,-5.2311,-5.2311,-5.2452,-5.2498,-2.2318,-2.2811,-2.3224,0.0,-2.4378,-2.4492,-2.4499,-2.4442,-2.4355,-2.4296,-2.4596,-2.5057,-2.5687,-2.6299,-2.6694,-2.6564,-2.6726,-2.6856,-2.6688,-2.6712,-2.6846,-2.7003,-2.7107,-2.7299,-2.7575,-2.7925,-2.8284,-2.8573,-2.8779,-2.8967,-2.9075,-2.9075,-2.9075,-2.9075,-2.9075,-2.9075,-2.9075,-2.9213,-2.935,-2.9412,-3.0314,-3.1082,-3.1709,-3.2318,-3.3463,-3.4994,-3.5412,-3.5667,-3.5722,-3.6088,-3.6276,-3.6429,-3.7292,-3.8096,-3.8876,-3.9666,-4.0429,-4.1041,-4.1105,-4.1012,-4.0806,-4.0776,-4.068,-4.0485,-4.0238,-4.0138,-4.0087,-3.9746,-3.9694,-3.9809,-4.04,-4.0883,-4.1377,-4.2442,-4.3024,-4.3465,-4.3839,-4.3981,-4.4056,-4.3864,-4.3805,-4.3805,-4.3747,-4.3763,-4.3687,-4.3628,-4.3704,-4.3671,-4.3604,-4.368,-4.3814,-4.3873,-4.4465,-4.5033,-4.5324,-4.5953,-4.6397,-4.664,-4.6686,-4.6857,-4.721,-4.8151,-4.8833,-4.9235,-5.061,-5.1384,-5.1589,-5.184,-5.2054,-5.2311,-5.2358,-5.2452,0.0,0.0,-2.2907,-2.3436,-2.3688,-2.3709,0.0,-2.3464,-2.3567,-2.3444,-2.3569,-2.391,-2.4549,-2.5216,-2.5729,-2.5839,-2.615,-2.6351,-2.651,-2.6645,-2.6779,-2.6951,-2.7003,-2.7144,-2.7473,-2.7775,-2.8122,-2.8541,-2.8748,-2.8936,-2.9075,-2.9075,-2.9075,-2.9075,-2.9075,-2.9075,-2.9075,-2.9213,-2.9321,-2.9428,-3.0,-3.0352,-3.0543,-3.1197,-3.2384,-3.4004,-3.4582,-3.4998,-3.5287,-3.5667,-3.5871,-3.5993,-3.6722,-3.7573,-3.8465,-3.9061,-3.9886,-4.068,-4.0745,-4.0614,-4.0402,-4.037,-4.0238,-4.0087,-3.9849,-3.9798,-3.9746,-3.9501,-3.9581,-3.9897,-4.0503,-4.116,-4.1889,-4.2618,-4.323,-4.3628,-4.3628,-4.3704,-4.3763,-4.3628,-4.3628,-4.3628,-4.3628,-4.3628,-4.3628,-4.3628,-4.3628,-4.3628,-4.3628,-4.3777,-4.3969,-4.4164,-4.5042,-4.574,-4.6085,-4.6878,-4.7369,-4.752,-4.7359,-4.7529,-4.8175,-4.8396,-4.889,-4.959,-5.0415,-5.0946,-5.1228,-5.1538,-5.1858,-5.218,-5.2282,-5.2376,0.0,-2.2234,0.0,-2.2895,-2.3027,-2.3079,-2.3159,-2.3211,-2.3191,-2.296,-2.321,-2.345,-2.3628,-2.4434,-2.5174,-2.5619,-2.5839,-2.6042,-2.6457,-2.651,-2.6578,-2.6779,-2.6899,-2.7041,-2.7233,-2.759,-2.7989,-2.8396,-2.8652,-2.8873,-2.9091,-2.9075,-2.9075,-2.9075,-2.9075,-2.9075,-2.9075,-2.9121,-2.9121,-2.9121,-2.9307,-2.9702,-3.0417,-3.0559,-3.1117,-3.2014,-3.3043,-3.4016,-3.4947,-3.5228,-3.5367,-3.547,-3.5611,-3.6569,-3.7885,-3.8061,-3.8948,-4.0188,-4.0288,-4.0155,-3.9952,-3.9952,-3.9833,-3.9677,-3.9537,-3.9501,-3.9501,-3.9325,-3.9823,-4.0481,-4.1177,-4.1905,-4.2651,-4.3396,-4.3595,-4.3628,-4.3628,-4.3628,-4.3628,-4.3628,-4.3628,-4.3628,-4.3628,-4.3628,-4.3628,-4.3628,-4.3628,-4.3628,-4.3628,-4.4208,-4.4699,-4.4913,-4.5745,-4.6301,-4.6464,-4.671,-4.6819,-4.6878,-4.7479,-4.774,-4.7588,-4.8436,-4.905,-4.9297,-4.9708,-5.0176,-5.057,-5.1316,-5.1744,-5.1764,-5.227,-5.2513,-2.1452,0.0,0.0,-2.2342,-2.2474,-2.2474,-2.2537,-2.2537,-2.2539,-2.258,-2.28,-2.3042,-2.3258,-2.406,-2.4765,-2.5061,-2.5508,-2.5893,-2.6218,-2.6418,-2.6578,-2.6779,-2.6846,-2.6951,-2.7041,-2.735,-2.769,-2.8137,-2.8477,-2.8763,-2.8967,-2.9075,-2.9075,-2.9075,-2.9075,-2.9075,-2.9075,-2.9075,-2.9075,-2.9075,-2.9167,-2.9294,-2.9547,-2.961,-3.0131,-3.0958,-3.179,-3.2789,-3.3889,-3.4605,-3.4947,-3.4961,-3.5118,-3.6019,-3.7386,-3.75,-3.8455,-3.9729,-3.9884,-3.9798,-3.9642,-3.9642,-3.9537,-3.9432,-3.9379,-3.9379,-3.9379,-3.9325,-3.9802,-4.0531,-4.1243,-4.1972,-4.2717,-4.3446,-4.3628,-4.3628,-4.3628,-4.3628,-4.3628,-4.3628,-4.3628,-4.3628,-4.3628,-4.3628,-4.3628,-4.3628,-4.3628,-4.3628,-4.3628,-4.4241,-4.4765,-4.4963,-4.6229,-4.7072,-4.7255,-4.7875,-4.8206,-4.8206,-4.846,-4.8578,-4.845,-4.8781,-4.9029,-4.908,-4.9239,-4.9622,-5.0307,-5.0855,-5.1263,-5.15,-5.1853,-5.2168,-2.1115,-2.1404,-2.1536,-2.2065,-2.2197,-2.2197,-2.2197,-2.2197,-2.2247,-2.2309,-2.2555,-2.28,-2.2957,-2.3721,-2.4363,-2.4664,-2.5174,-2.5674,-2.6056,-2.6258,-2.6539,-2.6779,-2.6779,-2.6846,-2.7003,-2.7248,-2.7539,-2.7925,-2.8284,0.0,-2.8826,-2.8967,-2.9075,-2.9075,-2.9075,-2.9075,-2.9075,-2.9075,-2.9075,-2.9075,-2.9075,-2.9075,-2.9075,-2.9075,-2.9421,-3.0099,-3.099,-3.2031,-3.3129,-3.4105,-3.4497,-3.4497,-3.4707,-3.5646,-3.7001,-3.7085,-3.8065,-3.9309,-3.9415,-3.9468,-3.9432,-3.9432,-3.9379,-3.9272,-3.9272,-3.9272,-3.9272,-3.9272,-3.9967,-4.0829,-4.1293,-4.2154,-4.3015,-4.3512,-4.3628,-4.3628,-4.3628,-4.3628,-4.3628,-4.3628,-4.3628,-4.3628,-4.3628,-4.3628,-4.3628,-4.3628,-4.3628,-4.3628,-4.3628,-4.4533,-4.5252,-4.539,-4.6893,-4.7967,-4.8152,-4.8652,-4.9001,-4.9001,-4.9001,-4.9001,-4.9001,-4.9001,-4.9001,-4.9001,-4.904,-4.9342,-4.9884,-5.0289,-5.075,-5.1244,-5.1465,-5.1871,0.0,0.0,0.0,-2.2065,-2.2197,-2.2197,-2.2197,-2.2197,-2.2197,-2.2197,-2.2432,-2.2739,-2.2848,-2.3463,-2.4054,-2.4408,-2.4865,-2.5397,-2.6002,-2.6233,-2.6394,-2.6779,-2.6779,-2.6846,-2.7003,-2.7248,-2.7503,-2.779,-2.8152,-2.8477,-2.8685,-2.8811,-2.8967,-2.9075,-2.9075,-2.9075,-2.9075,-2.9075,-2.9075,-2.9075,-2.9075,-2.9075,-2.9075,-2.9075,-2.9167,-2.9369,-3.0784,-3.1884,-3.2736,-3.3693,-3.4101,-3.4101,-3.4399,-3.5398,-3.6692,-3.6675,-3.7699,-3.8969,-3.9023,-3.9148,-3.9272,-3.9272,-3.9272,-3.9272,-3.9272,-3.9272,-3.9272,-3.9272,-4.0299,-4.1425,-4.1458,-4.2551,-4.3628,-4.3628,-4.3628,-4.3628,-4.3628,-4.3628,-4.3628,-4.3628,-4.3628,-4.3628,-4.3628,-4.3628,-4.3628,-4.3628,-4.3628,-4.3628,-4.3628,-4.5103,-4.6124,-4.629,-4.7816,-4.8832,-4.9001,-4.9001,-4.9001,-4.9001,-4.9001,-4.9001,-4.9001,-4.9001,-4.9001,-4.9001,-4.9107,-4.9168,-4.9229,-4.9722,-5.0314,-5.0858,-5.1209,-5.1654,-2.1115,0.0,0.0,0.0,0.0,0.0,-2.2197,-2.2197,-2.2247,-2.2309,-2.2432,-2.2604,-2.2969,-2.339,-2.3852,-2.4408,-2.4865,-2.5397,-2.6002,-2.6233,-2.6394,-2.6779,-2.6779,-2.6779,-2.6846,-2.7003,-2.7196,0.0,-2.779,-2.8103,-2.8477,-2.8732,-2.8967,-2.9075,-2.9075,-2.9075,-2.9075,-2.9075,-2.9075,-2.9075,-2.9075,-2.9075,-2.9075,-2.9075,-2.9121,-2.9247,-3.0655,-3.1367,-3.1736,-3.3198,-3.3848,-3.3949,-3.405,-3.5059,-3.6393,-3.6535,-3.7486,-3.8727,-3.8914,-3.9023,-3.9094,-3.9272,-3.9272,-3.9272,-3.9272,-3.9272,-3.9272,-3.9272,-4.0299,-4.1674,-4.2734,-4.3313,-4.3628,-4.3628,-4.3628,-4.3628,-4.3628,-4.3628,-4.3628,-4.3628,-4.3628,-4.3628,-4.3628,-4.3628,-4.3628,-4.3628,-4.3628,-4.3628,-4.3763,-4.5163,-4.6185,-4.6394,-4.7878,-4.8832,-4.9001,-4.9001,-4.9001,-4.9001,-4.9001,-4.9001,-4.9001,-4.9001,-4.9001,-4.9001,-4.9063,-4.9107,-4.9229,-4.9674,-5.0028,-5.0258,-5.0999,-5.1485,-2.1175,-2.1404,-2.1536,-2.2065,0.0,0.0,-2.2197,-2.2247,-2.2309,-2.2359,-2.2543,-2.2836,-2.3258,-2.3616,-2.4073,-2.4694,-2.5118,-2.5522,-2.6016,-2.6233,-2.6394,-2.6779,-2.6779,-2.6779,-2.6779,-2.6899,-2.7055,-2.7196,-2.7539,-2.794,-2.8363,-2.8653,-2.8826,-2.9013,-2.9013,-2.9029,-2.9075,-2.9075,-2.9075,-2.9075,-2.9075,-2.9075,-2.9075,-2.9075,-2.9075,-2.9154,-3.0607,-3.1223,-3.1318,-3.2879,-3.3607,-3.3745,-3.3848,-3.4836,-3.6201,-3.6393,-3.734,-3.8616,-3.8766,-3.8931,-3.9023,-3.9148,-3.9218,-3.9272,-3.9272,-3.9272,-3.9272,-3.9272,-4.0299,-4.1756,-4.3247,-4.3628,-4.3628,-4.3628,-4.3628,-4.3628,-4.3628,-4.3628,-4.3628,-4.3628,-4.3628,-4.3628,-4.3628,-4.3628,-4.3628,-4.3628,-4.3628,-4.3628,-4.3763,-4.4897,-4.5895,-4.6361,-4.7591,-4.8557,-4.8984,-4.9001,-4.9001,-4.9001,-4.9001,-4.9001,-4.9001,-4.9001,-4.9001,-4.9001,-4.9001,-4.9063,-4.9229,-4.9453,-4.9791,-5.0102,-5.0694,-5.1193,-2.1403,-2.1548,-2.1669,-2.2139,-2.2259,0.0,-2.2259,-2.2371,-2.242,-2.2482,-2.2836,-2.3198,-2.3569,-2.4015,-2.4523,-2.5118,-2.5369,-2.5661,-2.6071,-2.6233,-2.6394,-2.6779,-2.6779,-2.6779,-2.6779,-2.6899,-2.7003,-2.7003,-2.7335,-2.7775,-2.8299,-2.8444,-2.8653,-2.8873,-2.8873,-2.892,-2.9091,-2.9075,-2.9075,-2.9075,-2.9075,-2.9075,-2.9075,-2.9075,-2.9075,-2.9154,-3.0607,-3.1223,-3.1318,-3.2724,-3.3398,-3.3503,-3.3745,-3.4752,-3.6045,-3.6217,-3.7248,-3.856,-3.856,-3.8782,-3.8969,-3.8969,-3.9148,-3.9272,-3.9272,-3.9272,-3.9305,-3.9471,-4.0431,-4.1756,-4.3247,-4.3628,-4.3628,-4.3628,-4.3628,-4.3628,-4.3628,-4.3628,-4.3628,-4.3628,-4.3628,-4.3628,-4.3628,-4.3628,-4.3628,-4.3628,-4.3628,-4.3628,-4.3628,-4.454,-4.547,-4.6267,-4.7282,-4.8206,-4.8951,-4.9001,-4.9001,-4.9001,-4.9001,-4.9001,-4.9001,-4.9001,-4.9001,-4.9001,-4.9001,-4.9063,-4.9168,-4.9168,-4.953,-5.0132,-5.038,-5.0675,-2.231,-2.2469,-2.2494,-2.2604,-2.2629,0.0,-2.2629,-2.2616,-2.2678,-2.2896,-2.3017,-2.3258,-2.3878,-2.4144,-2.4523,-2.5118,-2.5369,-2.5661,-2.6179,-2.6286,-2.6394,-2.6779,-2.6779,-2.6779,-2.6779,-2.6832,-2.6899,-2.7003,-2.7248,-2.759,-2.789,-2.8024,-2.8268,-2.8668,-2.8668,-2.8716,-2.8842,-2.8936,-2.8967,-2.8967,-2.9075,-2.9075,-2.9075,-2.9075,-2.9075,-2.9154,-3.0607,-3.1223,-3.1318,-3.2724,-3.3398,-3.3503,-3.3555,-3.4542,-3.5975,-3.6045,-3.709,-3.8448,-3.856,-3.8711,-3.886,-3.8969,-3.9148,-3.9272,-3.9272,-3.9272,-3.952,-4.0663,-4.1193,-4.1756,-4.3247,-4.3628,-4.3628,-4.3628,-4.3628,-4.3628,-4.3628,-4.3628,-4.3628,-4.3628,-4.3628,-4.3628,-4.3628,-4.3628,-4.3628,-4.3628,-4.3628,-4.3628,-4.3839,-4.4616,-4.5513,-4.637,-4.7325,-4.8206,-4.8951,-4.9001,-4.9001,-4.9001,-4.9001,-4.9001,-4.9001,-4.9001,-4.9001,-4.9001,-4.9001,-4.9001,-4.9063,-4.9168,-4.9411,-4.9825,-4.9866,-5.0114,-2.2967,-2.2982,-2.2909,-2.2909,-2.2909,0.0,0.0,-2.2982,-2.3103,-2.3318,-2.3497,-2.3734,-2.4203,-2.4478,-2.4821,-2.5244,-2.5481,-2.5743,-2.6233,-2.6286,-2.6394,-2.6779,-2.707,-2.7128,-2.6823,-2.707,-2.7181,-2.7033,-2.7093,-2.7299,-2.7604,-2.7675,-2.7875,-2.8268,-2.8317,-2.8381,-2.8604,-2.8716,-2.8748,-2.8748,-2.892,-2.9013,-2.9013,-2.9075,-2.9075,-2.9154,-3.0607,-3.1223,-3.1318,-3.2724,-3.3346,-3.3398,-3.345,-3.4245,-3.5364,-3.5808,-3.6738,-3.7794,-3.8334,-3.86,-3.8805,-3.886,-3.9094,-3.9272,-3.9272,-3.9272,-3.9504,-4.0597,-4.1143,-4.1674,-4.2783,-4.3346,-4.3628,-4.3628,-4.3628,-4.3628,-4.3628,-4.3628,-4.3628,-4.3628,-4.3628,-4.3628,-4.3628,-4.3628,-4.3628,-4.3628,-4.3628,-4.3628,-4.3763,-4.4298,-4.5127,-4.6277,-4.6988,-4.78,-4.8917,-4.9001,-4.9001,-4.9001,-4.9001,-4.9001,-4.9001,-4.9001,-4.9001,-4.9001,-4.9001,-4.9001,-4.9001,-4.9063,-4.9229,-4.9471,-4.953,-4.9767,-2.3628,-2.3497,-2.3365,-2.3365,-2.3365,-2.3365,0.0,0.0,0.0,-2.3806,-2.4041,-2.4332,-2.458,-2.4878,-2.5174,-2.5536,-2.5688,0.0,0.0,-2.6326,0.0,-2.6779,-2.7229,-2.7345,-2.6837,-2.736,-2.7461,-2.6995,-2.7068,-2.7187,-2.7314,-2.7299,-2.7488,-2.7875,-2.786,-2.8024,-2.8299,-2.8444,-2.8477,-2.8525,-2.8748,-2.8873,-2.8858,-2.9029,-2.9075,-2.9154,-3.0607,-3.1223,-3.1318,-3.2724,-3.3309,-3.3293,-3.3398,-3.3932,-3.4701,-3.5626,-3.6458,-3.7198,-3.8092,-3.856,-3.875,-3.8805,-3.904,-3.9272,-3.9272,-3.9272,-3.9421,-4.0166,-4.0878,-4.1591,-4.2336,-4.3065,-4.3628,-4.3628,-4.3628,-4.3628,-4.3628,-4.3628,-4.3628,-4.3628,-4.3628,-4.3628,-4.3628,-4.3628,-4.3628,-4.3628,-4.3628,-4.3628,-4.3628,-4.3864,-4.4616,-4.5939,-4.6389,-4.7192,-4.8663,-4.8798,-4.8849,-4.9001,-4.9001,-4.9001,-4.9001,-4.9001,-4.9001,-4.9001,-4.9001,-4.9001,-4.9001,-4.9001,-4.9063,-4.9168,-4.9307,-4.9488,-2.4465,-2.435,-2.4337,-2.4337,-2.4337,-2.4337,-2.4337,0.0,-2.4408,-2.4607,0.0,-2.4778,-2.5061,0.0,0.0,-2.5784,-2.5962,0.0,-2.6457,-2.6457,-2.6578,-2.6779,-2.6852,-2.6866,-2.6794,-2.736,-2.7461,-2.689,-2.7302,-2.7428,-2.7085,-2.7055,-2.7159,-2.7452,-2.7452,-2.759,-2.789,-2.8024,-2.8122,-2.8235,-2.8525,-2.8653,-2.8732,-2.8873,-2.8967,-2.9154,-3.0607,-3.1223,-3.1318,-3.2724,-3.3309,-3.3309,-3.3309,-3.3842,-3.4701,-3.5518,-3.6348,-3.7198,-3.8092,-3.8504,-3.8616,-3.875,-3.904,-3.9272,-3.9272,-3.9272,-3.9421,-4.0166,-4.0878,-4.1591,-4.2336,-4.3065,-4.3628,-4.3628,-4.3628,-4.3628,-4.3628,-4.3628,-4.3628,-4.3628,-4.3628,-4.3628,-4.3628,-4.3628,-4.3628,-4.3628,-4.3628,-4.3628,-4.3628,-4.3864,-4.4398,-4.5219,-4.563,-4.643,-4.7919,-4.8037,-4.8308,-4.8968,-4.9001,-4.9001,-4.9001,-4.9001,-4.9001,-4.9001,-4.9001,-4.9001,-4.9001,-4.9001,-4.9001,-4.9001,-4.9063,-4.9124,-2.5467,-2.5342,-2.5231,-2.5231,-2.5231,-2.5231,-2.5231,-2.5231,-2.53,-2.5522,0.0,0.0,0.0,0.0,0.0,0.0,-2.6365,-2.6539,0.0,0.0,-2.6712,-2.6779,0.0,0.0,-2.7331,-2.7229,-2.707,-2.6808,-2.7374,-2.7607,-2.7399,-2.7802,-2.8046,-2.8263,-2.788,-2.7779,-2.7988,-2.7769,-2.774,-2.7875,-2.8122,-2.8332,-2.8525,-2.87,-2.8873,-2.9045,-3.0558,-3.1223,-3.1318,-3.2724,-3.3309,-3.3309,-3.3309,-3.3535,-3.4022,-3.532,-3.6021,-3.6564,-3.7947,-3.852,-3.8616,-3.8876,-3.9023,-3.9148,-3.9272,-3.9272,-3.9338,-3.9653,-4.0547,-4.1491,-4.1789,-4.275,-4.3628,-4.3628,-4.3628,-4.3628,-4.3628,-4.3628,-4.3628,-4.3628,-4.3628,-4.3628,-4.3628,-4.3628,-4.3628,-4.3628,-4.3628,-4.3628,-4.3628,-4.3864,-4.4365,-4.5102,-4.5513,-4.6126,-4.7175,-4.7259,-4.7394,-4.7699,-4.8139,-4.8562,-4.8984,-4.9001,-4.9001,-4.9001,-4.9001,-4.9001,-4.9001,-4.9001,-4.9001,-4.9001,-4.9001,-4.9001,-2.6481,-2.6375,-2.6254,-2.6254,-2.6254,-2.6254,-2.6254,-2.6254,-2.6254,-2.6428,-2.6375,0.0,0.0,0.0,-2.6736,-2.6736,0.0,-2.6997,-2.713,-2.7041,-2.6937,0.0,0.0,0.0,0.0,-2.7215,-2.7041,-2.7041,0.0,-2.7984,-2.7984,-2.8434,-2.8737,-2.8849,-2.8382,-2.81,-2.8032,-2.7735,-2.7513,-2.7473,-2.7725,-2.7989,-2.825,-2.8462,-2.8794,-2.9218,-3.0572,-3.1268,-3.1586,-3.2803,-3.3309,-3.3309,-3.3309,-3.3309,-3.352,-3.5208,-3.5828,-3.6037,-3.7778,-3.852,-3.8616,-3.8876,-3.8969,-3.9023,-3.9218,-3.9272,-3.9272,-3.9272,-4.0299,-4.1409,-4.1409,-4.2518,-4.3628,-4.3628,-4.3628,-4.3628,-4.3628,-4.3628,-4.3628,-4.3628,-4.3628,-4.3628,-4.3628,-4.3628,-4.3628,-4.3628,-4.3628,-4.3628,-4.3628,-4.3864,-4.4298,-4.4817,-4.5209,-4.5703,-4.643,-4.6498,-4.6583,-4.6786,-4.7496,-4.8156,-4.868,-4.89,-4.9001,-4.9001,-4.9001,-4.9001,-4.9001,-4.9001,-4.9001,-4.9001,-4.9001,-4.9001,0.0,0.0,0.0,-2.7464,0.0,-2.7464,-2.7464,-2.7348,-2.7232,-2.7246,-2.7159,-2.7071,-2.7071,-2.7269,-2.735,-2.735,-2.7473,0.0,0.0,-2.7488,-2.7299,-2.7003,0.0,0.0,0.0,-2.7345,-2.7639,0.0,-2.8289,0.0,-2.8652,-2.8666,-2.8681,-2.8737,-2.8708,-2.8458,-2.791,-2.7881,-2.768,-2.7218,-2.7335,-2.7539,-2.784,-2.8088,-2.8768,-2.9826,-3.0629,-3.1486,-3.2349,-3.3008,-3.3309,-3.3309,-3.3309,-3.3309,-3.352,-3.5208,-3.5828,-3.6037,-3.7778,-3.852,-3.8616,-3.875,-3.8914,-3.9023,-3.9218,-3.9272,-3.9272,-3.9272,-4.0299,-4.1409,-4.1409,-4.2518,-4.3628,-4.3628,-4.3628,-4.3628,-4.3628,-4.3628,-4.3628,-4.3628,-4.3628,-4.3628,-4.3628,-4.3628,-4.3628,-4.3628,-4.3628,-4.3628,-4.3628,-4.3864,-4.4114,-4.4131,-4.4434,-4.4925,-4.5669,-4.5737,-4.6041,-4.6752,-4.7496,-4.7936,-4.7953,-4.8629,-4.9001,-4.9001,-4.9001,-4.9001,-4.9001,-4.9001,-4.9001,-4.9001,-4.9001,-4.9001,0.0,0.0,-2.8091,-2.8093,0.0,0.0,0.0,0.0,-2.8161,-2.8005,-2.7941,-2.7923,-2.7966,-2.7997,-2.8076,-2.8039,-2.8103,-2.8137,0.0,-2.794,-2.7675,-2.7299,-2.7041,-2.6899,0.0,0.0,0.0,0.0,-2.871,0.0,0.0,-2.9711,-2.9943,-2.9943,-2.9523,-2.9203,-2.9028,-2.8199,-2.7715,-2.7642,-2.7284,-2.7262,-2.7539,-2.779,-2.8438,-2.9477,-3.0444,-3.1334,-3.2179,-3.2956,-3.3309,-3.3309,-3.3309,-3.3309,-3.3467,-3.5077,-3.5696,-3.5903,-3.7665,-3.8351,-3.8504,-3.8616,-3.8766,-3.8914,-3.9023,-3.9202,-3.9272,-3.9272,-4.0299,-4.1409,-4.1409,-4.2518,-4.3628,-4.3628,-4.3628,-4.3628,-4.3628,-4.3628,-4.3628,-4.3628,-4.3628,-4.3628,-4.3628,-4.3628,-4.3628,-4.3628,-4.3628,-4.3628,-4.3628,-4.3864,-4.4097,-4.4097,-4.44,-4.4671,-4.4942,-4.4959,-4.528,-4.6024,-4.6769,-4.7394,-4.7902,-4.8612,-4.9001,-4.9001,-4.9001,-4.9001,-4.9001,-4.9001,-4.9001,-4.9001,-4.9001,-4.9001,-2.8098,-2.8336,0.0,-2.8287,-2.8528,0.0,-2.8713,0.0,-2.8944,0.0,-2.8808,-2.8732,-2.8654,-2.867,-2.8654,-2.8543,-2.8559,-2.8542,0.0,-2.8381,-2.8107,-2.7675,-2.7335,-2.7041,-2.6899,-2.7399,-2.7864,-2.8042,-2.9029,0.0,0.0,0.0,-3.0568,-3.0568,-3.0176,-2.9856,-2.9624,-2.8594,-2.7995,-2.7802,-2.7243,-2.7041,-2.7248,-2.7554,-2.8324,-2.9562,-3.0386,-3.1373,-3.2437,-3.3051,-3.3309,-3.3309,-3.3309,-3.3309,-3.3482,-3.5022,-3.5975,-3.6702,-3.7801,-3.8294,-3.8391,-3.8576,-3.8711,-3.8805,-3.8969,-3.9148,-3.9322,-3.9587,-4.0514,-4.1475,-4.174,-4.2717,-4.3628,-4.3628,-4.3628,-4.3628,-4.3628,-4.3628,-4.3628,-4.3628,-4.3628,-4.3628,-4.3628,-4.3628,-4.3628,-4.3628,-4.3628,-4.3628,-4.3628,-4.3864,-4.4097,-4.4097,-4.44,-4.4587,-4.4587,-4.4587,-4.479,-4.528,-4.6244,-4.7005,-4.7496,-4.8477,-4.9001,-4.9001,-4.9001,-4.9001,-4.9001,-4.9001,-4.9001,-4.9001,-4.9001,-4.9001]}]]